<?xml version="1.0" encoding="UTF-8" standalone="no"?>
<gpx xmlns="http://www.topografix.com/GPX/1/1" creator="Maps 3D" version="1.1" xmlns:xsi="http://www.w3.org/2001/XMLSchema-instance" xsi:schemaLocation="http://www.topografix.com/GPX/1/1 http://www.topografix.com/GPX/1/1/gpx.xsd">
	<trk>
<name>Maps3D_TR-2014-03-08 pm16-14</name>
<extensions>
<Maps3D:TrackExtensions xmlns:Maps3D="http://www.movingworld.de/xmlschemas/GpxExtensions/v1">
<Maps3D:RealSpeed>10.384616</Maps3D:RealSpeed>
<Maps3D:RealSecondsSpent>9630</Maps3D:RealSecondsSpent>
</Maps3D:TrackExtensions>
</extensions>
<trkseg>
<trkpt lat="53.521188" lon="10.010569">
   <ele>3.676002</ele>
   <time>2014-03-08T13:15:42Z</time>
</trkpt>
<trkpt lat="53.521164" lon="10.010651">
   <ele>3.764498</ele>
   <time>2014-03-08T13:15:47Z</time>
</trkpt>
<trkpt lat="53.521164" lon="10.010788">
   <ele>3.798475</ele>
   <time>2014-03-08T13:15:50Z</time>
</trkpt>
<trkpt lat="53.521226" lon="10.011030">
   <ele>3.599627</ele>
   <time>2014-03-08T13:15:54Z</time>
</trkpt>
<trkpt lat="53.521236" lon="10.011144">
   <ele>3.563574</ele>
   <time>2014-03-08T13:15:58Z</time>
</trkpt>
<trkpt lat="53.521280" lon="10.011179">
   <ele>3.362786</ele>
   <time>2014-03-08T13:16:03Z</time>
</trkpt>
<trkpt lat="53.521313" lon="10.011124">
   <ele>3.222433</ele>
   <time>2014-03-08T13:16:07Z</time>
</trkpt>
<trkpt lat="53.521312" lon="10.010945">
   <ele>3.258725</ele>
   <time>2014-03-08T13:16:11Z</time>
</trkpt>
<trkpt lat="53.521319" lon="10.010765">
   <ele>3.263784</ele>
   <time>2014-03-08T13:16:15Z</time>
</trkpt>
<trkpt lat="53.521321" lon="10.010646">
   <ele>3.283936</ele>
   <time>2014-03-08T13:16:18Z</time>
</trkpt>
<trkpt lat="53.521325" lon="10.010498">
   <ele>3.302010</ele>
   <time>2014-03-08T13:16:21Z</time>
</trkpt>
<trkpt lat="53.521331" lon="10.010422">
   <ele>3.304655</ele>
   <time>2014-03-08T13:16:25Z</time>
</trkpt>
<trkpt lat="53.521339" lon="10.010536">
   <ele>3.256570</ele>
   <time>2014-03-08T13:16:29Z</time>
</trkpt>
<trkpt lat="53.521315" lon="10.010676">
   <ele>3.296577</ele>
   <time>2014-03-08T13:16:32Z</time>
</trkpt>
<trkpt lat="53.521215" lon="10.010910">
   <ele>3.632161</ele>
   <time>2014-03-08T13:16:36Z</time>
</trkpt>
<trkpt lat="53.521197" lon="10.011114">
   <ele>3.731838</ele>
   <time>2014-03-08T13:16:39Z</time>
</trkpt>
<trkpt lat="53.521160" lon="10.011207">
   <ele>3.921309</ele>
   <time>2014-03-08T13:16:42Z</time>
</trkpt>
<trkpt lat="53.521178" lon="10.011082">
   <ele>3.809530</ele>
   <time>2014-03-08T13:16:45Z</time>
</trkpt>
<trkpt lat="53.521197" lon="10.010869">
   <ele>3.694867</ele>
   <time>2014-03-08T13:16:49Z</time>
</trkpt>
<trkpt lat="53.521199" lon="10.010714">
   <ele>3.666158</ele>
   <time>2014-03-08T13:16:52Z</time>
</trkpt>
<trkpt lat="53.521204" lon="10.010566">
   <ele>3.629735</ele>
   <time>2014-03-08T13:16:56Z</time>
</trkpt>
<trkpt lat="53.521155" lon="10.010544">
   <ele>3.761631</ele>
   <time>2014-03-08T13:17:04Z</time>
</trkpt>
<trkpt lat="53.521177" lon="10.010611">
   <ele>3.717406</ele>
   <time>2014-03-08T13:17:38Z</time>
</trkpt>
<trkpt lat="53.521155" lon="10.010697">
   <ele>3.805777</ele>
   <time>2014-03-08T13:17:42Z</time>
</trkpt>
<trkpt lat="53.521136" lon="10.010855">
   <ele>3.918775</ele>
   <time>2014-03-08T13:17:45Z</time>
</trkpt>
<trkpt lat="53.521142" lon="10.011044">
   <ele>3.953685</ele>
   <time>2014-03-08T13:17:48Z</time>
</trkpt>
<trkpt lat="53.521202" lon="10.011205">
   <ele>3.726123</ele>
   <time>2014-03-08T13:17:52Z</time>
</trkpt>
<trkpt lat="53.521269" lon="10.011149">
   <ele>3.415375</ele>
   <time>2014-03-08T13:17:55Z</time>
</trkpt>
<trkpt lat="53.521296" lon="10.010996">
   <ele>3.313167</ele>
   <time>2014-03-08T13:17:59Z</time>
</trkpt>
<trkpt lat="53.521321" lon="10.010842">
   <ele>3.242968</ele>
   <time>2014-03-08T13:18:03Z</time>
</trkpt>
<trkpt lat="53.521320" lon="10.010728">
   <ele>3.268676</ele>
   <time>2014-03-08T13:18:06Z</time>
</trkpt>
<trkpt lat="53.521344" lon="10.010540">
   <ele>3.239725</ele>
   <time>2014-03-08T13:18:10Z</time>
</trkpt>
<trkpt lat="53.521347" lon="10.010365">
   <ele>3.280970</ele>
   <time>2014-03-08T13:18:13Z</time>
</trkpt>
<trkpt lat="53.521355" lon="10.010166">
   <ele>3.323995</ele>
   <time>2014-03-08T13:18:17Z</time>
</trkpt>
<trkpt lat="53.521349" lon="10.010034">
   <ele>3.370991</ele>
   <time>2014-03-08T13:18:20Z</time>
</trkpt>
<trkpt lat="53.521348" lon="10.009938">
   <ele>3.261499</ele>
   <time>2014-03-08T13:18:23Z</time>
</trkpt>
<trkpt lat="53.521325" lon="10.010010">
   <ele>3.407324</ele>
   <time>2014-03-08T13:18:54Z</time>
</trkpt>
<trkpt lat="53.521324" lon="10.009921">
   <ele>3.260828</ele>
   <time>2014-03-08T13:19:00Z</time>
</trkpt>
<trkpt lat="53.521319" lon="10.009765">
   <ele>2.969381</ele>
   <time>2014-03-08T13:19:03Z</time>
</trkpt>
<trkpt lat="53.521309" lon="10.009627">
   <ele>2.726189</ele>
   <time>2014-03-08T13:19:06Z</time>
</trkpt>
<trkpt lat="53.521291" lon="10.009433">
   <ele>2.397382</ele>
   <time>2014-03-08T13:19:10Z</time>
</trkpt>
<trkpt lat="53.521262" lon="10.009229">
   <ele>2.085035</ele>
   <time>2014-03-08T13:19:14Z</time>
</trkpt>
<trkpt lat="53.521232" lon="10.009035">
   <ele>2.111176</ele>
   <time>2014-03-08T13:19:18Z</time>
</trkpt>
<trkpt lat="53.521209" lon="10.008785">
   <ele>2.259534</ele>
   <time>2014-03-08T13:19:22Z</time>
</trkpt>
<trkpt lat="53.521197" lon="10.008485">
   <ele>2.380157</ele>
   <time>2014-03-08T13:19:25Z</time>
</trkpt>
<trkpt lat="53.521161" lon="10.008233">
   <ele>1.784565</ele>
   <time>2014-03-08T13:19:29Z</time>
</trkpt>
<trkpt lat="53.521128" lon="10.007986">
   <ele>1.289242</ele>
   <time>2014-03-08T13:19:33Z</time>
</trkpt>
<trkpt lat="53.521101" lon="10.007743">
   <ele>0.837036</ele>
   <time>2014-03-08T13:19:37Z</time>
</trkpt>
<trkpt lat="53.521078" lon="10.007549">
   <ele>0.506251</ele>
   <time>2014-03-08T13:19:40Z</time>
</trkpt>
<trkpt lat="53.521062" lon="10.007371">
   <ele>0.408995</ele>
   <time>2014-03-08T13:19:43Z</time>
</trkpt>
<trkpt lat="53.521046" lon="10.007144">
   <ele>0.380231</ele>
   <time>2014-03-08T13:19:47Z</time>
</trkpt>
<trkpt lat="53.521041" lon="10.006988">
   <ele>0.347168</ele>
   <time>2014-03-08T13:19:50Z</time>
</trkpt>
<trkpt lat="53.521028" lon="10.006827">
   <ele>0.343596</ele>
   <time>2014-03-08T13:19:53Z</time>
</trkpt>
<trkpt lat="53.521004" lon="10.006580">
   <ele>0.363360</ele>
   <time>2014-03-08T13:19:57Z</time>
</trkpt>
<trkpt lat="53.520985" lon="10.006381">
   <ele>0.391598</ele>
   <time>2014-03-08T13:20:00Z</time>
</trkpt>
<trkpt lat="53.520971" lon="10.006057">
   <ele>0.381797</ele>
   <time>2014-03-08T13:20:04Z</time>
</trkpt>
<trkpt lat="53.520957" lon="10.005821">
   <ele>0.408203</ele>
   <time>2014-03-08T13:20:08Z</time>
</trkpt>
<trkpt lat="53.520939" lon="10.005602">
   <ele>0.494385</ele>
   <time>2014-03-08T13:20:12Z</time>
</trkpt>
<trkpt lat="53.520912" lon="10.005365">
   <ele>0.621338</ele>
   <time>2014-03-08T13:20:16Z</time>
</trkpt>
<trkpt lat="53.520904" lon="10.005196">
   <ele>0.659668</ele>
   <time>2014-03-08T13:20:19Z</time>
</trkpt>
<trkpt lat="53.520844" lon="10.004885">
   <ele>0.953403</ele>
   <time>2014-03-08T13:20:23Z</time>
</trkpt>
<trkpt lat="53.520820" lon="10.004689">
   <ele>1.092958</ele>
   <time>2014-03-08T13:20:26Z</time>
</trkpt>
<trkpt lat="53.520798" lon="10.004502">
   <ele>1.217644</ele>
   <time>2014-03-08T13:20:29Z</time>
</trkpt>
<trkpt lat="53.520780" lon="10.004263">
   <ele>1.278599</ele>
   <time>2014-03-08T13:20:33Z</time>
</trkpt>
<trkpt lat="53.520770" lon="10.004083">
   <ele>1.290780</ele>
   <time>2014-03-08T13:20:36Z</time>
</trkpt>
<trkpt lat="53.520742" lon="10.003832">
   <ele>1.351436</ele>
   <time>2014-03-08T13:20:40Z</time>
</trkpt>
<trkpt lat="53.520709" lon="10.003581">
   <ele>1.387252</ele>
   <time>2014-03-08T13:20:44Z</time>
</trkpt>
<trkpt lat="53.520685" lon="10.003389">
   <ele>1.380321</ele>
   <time>2014-03-08T13:20:47Z</time>
</trkpt>
<trkpt lat="53.520665" lon="10.003206">
   <ele>1.587099</ele>
   <time>2014-03-08T13:20:50Z</time>
</trkpt>
<trkpt lat="53.520632" lon="10.002966">
   <ele>1.938480</ele>
   <time>2014-03-08T13:20:54Z</time>
</trkpt>
<trkpt lat="53.520621" lon="10.002805">
   <ele>2.131324</ele>
   <time>2014-03-08T13:20:57Z</time>
</trkpt>
<trkpt lat="53.520600" lon="10.002581">
   <ele>2.354464</ele>
   <time>2014-03-08T13:21:01Z</time>
</trkpt>
<trkpt lat="53.520582" lon="10.002407">
   <ele>1.000000</ele>
   <time>2014-03-08T13:21:04Z</time>
</trkpt>
<trkpt lat="53.520556" lon="10.002157">
   <ele>1.000000</ele>
   <time>2014-03-08T13:21:08Z</time>
</trkpt>
<trkpt lat="53.520536" lon="10.001963">
   <ele>1.000000</ele>
   <time>2014-03-08T13:21:11Z</time>
</trkpt>
<trkpt lat="53.520506" lon="10.001706">
   <ele>1.000000</ele>
   <time>2014-03-08T13:21:15Z</time>
</trkpt>
<trkpt lat="53.520478" lon="10.001463">
   <ele>1.000000</ele>
   <time>2014-03-08T13:21:19Z</time>
</trkpt>
<trkpt lat="53.520464" lon="10.001277">
   <ele>1.000000</ele>
   <time>2014-03-08T13:21:23Z</time>
</trkpt>
<trkpt lat="53.520458" lon="10.001187">
   <ele>1.000000</ele>
   <time>2014-03-08T13:21:26Z</time>
</trkpt>
<trkpt lat="53.520434" lon="10.001011">
   <ele>1.000000</ele>
   <time>2014-03-08T13:21:30Z</time>
</trkpt>
<trkpt lat="53.520416" lon="10.000860">
   <ele>1.000000</ele>
   <time>2014-03-08T13:21:33Z</time>
</trkpt>
<trkpt lat="53.520396" lon="10.000698">
   <ele>1.516719</ele>
   <time>2014-03-08T13:21:36Z</time>
</trkpt>
<trkpt lat="53.520381" lon="10.000530">
   <ele>1.511560</ele>
   <time>2014-03-08T13:21:39Z</time>
</trkpt>
<trkpt lat="53.520363" lon="10.000329">
   <ele>1.486372</ele>
   <time>2014-03-08T13:21:43Z</time>
</trkpt>
<trkpt lat="53.520354" lon="10.000121">
   <ele>1.447036</ele>
   <time>2014-03-08T13:21:47Z</time>
</trkpt>
<trkpt lat="53.520343" lon="9.999963">
   <ele>1.393597</ele>
   <time>2014-03-08T13:21:50Z</time>
</trkpt>
<trkpt lat="53.520321" lon="9.999735">
   <ele>1.263226</ele>
   <time>2014-03-08T13:21:54Z</time>
</trkpt>
<trkpt lat="53.520305" lon="9.999492">
   <ele>1.143069</ele>
   <time>2014-03-08T13:21:58Z</time>
</trkpt>
<trkpt lat="53.520283" lon="9.999246">
   <ele>1.032222</ele>
   <time>2014-03-08T13:22:02Z</time>
</trkpt>
<trkpt lat="53.520259" lon="9.999054">
   <ele>1.000000</ele>
   <time>2014-03-08T13:22:05Z</time>
</trkpt>
<trkpt lat="53.520235" lon="9.998860">
   <ele>1.000000</ele>
   <time>2014-03-08T13:22:08Z</time>
</trkpt>
<trkpt lat="53.520214" lon="9.998658">
   <ele>1.000000</ele>
   <time>2014-03-08T13:22:11Z</time>
</trkpt>
<trkpt lat="53.520196" lon="9.998460">
   <ele>1.000000</ele>
   <time>2014-03-08T13:22:14Z</time>
</trkpt>
<trkpt lat="53.520176" lon="9.998202">
   <ele>1.000000</ele>
   <time>2014-03-08T13:22:18Z</time>
</trkpt>
<trkpt lat="53.520155" lon="9.997971">
   <ele>1.000000</ele>
   <time>2014-03-08T13:22:22Z</time>
</trkpt>
<trkpt lat="53.520138" lon="9.997802">
   <ele>1.000000</ele>
   <time>2014-03-08T13:22:25Z</time>
</trkpt>
<trkpt lat="53.520108" lon="9.997582">
   <ele>1.000000</ele>
   <time>2014-03-08T13:22:29Z</time>
</trkpt>
<trkpt lat="53.520086" lon="9.997357">
   <ele>1.000000</ele>
   <time>2014-03-08T13:22:33Z</time>
</trkpt>
<trkpt lat="53.520061" lon="9.997130">
   <ele>1.000000</ele>
   <time>2014-03-08T13:22:37Z</time>
</trkpt>
<trkpt lat="53.520040" lon="9.996963">
   <ele>1.000000</ele>
   <time>2014-03-08T13:22:40Z</time>
</trkpt>
<trkpt lat="53.520016" lon="9.996792">
   <ele>1.000000</ele>
   <time>2014-03-08T13:22:43Z</time>
</trkpt>
<trkpt lat="53.519983" lon="9.996561">
   <ele>1.284603</ele>
   <time>2014-03-08T13:22:47Z</time>
</trkpt>
<trkpt lat="53.519964" lon="9.996390">
   <ele>1.705996</ele>
   <time>2014-03-08T13:22:50Z</time>
</trkpt>
<trkpt lat="53.519947" lon="9.996161">
   <ele>2.224778</ele>
   <time>2014-03-08T13:22:54Z</time>
</trkpt>
<trkpt lat="53.519929" lon="9.995988">
   <ele>2.591265</ele>
   <time>2014-03-08T13:22:57Z</time>
</trkpt>
<trkpt lat="53.519907" lon="9.995758">
   <ele>1.989941</ele>
   <time>2014-03-08T13:23:01Z</time>
</trkpt>
<trkpt lat="53.519888" lon="9.995540">
   <ele>1.952582</ele>
   <time>2014-03-08T13:23:05Z</time>
</trkpt>
<trkpt lat="53.519878" lon="9.995377">
   <ele>1.919715</ele>
   <time>2014-03-08T13:23:08Z</time>
</trkpt>
<trkpt lat="53.519866" lon="9.995208">
   <ele>1.879379</ele>
   <time>2014-03-08T13:23:11Z</time>
</trkpt>
<trkpt lat="53.519846" lon="9.994969">
   <ele>1.791162</ele>
   <time>2014-03-08T13:23:15Z</time>
</trkpt>
<trkpt lat="53.519819" lon="9.994729">
   <ele>1.598861</ele>
   <time>2014-03-08T13:23:19Z</time>
</trkpt>
<trkpt lat="53.519805" lon="9.994562">
   <ele>1.486703</ele>
   <time>2014-03-08T13:23:22Z</time>
</trkpt>
<trkpt lat="53.519782" lon="9.994402">
   <ele>1.396227</ele>
   <time>2014-03-08T13:23:25Z</time>
</trkpt>
<trkpt lat="53.519756" lon="9.994213">
   <ele>1.315956</ele>
   <time>2014-03-08T13:23:29Z</time>
</trkpt>
<trkpt lat="53.519748" lon="9.994075">
   <ele>1.335520</ele>
   <time>2014-03-08T13:23:33Z</time>
</trkpt>
<trkpt lat="53.519737" lon="9.993963">
   <ele>1.392099</ele>
   <time>2014-03-08T13:23:37Z</time>
</trkpt>
<trkpt lat="53.519729" lon="9.993881">
   <ele>1.436296</ele>
   <time>2014-03-08T13:23:41Z</time>
</trkpt>
<trkpt lat="53.519760" lon="9.993937">
   <ele>1.367146</ele>
   <time>2014-03-08T13:24:11Z</time>
</trkpt>
<trkpt lat="53.519789" lon="9.993998">
   <ele>1.304480</ele>
   <time>2014-03-08T13:24:31Z</time>
</trkpt>
<trkpt lat="53.519794" lon="9.994076">
   <ele>1.273619</ele>
   <time>2014-03-08T13:24:49Z</time>
</trkpt>
<trkpt lat="53.519776" lon="9.993980">
   <ele>1.329019</ele>
   <time>2014-03-08T13:24:54Z</time>
</trkpt>
<trkpt lat="53.519745" lon="9.993783">
   <ele>1.446778</ele>
   <time>2014-03-08T13:24:58Z</time>
</trkpt>
<trkpt lat="53.519720" lon="9.993527">
   <ele>1.593312</ele>
   <time>2014-03-08T13:25:02Z</time>
</trkpt>
<trkpt lat="53.519701" lon="9.993294">
   <ele>1.763672</ele>
   <time>2014-03-08T13:25:05Z</time>
</trkpt>
<trkpt lat="53.519673" lon="9.993048">
   <ele>2.126099</ele>
   <time>2014-03-08T13:25:08Z</time>
</trkpt>
<trkpt lat="53.519665" lon="9.992765">
   <ele>2.486572</ele>
   <time>2014-03-08T13:25:12Z</time>
</trkpt>
<trkpt lat="53.519642" lon="9.992567">
   <ele>2.777954</ele>
   <time>2014-03-08T13:25:15Z</time>
</trkpt>
<trkpt lat="53.519622" lon="9.992321">
   <ele>3.024499</ele>
   <time>2014-03-08T13:25:19Z</time>
</trkpt>
<trkpt lat="53.519598" lon="9.992119">
   <ele>3.201331</ele>
   <time>2014-03-08T13:25:22Z</time>
</trkpt>
<trkpt lat="53.519582" lon="9.991858">
   <ele>3.386933</ele>
   <time>2014-03-08T13:25:26Z</time>
</trkpt>
<trkpt lat="53.519577" lon="9.991600">
   <ele>3.388104</ele>
   <time>2014-03-08T13:25:29Z</time>
</trkpt>
<trkpt lat="53.519556" lon="9.991302">
   <ele>2.890595</ele>
   <time>2014-03-08T13:25:33Z</time>
</trkpt>
<trkpt lat="53.519532" lon="9.991095">
   <ele>2.574060</ele>
   <time>2014-03-08T13:25:36Z</time>
</trkpt>
<trkpt lat="53.519492" lon="9.990829">
   <ele>2.219857</ele>
   <time>2014-03-08T13:25:39Z</time>
</trkpt>
<trkpt lat="53.519488" lon="9.990517">
   <ele>2.288061</ele>
   <time>2014-03-08T13:25:43Z</time>
</trkpt>
<trkpt lat="53.519477" lon="9.990262">
   <ele>2.335563</ele>
   <time>2014-03-08T13:25:46Z</time>
</trkpt>
<trkpt lat="53.519488" lon="9.989979">
   <ele>2.381374</ele>
   <time>2014-03-08T13:25:49Z</time>
</trkpt>
<trkpt lat="53.519511" lon="9.989654">
   <ele>2.313813</ele>
   <time>2014-03-08T13:25:53Z</time>
</trkpt>
<trkpt lat="53.519535" lon="9.989415">
   <ele>2.212879</ele>
   <time>2014-03-08T13:25:56Z</time>
</trkpt>
<trkpt lat="53.519594" lon="9.989131">
   <ele>1.974487</ele>
   <time>2014-03-08T13:26:00Z</time>
</trkpt>
<trkpt lat="53.519624" lon="9.988830">
   <ele>1.902466</ele>
   <time>2014-03-08T13:26:04Z</time>
</trkpt>
<trkpt lat="53.519675" lon="9.988545">
   <ele>1.779907</ele>
   <time>2014-03-08T13:26:08Z</time>
</trkpt>
<trkpt lat="53.519735" lon="9.988272">
   <ele>1.612659</ele>
   <time>2014-03-08T13:26:12Z</time>
</trkpt>
<trkpt lat="53.519806" lon="9.988139">
   <ele>1.410574</ele>
   <time>2014-03-08T13:26:15Z</time>
</trkpt>
<trkpt lat="53.519915" lon="9.987978">
   <ele>1.159674</ele>
   <time>2014-03-08T13:26:19Z</time>
</trkpt>
<trkpt lat="53.520003" lon="9.987859">
   <ele>1.000000</ele>
   <time>2014-03-08T13:26:22Z</time>
</trkpt>
<trkpt lat="53.520121" lon="9.987704">
   <ele>1.000000</ele>
   <time>2014-03-08T13:26:26Z</time>
</trkpt>
<trkpt lat="53.520234" lon="9.987545">
   <ele>1.000000</ele>
   <time>2014-03-08T13:26:30Z</time>
</trkpt>
<trkpt lat="53.520314" lon="9.987420">
   <ele>1.000000</ele>
   <time>2014-03-08T13:26:33Z</time>
</trkpt>
<trkpt lat="53.520431" lon="9.987267">
   <ele>1.000000</ele>
   <time>2014-03-08T13:26:37Z</time>
</trkpt>
<trkpt lat="53.520510" lon="9.987144">
   <ele>1.000000</ele>
   <time>2014-03-08T13:26:40Z</time>
</trkpt>
<trkpt lat="53.520610" lon="9.986967">
   <ele>1.000000</ele>
   <time>2014-03-08T13:26:44Z</time>
</trkpt>
<trkpt lat="53.520711" lon="9.986797">
   <ele>1.000000</ele>
   <time>2014-03-08T13:26:48Z</time>
</trkpt>
<trkpt lat="53.520819" lon="9.986631">
   <ele>1.000726</ele>
   <time>2014-03-08T13:26:52Z</time>
</trkpt>
<trkpt lat="53.520928" lon="9.986448">
   <ele>1.000000</ele>
   <time>2014-03-08T13:26:56Z</time>
</trkpt>
<trkpt lat="53.521005" lon="9.986302">
   <ele>1.000000</ele>
   <time>2014-03-08T13:26:59Z</time>
</trkpt>
<trkpt lat="53.521116" lon="9.986129">
   <ele>1.000000</ele>
   <time>2014-03-08T13:27:03Z</time>
</trkpt>
<trkpt lat="53.521194" lon="9.985995">
   <ele>1.000000</ele>
   <time>2014-03-08T13:27:06Z</time>
</trkpt>
<trkpt lat="53.521272" lon="9.985869">
   <ele>1.000000</ele>
   <time>2014-03-08T13:27:09Z</time>
</trkpt>
<trkpt lat="53.521369" lon="9.985688">
   <ele>1.111772</ele>
   <time>2014-03-08T13:27:13Z</time>
</trkpt>
<trkpt lat="53.521474" lon="9.985510">
   <ele>1.297801</ele>
   <time>2014-03-08T13:27:17Z</time>
</trkpt>
<trkpt lat="53.521558" lon="9.985393">
   <ele>1.459651</ele>
   <time>2014-03-08T13:27:20Z</time>
</trkpt>
<trkpt lat="53.521666" lon="9.985215">
   <ele>1.741323</ele>
   <time>2014-03-08T13:27:24Z</time>
</trkpt>
<trkpt lat="53.521776" lon="9.985058">
   <ele>1.930664</ele>
   <time>2014-03-08T13:27:28Z</time>
</trkpt>
<trkpt lat="53.521873" lon="9.984900">
   <ele>1.910049</ele>
   <time>2014-03-08T13:27:32Z</time>
</trkpt>
<trkpt lat="53.521973" lon="9.984747">
   <ele>1.807935</ele>
   <time>2014-03-08T13:27:36Z</time>
</trkpt>
<trkpt lat="53.522051" lon="9.984622">
   <ele>1.755699</ele>
   <time>2014-03-08T13:27:39Z</time>
</trkpt>
<trkpt lat="53.522119" lon="9.984486">
   <ele>1.718057</ele>
   <time>2014-03-08T13:27:42Z</time>
</trkpt>
<trkpt lat="53.522226" lon="9.984318">
   <ele>1.731057</ele>
   <time>2014-03-08T13:27:46Z</time>
</trkpt>
<trkpt lat="53.522317" lon="9.984126">
   <ele>0.924522</ele>
   <time>2014-03-08T13:27:50Z</time>
</trkpt>
<trkpt lat="53.522336" lon="9.983974">
   <ele>0.628447</ele>
   <time>2014-03-08T13:27:54Z</time>
</trkpt>
<trkpt lat="53.522329" lon="9.983889">
   <ele>0.470078</ele>
   <time>2014-03-08T13:27:59Z</time>
</trkpt>
<trkpt lat="53.522379" lon="9.983877">
   <ele>0.405773</ele>
   <time>2014-03-08T13:28:07Z</time>
</trkpt>
<trkpt lat="53.522423" lon="9.983828">
   <ele>0.262065</ele>
   <time>2014-03-08T13:28:15Z</time>
</trkpt>
<trkpt lat="53.522480" lon="9.983725">
   <ele>-0.034243</ele>
   <time>2014-03-08T13:28:19Z</time>
</trkpt>
<trkpt lat="53.522539" lon="9.983619">
   <ele>1.242232</ele>
   <time>2014-03-08T13:28:22Z</time>
</trkpt>
<trkpt lat="53.522592" lon="9.983513">
   <ele>0.817525</ele>
   <time>2014-03-08T13:28:25Z</time>
</trkpt>
<trkpt lat="53.522598" lon="9.983341">
   <ele>-0.245761</ele>
   <time>2014-03-08T13:28:29Z</time>
</trkpt>
<trkpt lat="53.522505" lon="9.983162">
   <ele>0.259380</ele>
   <time>2014-03-08T13:28:33Z</time>
</trkpt>
<trkpt lat="53.522397" lon="9.982943">
   <ele>0.067984</ele>
   <time>2014-03-08T13:28:37Z</time>
</trkpt>
<trkpt lat="53.522318" lon="9.982796">
   <ele>0.444528</ele>
   <time>2014-03-08T13:28:40Z</time>
</trkpt>
<trkpt lat="53.522236" lon="9.982662">
   <ele>0.734592</ele>
   <time>2014-03-08T13:28:43Z</time>
</trkpt>
<trkpt lat="53.522119" lon="9.982491">
   <ele>1.541329</ele>
   <time>2014-03-08T13:28:47Z</time>
</trkpt>
<trkpt lat="53.521962" lon="9.982378">
   <ele>1.397279</ele>
   <time>2014-03-08T13:28:51Z</time>
</trkpt>
<trkpt lat="53.521826" lon="9.982303">
   <ele>1.337137</ele>
   <time>2014-03-08T13:28:55Z</time>
</trkpt>
<trkpt lat="53.521750" lon="9.982219">
   <ele>1.370012</ele>
   <time>2014-03-08T13:28:58Z</time>
</trkpt>
<trkpt lat="53.521658" lon="9.982155">
   <ele>1.420384</ele>
   <time>2014-03-08T13:29:02Z</time>
</trkpt>
<trkpt lat="53.521588" lon="9.982162">
   <ele>1.462166</ele>
   <time>2014-03-08T13:29:05Z</time>
</trkpt>
<trkpt lat="53.521495" lon="9.982139">
   <ele>1.549861</ele>
   <time>2014-03-08T13:29:08Z</time>
</trkpt>
<trkpt lat="53.521394" lon="9.982121">
   <ele>1.633515</ele>
   <time>2014-03-08T13:29:11Z</time>
</trkpt>
<trkpt lat="53.521294" lon="9.982113">
   <ele>1.704201</ele>
   <time>2014-03-08T13:29:14Z</time>
</trkpt>
<trkpt lat="53.521208" lon="9.982006">
   <ele>1.816952</ele>
   <time>2014-03-08T13:29:18Z</time>
</trkpt>
<trkpt lat="53.521148" lon="9.981895">
   <ele>1.896567</ele>
   <time>2014-03-08T13:29:21Z</time>
</trkpt>
<trkpt lat="53.521010" lon="9.981815">
   <ele>1.962061</ele>
   <time>2014-03-08T13:29:25Z</time>
</trkpt>
<trkpt lat="53.520900" lon="9.981807">
   <ele>1.986501</ele>
   <time>2014-03-08T13:29:28Z</time>
</trkpt>
<trkpt lat="53.520767" lon="9.981747">
   <ele>1.920044</ele>
   <time>2014-03-08T13:29:32Z</time>
</trkpt>
<trkpt lat="53.520632" lon="9.981654">
   <ele>1.774109</ele>
   <time>2014-03-08T13:29:36Z</time>
</trkpt>
<trkpt lat="53.520510" lon="9.981529">
   <ele>1.777222</ele>
   <time>2014-03-08T13:29:40Z</time>
</trkpt>
<trkpt lat="53.520358" lon="9.981406">
   <ele>1.742859</ele>
   <time>2014-03-08T13:29:44Z</time>
</trkpt>
<trkpt lat="53.520189" lon="9.981313">
   <ele>1.651367</ele>
   <time>2014-03-08T13:29:48Z</time>
</trkpt>
<trkpt lat="53.520012" lon="9.981254">
   <ele>1.509705</ele>
   <time>2014-03-08T13:29:51Z</time>
</trkpt>
<trkpt lat="53.519880" lon="9.981208">
   <ele>1.679124</ele>
   <time>2014-03-08T13:29:54Z</time>
</trkpt>
<trkpt lat="53.519693" lon="9.981169">
   <ele>1.893586</ele>
   <time>2014-03-08T13:29:58Z</time>
</trkpt>
<trkpt lat="53.519571" lon="9.981131">
   <ele>2.010868</ele>
   <time>2014-03-08T13:30:01Z</time>
</trkpt>
<trkpt lat="53.519437" lon="9.981074">
   <ele>2.101674</ele>
   <time>2014-03-08T13:30:05Z</time>
</trkpt>
<trkpt lat="53.519376" lon="9.981017">
   <ele>2.109847</ele>
   <time>2014-03-08T13:30:08Z</time>
</trkpt>
<trkpt lat="53.519394" lon="9.980948">
   <ele>2.062356</ele>
   <time>2014-03-08T13:30:45Z</time>
</trkpt>
<trkpt lat="53.519351" lon="9.980909">
   <ele>2.050881</ele>
   <time>2014-03-08T13:30:53Z</time>
</trkpt>
<trkpt lat="53.519267" lon="9.980789">
   <ele>2.000000</ele>
   <time>2014-03-08T13:30:57Z</time>
</trkpt>
<trkpt lat="53.519093" lon="9.980541">
   <ele>2.177002</ele>
   <time>2014-03-08T13:31:01Z</time>
</trkpt>
<trkpt lat="53.518980" lon="9.980377">
   <ele>2.448242</ele>
   <time>2014-03-08T13:31:05Z</time>
</trkpt>
<trkpt lat="53.518852" lon="9.980192">
   <ele>2.755493</ele>
   <time>2014-03-08T13:31:09Z</time>
</trkpt>
<trkpt lat="53.518761" lon="9.980058">
   <ele>2.973511</ele>
   <time>2014-03-08T13:31:12Z</time>
</trkpt>
<trkpt lat="53.518641" lon="9.979880">
   <ele>3.313758</ele>
   <time>2014-03-08T13:31:16Z</time>
</trkpt>
<trkpt lat="53.518559" lon="9.979746">
   <ele>3.540473</ele>
   <time>2014-03-08T13:31:19Z</time>
</trkpt>
<trkpt lat="53.518455" lon="9.979619">
   <ele>3.774980</ele>
   <time>2014-03-08T13:31:23Z</time>
</trkpt>
<trkpt lat="53.518390" lon="9.979558">
   <ele>3.900477</ele>
   <time>2014-03-08T13:31:27Z</time>
</trkpt>
<trkpt lat="53.518355" lon="9.979634">
   <ele>3.959799</ele>
   <time>2014-03-08T13:31:31Z</time>
</trkpt>
<trkpt lat="53.518327" lon="9.979710">
   <ele>3.994985</ele>
   <time>2014-03-08T13:31:36Z</time>
</trkpt>
<trkpt lat="53.518298" lon="9.979787">
   <ele>3.968772</ele>
   <time>2014-03-08T13:31:40Z</time>
</trkpt>
<trkpt lat="53.518225" lon="9.979973">
   <ele>3.874351</ele>
   <time>2014-03-08T13:31:43Z</time>
</trkpt>
<trkpt lat="53.518130" lon="9.980164">
   <ele>3.755981</ele>
   <time>2014-03-08T13:31:47Z</time>
</trkpt>
<trkpt lat="53.518059" lon="9.980291">
   <ele>3.670776</ele>
   <time>2014-03-08T13:31:50Z</time>
</trkpt>
<trkpt lat="53.517961" lon="9.980468">
   <ele>3.553101</ele>
   <time>2014-03-08T13:31:54Z</time>
</trkpt>
<trkpt lat="53.517857" lon="9.980659">
   <ele>3.428406</ele>
   <time>2014-03-08T13:31:58Z</time>
</trkpt>
<trkpt lat="53.517771" lon="9.980801">
   <ele>3.324829</ele>
   <time>2014-03-08T13:32:01Z</time>
</trkpt>
<trkpt lat="53.517652" lon="9.980998">
   <ele>3.308156</ele>
   <time>2014-03-08T13:32:05Z</time>
</trkpt>
<trkpt lat="53.517525" lon="9.981210">
   <ele>3.454740</ele>
   <time>2014-03-08T13:32:09Z</time>
</trkpt>
<trkpt lat="53.517400" lon="9.981425">
   <ele>3.589478</ele>
   <time>2014-03-08T13:32:13Z</time>
</trkpt>
<trkpt lat="53.517310" lon="9.981591">
   <ele>3.682251</ele>
   <time>2014-03-08T13:32:16Z</time>
</trkpt>
<trkpt lat="53.517189" lon="9.981783">
   <ele>3.538751</ele>
   <time>2014-03-08T13:32:20Z</time>
</trkpt>
<trkpt lat="53.517084" lon="9.981797">
   <ele>3.422660</ele>
   <time>2014-03-08T13:32:24Z</time>
</trkpt>
<trkpt lat="53.517004" lon="9.981835">
   <ele>3.322667</ele>
   <time>2014-03-08T13:32:27Z</time>
</trkpt>
<trkpt lat="53.516928" lon="9.981829">
   <ele>3.252551</ele>
   <time>2014-03-08T13:32:30Z</time>
</trkpt>
<trkpt lat="53.516817" lon="9.981847">
   <ele>3.140937</ele>
   <time>2014-03-08T13:32:34Z</time>
</trkpt>
<trkpt lat="53.516706" lon="9.981903">
   <ele>3.033413</ele>
   <time>2014-03-08T13:32:38Z</time>
</trkpt>
<trkpt lat="53.516586" lon="9.981969">
   <ele>2.902893</ele>
   <time>2014-03-08T13:32:42Z</time>
</trkpt>
<trkpt lat="53.516469" lon="9.982013">
   <ele>2.762939</ele>
   <time>2014-03-08T13:32:46Z</time>
</trkpt>
<trkpt lat="53.516377" lon="9.982060">
   <ele>2.652649</ele>
   <time>2014-03-08T13:32:49Z</time>
</trkpt>
<trkpt lat="53.516271" lon="9.982116">
   <ele>2.524658</ele>
   <time>2014-03-08T13:32:53Z</time>
</trkpt>
<trkpt lat="53.516263" lon="9.982218">
   <ele>2.515259</ele>
   <time>2014-03-08T13:32:56Z</time>
</trkpt>
<trkpt lat="53.516290" lon="9.982347">
   <ele>2.548523</ele>
   <time>2014-03-08T13:32:59Z</time>
</trkpt>
<trkpt lat="53.516324" lon="9.982535">
   <ele>2.614040</ele>
   <time>2014-03-08T13:33:03Z</time>
</trkpt>
<trkpt lat="53.516347" lon="9.982665">
   <ele>2.738226</ele>
   <time>2014-03-08T13:33:06Z</time>
</trkpt>
<trkpt lat="53.516342" lon="9.982821">
   <ele>2.845438</ele>
   <time>2014-03-08T13:33:10Z</time>
</trkpt>
<trkpt lat="53.516322" lon="9.982965">
   <ele>2.913047</ele>
   <time>2014-03-08T13:33:13Z</time>
</trkpt>
<trkpt lat="53.516285" lon="9.983224">
   <ele>3.013840</ele>
   <time>2014-03-08T13:33:17Z</time>
</trkpt>
<trkpt lat="53.516210" lon="9.983447">
   <ele>2.903687</ele>
   <time>2014-03-08T13:33:21Z</time>
</trkpt>
<trkpt lat="53.516133" lon="9.983660">
   <ele>2.720215</ele>
   <time>2014-03-08T13:33:25Z</time>
</trkpt>
<trkpt lat="53.516057" lon="9.983759">
   <ele>2.537598</ele>
   <time>2014-03-08T13:33:28Z</time>
</trkpt>
<trkpt lat="53.515964" lon="9.983754">
   <ele>2.313110</ele>
   <time>2014-03-08T13:33:31Z</time>
</trkpt>
<trkpt lat="53.515856" lon="9.983762">
   <ele>2.054810</ele>
   <time>2014-03-08T13:33:34Z</time>
</trkpt>
<trkpt lat="53.515756" lon="9.983787">
   <ele>1.957590</ele>
   <time>2014-03-08T13:33:37Z</time>
</trkpt>
<trkpt lat="53.515602" lon="9.983769">
   <ele>1.867407</ele>
   <time>2014-03-08T13:33:41Z</time>
</trkpt>
<trkpt lat="53.515495" lon="9.983782">
   <ele>1.812524</ele>
   <time>2014-03-08T13:33:44Z</time>
</trkpt>
<trkpt lat="53.515398" lon="9.983753">
   <ele>1.740787</ele>
   <time>2014-03-08T13:33:48Z</time>
</trkpt>
<trkpt lat="53.515332" lon="9.983616">
   <ele>1.602842</ele>
   <time>2014-03-08T13:33:52Z</time>
</trkpt>
<trkpt lat="53.515267" lon="9.983593">
   <ele>1.532595</ele>
   <time>2014-03-08T13:33:55Z</time>
</trkpt>
<trkpt lat="53.515202" lon="9.983598">
   <ele>1.482538</ele>
   <time>2014-03-08T13:33:58Z</time>
</trkpt>
<trkpt lat="53.515119" lon="9.983603">
   <ele>1.420105</ele>
   <time>2014-03-08T13:34:01Z</time>
</trkpt>
<trkpt lat="53.515098" lon="9.983742">
   <ele>1.551085</ele>
   <time>2014-03-08T13:34:05Z</time>
</trkpt>
<trkpt lat="53.515019" lon="9.983790">
   <ele>1.558145</ele>
   <time>2014-03-08T13:34:08Z</time>
</trkpt>
<trkpt lat="53.514874" lon="9.983832">
   <ele>1.750244</ele>
   <time>2014-03-08T13:34:12Z</time>
</trkpt>
<trkpt lat="53.514730" lon="9.983859">
   <ele>1.953796</ele>
   <time>2014-03-08T13:34:16Z</time>
</trkpt>
<trkpt lat="53.514610" lon="9.983857">
   <ele>2.096008</ele>
   <time>2014-03-08T13:34:19Z</time>
</trkpt>
<trkpt lat="53.514548" lon="9.983938">
   <ele>2.268433</ele>
   <time>2014-03-08T13:34:22Z</time>
</trkpt>
<trkpt lat="53.514423" lon="9.983958">
   <ele>2.441956</ele>
   <time>2014-03-08T13:34:26Z</time>
</trkpt>
<trkpt lat="53.514342" lon="9.983941">
   <ele>2.518738</ele>
   <time>2014-03-08T13:34:29Z</time>
</trkpt>
<trkpt lat="53.514227" lon="9.983942">
   <ele>2.657227</ele>
   <time>2014-03-08T13:34:33Z</time>
</trkpt>
<trkpt lat="53.514110" lon="9.983928">
   <ele>2.645630</ele>
   <time>2014-03-08T13:34:37Z</time>
</trkpt>
<trkpt lat="53.514008" lon="9.983930">
   <ele>2.525269</ele>
   <time>2014-03-08T13:34:41Z</time>
</trkpt>
<trkpt lat="53.513942" lon="9.983967">
   <ele>2.490234</ele>
   <time>2014-03-08T13:34:44Z</time>
</trkpt>
<trkpt lat="53.513834" lon="9.983978">
   <ele>2.374817</ele>
   <time>2014-03-08T13:34:48Z</time>
</trkpt>
<trkpt lat="53.513756" lon="9.983989">
   <ele>2.294556</ele>
   <time>2014-03-08T13:34:51Z</time>
</trkpt>
<trkpt lat="53.513656" lon="9.983997">
   <ele>2.183044</ele>
   <time>2014-03-08T13:34:54Z</time>
</trkpt>
<trkpt lat="53.513547" lon="9.983988">
   <ele>2.042053</ele>
   <time>2014-03-08T13:34:57Z</time>
</trkpt>
<trkpt lat="53.513419" lon="9.983987">
   <ele>1.886841</ele>
   <time>2014-03-08T13:35:01Z</time>
</trkpt>
<trkpt lat="53.513291" lon="9.983976">
   <ele>1.743484</ele>
   <time>2014-03-08T13:35:05Z</time>
</trkpt>
<trkpt lat="53.513192" lon="9.983961">
   <ele>1.667481</ele>
   <time>2014-03-08T13:35:08Z</time>
</trkpt>
<trkpt lat="53.513045" lon="9.983966">
   <ele>1.580037</ele>
   <time>2014-03-08T13:35:12Z</time>
</trkpt>
<trkpt lat="53.512943" lon="9.983994">
   <ele>1.518339</ele>
   <time>2014-03-08T13:35:15Z</time>
</trkpt>
<trkpt lat="53.512824" lon="9.984052">
   <ele>1.419089</ele>
   <time>2014-03-08T13:35:19Z</time>
</trkpt>
<trkpt lat="53.512677" lon="9.984063">
   <ele>1.283532</ele>
   <time>2014-03-08T13:35:23Z</time>
</trkpt>
<trkpt lat="53.512529" lon="9.984089">
   <ele>1.121399</ele>
   <time>2014-03-08T13:35:27Z</time>
</trkpt>
<trkpt lat="53.512441" lon="9.984145">
   <ele>1.092820</ele>
   <time>2014-03-08T13:35:30Z</time>
</trkpt>
<trkpt lat="53.512343" lon="9.984143">
   <ele>1.205778</ele>
   <time>2014-03-08T13:35:33Z</time>
</trkpt>
<trkpt lat="53.512235" lon="9.984152">
   <ele>1.324523</ele>
   <time>2014-03-08T13:35:36Z</time>
</trkpt>
<trkpt lat="53.512046" lon="9.984125">
   <ele>1.540019</ele>
   <time>2014-03-08T13:35:40Z</time>
</trkpt>
<trkpt lat="53.511935" lon="9.984169">
   <ele>1.680701</ele>
   <time>2014-03-08T13:35:44Z</time>
</trkpt>
<trkpt lat="53.511830" lon="9.984229">
   <ele>1.892621</ele>
   <time>2014-03-08T13:35:47Z</time>
</trkpt>
<trkpt lat="53.511764" lon="9.984245">
   <ele>1.987940</ele>
   <time>2014-03-08T13:35:50Z</time>
</trkpt>
<trkpt lat="53.511681" lon="9.984302">
   <ele>2.147907</ele>
   <time>2014-03-08T13:35:54Z</time>
</trkpt>
<trkpt lat="53.511595" lon="9.984344">
   <ele>2.145562</ele>
   <time>2014-03-08T13:35:57Z</time>
</trkpt>
<trkpt lat="53.511517" lon="9.984369">
   <ele>2.107268</ele>
   <time>2014-03-08T13:36:00Z</time>
</trkpt>
<trkpt lat="53.511417" lon="9.984391">
   <ele>2.049854</ele>
   <time>2014-03-08T13:36:04Z</time>
</trkpt>
<trkpt lat="53.511280" lon="9.984384">
   <ele>1.917558</ele>
   <time>2014-03-08T13:36:08Z</time>
</trkpt>
<trkpt lat="53.511123" lon="9.984323">
   <ele>1.658582</ele>
   <time>2014-03-08T13:36:12Z</time>
</trkpt>
<trkpt lat="53.511015" lon="9.984236">
   <ele>1.366384</ele>
   <time>2014-03-08T13:36:15Z</time>
</trkpt>
<trkpt lat="53.510860" lon="9.984200">
   <ele>1.110417</ele>
   <time>2014-03-08T13:36:19Z</time>
</trkpt>
<trkpt lat="53.510767" lon="9.984198">
   <ele>1.071049</ele>
   <time>2014-03-08T13:36:22Z</time>
</trkpt>
<trkpt lat="53.510648" lon="9.984217">
   <ele>1.107006</ele>
   <time>2014-03-08T13:36:26Z</time>
</trkpt>
<trkpt lat="53.510677" lon="9.984303">
   <ele>1.295825</ele>
   <time>2014-03-08T13:36:35Z</time>
</trkpt>
<trkpt lat="53.510625" lon="9.984354">
   <ele>1.393039</ele>
   <time>2014-03-08T13:36:48Z</time>
</trkpt>
<trkpt lat="53.510493" lon="9.984381">
   <ele>1.410207</ele>
   <time>2014-03-08T13:36:52Z</time>
</trkpt>
<trkpt lat="53.510363" lon="9.984381">
   <ele>1.368985</ele>
   <time>2014-03-08T13:36:55Z</time>
</trkpt>
<trkpt lat="53.510147" lon="9.984359">
   <ele>1.270950</ele>
   <time>2014-03-08T13:36:59Z</time>
</trkpt>
<trkpt lat="53.509995" lon="9.984374">
   <ele>1.249268</ele>
   <time>2014-03-08T13:37:02Z</time>
</trkpt>
<trkpt lat="53.509849" lon="9.984393">
   <ele>1.271118</ele>
   <time>2014-03-08T13:37:06Z</time>
</trkpt>
<trkpt lat="53.509706" lon="9.984409">
   <ele>1.290405</ele>
   <time>2014-03-08T13:37:10Z</time>
</trkpt>
<trkpt lat="53.509599" lon="9.984402">
   <ele>1.282471</ele>
   <time>2014-03-08T13:37:13Z</time>
</trkpt>
<trkpt lat="53.509517" lon="9.984377">
   <ele>1.252197</ele>
   <time>2014-03-08T13:37:16Z</time>
</trkpt>
<trkpt lat="53.509401" lon="9.984363">
   <ele>1.235962</ele>
   <time>2014-03-08T13:37:20Z</time>
</trkpt>
<trkpt lat="53.509289" lon="9.984340">
   <ele>1.208374</ele>
   <time>2014-03-08T13:37:24Z</time>
</trkpt>
<trkpt lat="53.509210" lon="9.984316">
   <ele>1.179199</ele>
   <time>2014-03-08T13:37:27Z</time>
</trkpt>
<trkpt lat="53.509094" lon="9.984313">
   <ele>1.175903</ele>
   <time>2014-03-08T13:37:31Z</time>
</trkpt>
<trkpt lat="53.508988" lon="9.984328">
   <ele>1.193848</ele>
   <time>2014-03-08T13:37:34Z</time>
</trkpt>
<trkpt lat="53.508878" lon="9.984348">
   <ele>1.217896</ele>
   <time>2014-03-08T13:37:37Z</time>
</trkpt>
<trkpt lat="53.508735" lon="9.984386">
   <ele>1.263428</ele>
   <time>2014-03-08T13:37:41Z</time>
</trkpt>
<trkpt lat="53.508607" lon="9.984420">
   <ele>1.303467</ele>
   <time>2014-03-08T13:37:44Z</time>
</trkpt>
<trkpt lat="53.508462" lon="9.984462">
   <ele>1.354492</ele>
   <time>2014-03-08T13:37:47Z</time>
</trkpt>
<trkpt lat="53.508323" lon="9.984581">
   <ele>1.496790</ele>
   <time>2014-03-08T13:37:51Z</time>
</trkpt>
<trkpt lat="53.508240" lon="9.984734">
   <ele>1.639707</ele>
   <time>2014-03-08T13:37:54Z</time>
</trkpt>
<trkpt lat="53.508121" lon="9.984787">
   <ele>1.619715</ele>
   <time>2014-03-08T13:37:57Z</time>
</trkpt>
<trkpt lat="53.507957" lon="9.984788">
   <ele>1.523979</ele>
   <time>2014-03-08T13:38:01Z</time>
</trkpt>
<trkpt lat="53.507793" lon="9.984802">
   <ele>1.422205</ele>
   <time>2014-03-08T13:38:05Z</time>
</trkpt>
<trkpt lat="53.507644" lon="9.984821">
   <ele>1.313628</ele>
   <time>2014-03-08T13:38:09Z</time>
</trkpt>
<trkpt lat="53.507499" lon="9.984814">
   <ele>1.223178</ele>
   <time>2014-03-08T13:38:13Z</time>
</trkpt>
<trkpt lat="53.507397" lon="9.984792">
   <ele>1.342667</ele>
   <time>2014-03-08T13:38:16Z</time>
</trkpt>
<trkpt lat="53.507301" lon="9.984772">
   <ele>1.447189</ele>
   <time>2014-03-08T13:38:19Z</time>
</trkpt>
<trkpt lat="53.507212" lon="9.984750">
   <ele>1.542045</ele>
   <time>2014-03-08T13:38:22Z</time>
</trkpt>
<trkpt lat="53.507080" lon="9.984717">
   <ele>1.672158</ele>
   <time>2014-03-08T13:38:26Z</time>
</trkpt>
<trkpt lat="53.506955" lon="9.984830">
   <ele>1.724499</ele>
   <time>2014-03-08T13:38:30Z</time>
</trkpt>
<trkpt lat="53.506884" lon="9.984951">
   <ele>1.754076</ele>
   <time>2014-03-08T13:38:33Z</time>
</trkpt>
<trkpt lat="53.506820" lon="9.985099">
   <ele>1.957168</ele>
   <time>2014-03-08T13:38:37Z</time>
</trkpt>
<trkpt lat="53.506774" lon="9.985269">
   <ele>2.235646</ele>
   <time>2014-03-08T13:38:41Z</time>
</trkpt>
<trkpt lat="53.506758" lon="9.985381">
   <ele>2.397313</ele>
   <time>2014-03-08T13:38:44Z</time>
</trkpt>
<trkpt lat="53.506721" lon="9.985507">
   <ele>2.582814</ele>
   <time>2014-03-08T13:38:48Z</time>
</trkpt>
<trkpt lat="53.506695" lon="9.985603">
   <ele>2.714085</ele>
   <time>2014-03-08T13:38:51Z</time>
</trkpt>
<trkpt lat="53.506662" lon="9.985746">
   <ele>2.901373</ele>
   <time>2014-03-08T13:38:55Z</time>
</trkpt>
<trkpt lat="53.506607" lon="9.985930">
   <ele>3.180084</ele>
   <time>2014-03-08T13:38:59Z</time>
</trkpt>
<trkpt lat="53.506547" lon="9.986113">
   <ele>3.431058</ele>
   <time>2014-03-08T13:39:03Z</time>
</trkpt>
<trkpt lat="53.506488" lon="9.986242">
   <ele>3.599479</ele>
   <time>2014-03-08T13:39:06Z</time>
</trkpt>
<trkpt lat="53.506430" lon="9.986376">
   <ele>3.750271</ele>
   <time>2014-03-08T13:39:09Z</time>
</trkpt>
<trkpt lat="53.506372" lon="9.986513">
   <ele>3.880915</ele>
   <time>2014-03-08T13:39:12Z</time>
</trkpt>
<trkpt lat="53.506318" lon="9.986662">
   <ele>3.996731</ele>
   <time>2014-03-08T13:39:15Z</time>
</trkpt>
<trkpt lat="53.506241" lon="9.986832">
   <ele>3.898971</ele>
   <time>2014-03-08T13:39:19Z</time>
</trkpt>
<trkpt lat="53.506145" lon="9.986955">
   <ele>3.783005</ele>
   <time>2014-03-08T13:39:22Z</time>
</trkpt>
<trkpt lat="53.506041" lon="9.987071">
   <ele>3.636207</ele>
   <time>2014-03-08T13:39:25Z</time>
</trkpt>
<trkpt lat="53.505901" lon="9.987253">
   <ele>3.353537</ele>
   <time>2014-03-08T13:39:29Z</time>
</trkpt>
<trkpt lat="53.505798" lon="9.987424">
   <ele>3.129898</ele>
   <time>2014-03-08T13:39:32Z</time>
</trkpt>
<trkpt lat="53.505709" lon="9.987596">
   <ele>3.050609</ele>
   <time>2014-03-08T13:39:35Z</time>
</trkpt>
<trkpt lat="53.505595" lon="9.987808">
   <ele>3.022441</ele>
   <time>2014-03-08T13:39:39Z</time>
</trkpt>
<trkpt lat="53.505518" lon="9.987959">
   <ele>3.036309</ele>
   <time>2014-03-08T13:39:42Z</time>
</trkpt>
<trkpt lat="53.505395" lon="9.988117">
   <ele>3.174986</ele>
   <time>2014-03-08T13:39:46Z</time>
</trkpt>
<trkpt lat="53.505296" lon="9.988275">
   <ele>3.314986</ele>
   <time>2014-03-08T13:39:50Z</time>
</trkpt>
<trkpt lat="53.505247" lon="9.988390">
   <ele>3.379680</ele>
   <time>2014-03-08T13:39:53Z</time>
</trkpt>
<trkpt lat="53.505165" lon="9.988517">
   <ele>3.471300</ele>
   <time>2014-03-08T13:39:56Z</time>
</trkpt>
<trkpt lat="53.505054" lon="9.988707">
   <ele>3.480112</ele>
   <time>2014-03-08T13:40:00Z</time>
</trkpt>
<trkpt lat="53.504974" lon="9.988832">
   <ele>3.420210</ele>
   <time>2014-03-08T13:40:03Z</time>
</trkpt>
<trkpt lat="53.504876" lon="9.989005">
   <ele>3.313812</ele>
   <time>2014-03-08T13:40:07Z</time>
</trkpt>
<trkpt lat="53.504799" lon="9.989140">
   <ele>3.264998</ele>
   <time>2014-03-08T13:40:10Z</time>
</trkpt>
<trkpt lat="53.504703" lon="9.989324">
   <ele>3.234770</ele>
   <time>2014-03-08T13:40:14Z</time>
</trkpt>
<trkpt lat="53.504611" lon="9.989482">
   <ele>3.264798</ele>
   <time>2014-03-08T13:40:18Z</time>
</trkpt>
<trkpt lat="53.504524" lon="9.989611">
   <ele>3.341898</ele>
   <time>2014-03-08T13:40:21Z</time>
</trkpt>
<trkpt lat="53.504445" lon="9.989770">
   <ele>3.424218</ele>
   <time>2014-03-08T13:40:25Z</time>
</trkpt>
<trkpt lat="53.504357" lon="9.989898">
   <ele>3.571663</ele>
   <time>2014-03-08T13:40:29Z</time>
</trkpt>
<trkpt lat="53.504264" lon="9.990041">
   <ele>3.723982</ele>
   <time>2014-03-08T13:40:33Z</time>
</trkpt>
<trkpt lat="53.504210" lon="9.990193">
   <ele>3.676602</ele>
   <time>2014-03-08T13:40:36Z</time>
</trkpt>
<trkpt lat="53.504135" lon="9.990364">
   <ele>3.580364</ele>
   <time>2014-03-08T13:40:40Z</time>
</trkpt>
<trkpt lat="53.504049" lon="9.990477">
   <ele>3.507859</ele>
   <time>2014-03-08T13:40:43Z</time>
</trkpt>
<trkpt lat="53.503973" lon="9.990609">
   <ele>3.439125</ele>
   <time>2014-03-08T13:40:46Z</time>
</trkpt>
<trkpt lat="53.503894" lon="9.990721">
   <ele>3.418113</ele>
   <time>2014-03-08T13:40:49Z</time>
</trkpt>
<trkpt lat="53.503783" lon="9.990889">
   <ele>3.388402</ele>
   <time>2014-03-08T13:40:53Z</time>
</trkpt>
<trkpt lat="53.503679" lon="9.991073">
   <ele>3.346542</ele>
   <time>2014-03-08T13:40:57Z</time>
</trkpt>
<trkpt lat="53.503609" lon="9.991259">
   <ele>3.330208</ele>
   <time>2014-03-08T13:41:00Z</time>
</trkpt>
<trkpt lat="53.503536" lon="9.991383">
   <ele>3.436021</ele>
   <time>2014-03-08T13:41:04Z</time>
</trkpt>
<trkpt lat="53.503461" lon="9.991519">
   <ele>3.596477</ele>
   <time>2014-03-08T13:41:08Z</time>
</trkpt>
<trkpt lat="53.503399" lon="9.991654">
   <ele>3.766798</ele>
   <time>2014-03-08T13:41:12Z</time>
</trkpt>
<trkpt lat="53.503357" lon="9.991723">
   <ele>3.848667</ele>
   <time>2014-03-08T13:41:16Z</time>
</trkpt>
<trkpt lat="53.503336" lon="9.991848">
   <ele>3.771795</ele>
   <time>2014-03-08T13:41:20Z</time>
</trkpt>
<trkpt lat="53.503331" lon="9.991942">
   <ele>3.665641</ele>
   <time>2014-03-08T13:41:25Z</time>
</trkpt>
<trkpt lat="53.503256" lon="9.992031">
   <ele>3.417526</ele>
   <time>2014-03-08T13:41:29Z</time>
</trkpt>
<trkpt lat="53.503162" lon="9.992128">
   <ele>3.148769</ele>
   <time>2014-03-08T13:41:33Z</time>
</trkpt>
<trkpt lat="53.503065" lon="9.992250">
   <ele>2.882368</ele>
   <time>2014-03-08T13:41:37Z</time>
</trkpt>
<trkpt lat="53.502996" lon="9.992347">
   <ele>2.704708</ele>
   <time>2014-03-08T13:41:40Z</time>
</trkpt>
<trkpt lat="53.502891" lon="9.992474">
   <ele>2.484176</ele>
   <time>2014-03-08T13:41:44Z</time>
</trkpt>
<trkpt lat="53.502813" lon="9.992586">
   <ele>2.401702</ele>
   <time>2014-03-08T13:41:47Z</time>
</trkpt>
<trkpt lat="53.502743" lon="9.992689">
   <ele>2.386400</ele>
   <time>2014-03-08T13:41:50Z</time>
</trkpt>
<trkpt lat="53.502651" lon="9.992835">
   <ele>2.437264</ele>
   <time>2014-03-08T13:41:54Z</time>
</trkpt>
<trkpt lat="53.502575" lon="9.992966">
   <ele>2.548694</ele>
   <time>2014-03-08T13:41:58Z</time>
</trkpt>
<trkpt lat="53.502498" lon="9.993075">
   <ele>2.691534</ele>
   <time>2014-03-08T13:42:02Z</time>
</trkpt>
<trkpt lat="53.502429" lon="9.993166">
   <ele>2.867764</ele>
   <time>2014-03-08T13:42:05Z</time>
</trkpt>
<trkpt lat="53.502311" lon="9.993354">
   <ele>3.227295</ele>
   <time>2014-03-08T13:42:09Z</time>
</trkpt>
<trkpt lat="53.502218" lon="9.993543">
   <ele>3.338745</ele>
   <time>2014-03-08T13:42:12Z</time>
</trkpt>
<trkpt lat="53.502109" lon="9.993769">
   <ele>3.469727</ele>
   <time>2014-03-08T13:42:16Z</time>
</trkpt>
<trkpt lat="53.502017" lon="9.993951">
   <ele>3.579041</ele>
   <time>2014-03-08T13:42:19Z</time>
</trkpt>
<trkpt lat="53.501908" lon="9.994166">
   <ele>3.709961</ele>
   <time>2014-03-08T13:42:23Z</time>
</trkpt>
<trkpt lat="53.501831" lon="9.994305">
   <ele>3.936064</ele>
   <time>2014-03-08T13:42:26Z</time>
</trkpt>
<trkpt lat="53.501762" lon="9.994432">
   <ele>4.168670</ele>
   <time>2014-03-08T13:42:29Z</time>
</trkpt>
<trkpt lat="53.501687" lon="9.994627">
   <ele>4.514561</ele>
   <time>2014-03-08T13:42:33Z</time>
</trkpt>
<trkpt lat="53.501600" lon="9.994805">
   <ele>4.607788</ele>
   <time>2014-03-08T13:42:37Z</time>
</trkpt>
<trkpt lat="53.501501" lon="9.995005">
   <ele>4.593028</ele>
   <time>2014-03-08T13:42:41Z</time>
</trkpt>
<trkpt lat="53.501434" lon="9.995160">
   <ele>4.164744</ele>
   <time>2014-03-08T13:42:44Z</time>
</trkpt>
<trkpt lat="53.501363" lon="9.995296">
   <ele>3.819896</ele>
   <time>2014-03-08T13:42:47Z</time>
</trkpt>
<trkpt lat="53.501309" lon="9.995441">
   <ele>3.537510</ele>
   <time>2014-03-08T13:42:50Z</time>
</trkpt>
<trkpt lat="53.501257" lon="9.995580">
   <ele>3.308332</ele>
   <time>2014-03-08T13:42:53Z</time>
</trkpt>
<trkpt lat="53.501194" lon="9.995723">
   <ele>3.114865</ele>
   <time>2014-03-08T13:42:56Z</time>
</trkpt>
<trkpt lat="53.501109" lon="9.995910">
   <ele>2.878021</ele>
   <time>2014-03-08T13:43:00Z</time>
</trkpt>
<trkpt lat="53.501034" lon="9.996087">
   <ele>2.621914</ele>
   <time>2014-03-08T13:43:03Z</time>
</trkpt>
<trkpt lat="53.500923" lon="9.996355">
   <ele>2.306457</ele>
   <time>2014-03-08T13:43:07Z</time>
</trkpt>
<trkpt lat="53.500860" lon="9.996513">
   <ele>2.158869</ele>
   <time>2014-03-08T13:43:10Z</time>
</trkpt>
<trkpt lat="53.500791" lon="9.996659">
   <ele>2.058678</ele>
   <time>2014-03-08T13:43:14Z</time>
</trkpt>
<trkpt lat="53.500752" lon="9.996774">
   <ele>2.109948</ele>
   <time>2014-03-08T13:43:17Z</time>
</trkpt>
<trkpt lat="53.500709" lon="9.996864">
   <ele>2.184209</ele>
   <time>2014-03-08T13:43:20Z</time>
</trkpt>
<trkpt lat="53.500641" lon="9.997027">
   <ele>2.330405</ele>
   <time>2014-03-08T13:43:24Z</time>
</trkpt>
<trkpt lat="53.500566" lon="9.997175">
   <ele>2.515738</ele>
   <time>2014-03-08T13:43:27Z</time>
</trkpt>
<trkpt lat="53.500513" lon="9.997305">
   <ele>2.679769</ele>
   <time>2014-03-08T13:43:30Z</time>
</trkpt>
<trkpt lat="53.500456" lon="9.997423">
   <ele>2.863723</ele>
   <time>2014-03-08T13:43:34Z</time>
</trkpt>
<trkpt lat="53.500421" lon="9.997490">
   <ele>2.982674</ele>
   <time>2014-03-08T13:43:38Z</time>
</trkpt>
<trkpt lat="53.500379" lon="9.997527">
   <ele>3.122070</ele>
   <time>2014-03-08T13:43:43Z</time>
</trkpt>
<trkpt lat="53.500359" lon="9.997602">
   <ele>3.260986</ele>
   <time>2014-03-08T13:45:02Z</time>
</trkpt>
<trkpt lat="53.500405" lon="9.997567">
   <ele>3.108398</ele>
   <time>2014-03-08T13:45:15Z</time>
</trkpt>
<trkpt lat="53.500349" lon="9.997588">
   <ele>3.269653</ele>
   <time>2014-03-08T13:45:31Z</time>
</trkpt>
<trkpt lat="53.500305" lon="9.997616">
   <ele>3.407227</ele>
   <time>2014-03-08T13:46:02Z</time>
</trkpt>
<trkpt lat="53.500252" lon="9.997661">
   <ele>3.587891</ele>
   <time>2014-03-08T13:46:11Z</time>
</trkpt>
<trkpt lat="53.500162" lon="9.997627">
   <ele>3.762939</ele>
   <time>2014-03-08T13:46:15Z</time>
</trkpt>
<trkpt lat="53.500042" lon="9.997597">
   <ele>4.014648</ele>
   <time>2014-03-08T13:46:19Z</time>
</trkpt>
<trkpt lat="53.499886" lon="9.997539">
   <ele>4.308365</ele>
   <time>2014-03-08T13:46:23Z</time>
</trkpt>
<trkpt lat="53.499763" lon="9.997473">
   <ele>4.554449</ele>
   <time>2014-03-08T13:46:26Z</time>
</trkpt>
<trkpt lat="53.499588" lon="9.997437">
   <ele>4.988571</ele>
   <time>2014-03-08T13:46:30Z</time>
</trkpt>
<trkpt lat="53.499458" lon="9.997414">
   <ele>5.331415</ele>
   <time>2014-03-08T13:46:33Z</time>
</trkpt>
<trkpt lat="53.499367" lon="9.997359">
   <ele>5.605465</ele>
   <time>2014-03-08T13:46:36Z</time>
</trkpt>
<trkpt lat="53.499297" lon="9.997299">
   <ele>5.851634</ele>
   <time>2014-03-08T13:46:40Z</time>
</trkpt>
<trkpt lat="53.499250" lon="9.997272">
   <ele>6.018310</ele>
   <time>2014-03-08T13:46:44Z</time>
</trkpt>
<trkpt lat="53.499193" lon="9.997247">
   <ele>6.221498</ele>
   <time>2014-03-08T13:46:47Z</time>
</trkpt>
<trkpt lat="53.499142" lon="9.997294">
   <ele>6.209808</ele>
   <time>2014-03-08T13:46:50Z</time>
</trkpt>
<trkpt lat="53.499108" lon="9.997394">
   <ele>6.046824</ele>
   <time>2014-03-08T13:46:53Z</time>
</trkpt>
<trkpt lat="53.499049" lon="9.997506">
   <ele>5.852608</ele>
   <time>2014-03-08T13:46:57Z</time>
</trkpt>
<trkpt lat="53.499039" lon="9.997581">
   <ele>5.765223</ele>
   <time>2014-03-08T13:47:14Z</time>
</trkpt>
<trkpt lat="53.499004" lon="9.997688">
   <ele>5.623198</ele>
   <time>2014-03-08T13:47:18Z</time>
</trkpt>
<trkpt lat="53.498924" lon="9.997844">
   <ele>5.416322</ele>
   <time>2014-03-08T13:47:22Z</time>
</trkpt>
<trkpt lat="53.498868" lon="9.997916">
   <ele>5.321210</ele>
   <time>2014-03-08T13:47:25Z</time>
</trkpt>
<trkpt lat="53.498808" lon="9.998088">
   <ele>5.167248</ele>
   <time>2014-03-08T13:47:29Z</time>
</trkpt>
<trkpt lat="53.498754" lon="9.998241">
   <ele>5.055729</ele>
   <time>2014-03-08T13:47:32Z</time>
</trkpt>
<trkpt lat="53.498683" lon="9.998470">
   <ele>4.836548</ele>
   <time>2014-03-08T13:47:36Z</time>
</trkpt>
<trkpt lat="53.498620" lon="9.998627">
   <ele>4.648193</ele>
   <time>2014-03-08T13:47:39Z</time>
</trkpt>
<trkpt lat="53.498538" lon="9.998838">
   <ele>4.394531</ele>
   <time>2014-03-08T13:47:43Z</time>
</trkpt>
<trkpt lat="53.498528" lon="9.998920">
   <ele>4.295776</ele>
   <time>2014-03-08T13:47:47Z</time>
</trkpt>
<trkpt lat="53.498574" lon="9.998898">
   <ele>4.322266</ele>
   <time>2014-03-08T13:48:01Z</time>
</trkpt>
<trkpt lat="53.498647" lon="9.998873">
   <ele>4.352905</ele>
   <time>2014-03-08T13:48:16Z</time>
</trkpt>
<trkpt lat="53.498604" lon="9.998927">
   <ele>4.287964</ele>
   <time>2014-03-08T13:48:40Z</time>
</trkpt>
<trkpt lat="53.498563" lon="9.999063">
   <ele>4.123901</ele>
   <time>2014-03-08T13:48:43Z</time>
</trkpt>
<trkpt lat="53.498548" lon="9.999216">
   <ele>3.925686</ele>
   <time>2014-03-08T13:48:46Z</time>
</trkpt>
<trkpt lat="53.498541" lon="9.999486">
   <ele>3.521449</ele>
   <time>2014-03-08T13:48:50Z</time>
</trkpt>
<trkpt lat="53.498467" lon="9.999736">
   <ele>3.207258</ele>
   <time>2014-03-08T13:48:54Z</time>
</trkpt>
<trkpt lat="53.498397" lon="9.999930">
   <ele>3.013706</ele>
   <time>2014-03-08T13:48:57Z</time>
</trkpt>
<trkpt lat="53.498328" lon="10.000100">
   <ele>2.993530</ele>
   <time>2014-03-08T13:49:00Z</time>
</trkpt>
<trkpt lat="53.498246" lon="10.000282">
   <ele>2.895081</ele>
   <time>2014-03-08T13:49:03Z</time>
</trkpt>
<trkpt lat="53.498106" lon="10.000194">
   <ele>2.726990</ele>
   <time>2014-03-08T13:49:07Z</time>
</trkpt>
<trkpt lat="53.498008" lon="10.000107">
   <ele>2.609802</ele>
   <time>2014-03-08T13:49:10Z</time>
</trkpt>
<trkpt lat="53.497879" lon="10.000008">
   <ele>2.454773</ele>
   <time>2014-03-08T13:49:14Z</time>
</trkpt>
<trkpt lat="53.497796" lon="9.999906">
   <ele>2.467529</ele>
   <time>2014-03-08T13:49:17Z</time>
</trkpt>
<trkpt lat="53.497680" lon="9.999800">
   <ele>2.455444</ele>
   <time>2014-03-08T13:49:21Z</time>
</trkpt>
<trkpt lat="53.497599" lon="9.999736">
   <ele>2.435547</ele>
   <time>2014-03-08T13:49:24Z</time>
</trkpt>
<trkpt lat="53.497504" lon="9.999653">
   <ele>2.421082</ele>
   <time>2014-03-08T13:49:28Z</time>
</trkpt>
<trkpt lat="53.497408" lon="9.999658">
   <ele>2.255453</ele>
   <time>2014-03-08T13:49:32Z</time>
</trkpt>
<trkpt lat="53.497321" lon="9.999804">
   <ele>1.970136</ele>
   <time>2014-03-08T13:49:36Z</time>
</trkpt>
<trkpt lat="53.497259" lon="9.999903">
   <ele>1.793098</ele>
   <time>2014-03-08T13:49:39Z</time>
</trkpt>
<trkpt lat="53.497191" lon="10.000079">
   <ele>1.628906</ele>
   <time>2014-03-08T13:49:43Z</time>
</trkpt>
<trkpt lat="53.497127" lon="10.000250">
   <ele>1.552246</ele>
   <time>2014-03-08T13:49:46Z</time>
</trkpt>
<trkpt lat="53.497039" lon="10.000453">
   <ele>1.447144</ele>
   <time>2014-03-08T13:49:50Z</time>
</trkpt>
<trkpt lat="53.496964" lon="10.000609">
   <ele>1.356201</ele>
   <time>2014-03-08T13:49:53Z</time>
</trkpt>
<trkpt lat="53.496885" lon="10.000792">
   <ele>1.261780</ele>
   <time>2014-03-08T13:49:57Z</time>
</trkpt>
<trkpt lat="53.496809" lon="10.000954">
   <ele>1.290846</ele>
   <time>2014-03-08T13:50:01Z</time>
</trkpt>
<trkpt lat="53.496731" lon="10.001134">
   <ele>1.410266</ele>
   <time>2014-03-08T13:50:05Z</time>
</trkpt>
<trkpt lat="53.496660" lon="10.001286">
   <ele>1.558199</ele>
   <time>2014-03-08T13:50:09Z</time>
</trkpt>
<trkpt lat="53.496595" lon="10.001450">
   <ele>1.870147</ele>
   <time>2014-03-08T13:50:13Z</time>
</trkpt>
<trkpt lat="53.496564" lon="10.001530">
   <ele>1.999088</ele>
   <time>2014-03-08T13:50:16Z</time>
</trkpt>
<trkpt lat="53.496527" lon="10.001698">
   <ele>2.129622</ele>
   <time>2014-03-08T13:50:20Z</time>
</trkpt>
<trkpt lat="53.496503" lon="10.001894">
   <ele>1.923064</ele>
   <time>2014-03-08T13:50:24Z</time>
</trkpt>
<trkpt lat="53.496487" lon="10.001996">
   <ele>1.820997</ele>
   <time>2014-03-08T13:50:27Z</time>
</trkpt>
<trkpt lat="53.496469" lon="10.002068">
   <ele>1.755366</ele>
   <time>2014-03-08T13:50:31Z</time>
</trkpt>
<trkpt lat="53.496434" lon="10.002118">
   <ele>1.738427</ele>
   <time>2014-03-08T13:50:35Z</time>
</trkpt>
<trkpt lat="53.496365" lon="10.002212">
   <ele>1.708093</ele>
   <time>2014-03-08T13:50:38Z</time>
</trkpt>
<trkpt lat="53.496289" lon="10.002335">
   <ele>1.650852</ele>
   <time>2014-03-08T13:50:42Z</time>
</trkpt>
<trkpt lat="53.496235" lon="10.002365">
   <ele>1.680417</ele>
   <time>2014-03-08T13:50:45Z</time>
</trkpt>
<trkpt lat="53.496149" lon="10.002371">
   <ele>1.776119</ele>
   <time>2014-03-08T13:50:49Z</time>
</trkpt>
<trkpt lat="53.496065" lon="10.002338">
   <ele>1.916536</ele>
   <time>2014-03-08T13:50:53Z</time>
</trkpt>
<trkpt lat="53.495982" lon="10.002226">
   <ele>2.150994</ele>
   <time>2014-03-08T13:50:57Z</time>
</trkpt>
<trkpt lat="53.495912" lon="10.002118">
   <ele>2.363840</ele>
   <time>2014-03-08T13:51:00Z</time>
</trkpt>
<trkpt lat="53.495859" lon="10.002021">
   <ele>2.543938</ele>
   <time>2014-03-08T13:51:04Z</time>
</trkpt>
<trkpt lat="53.495809" lon="10.001997">
   <ele>2.586283</ele>
   <time>2014-03-08T13:51:08Z</time>
</trkpt>
<trkpt lat="53.495853" lon="10.002042">
   <ele>2.526193</ele>
   <time>2014-03-08T13:51:13Z</time>
</trkpt>
<trkpt lat="53.495892" lon="10.002148">
   <ele>2.351376</ele>
   <time>2014-03-08T13:51:17Z</time>
</trkpt>
<trkpt lat="53.495929" lon="10.002224">
   <ele>2.215488</ele>
   <time>2014-03-08T13:51:20Z</time>
</trkpt>
<trkpt lat="53.495980" lon="10.002307">
   <ele>2.055903</ele>
   <time>2014-03-08T13:51:23Z</time>
</trkpt>
<trkpt lat="53.496050" lon="10.002396">
   <ele>1.865426</ele>
   <time>2014-03-08T13:51:27Z</time>
</trkpt>
<trkpt lat="53.496082" lon="10.002453">
   <ele>1.757877</ele>
   <time>2014-03-08T13:51:30Z</time>
</trkpt>
<trkpt lat="53.496041" lon="10.002556">
   <ele>1.717630</ele>
   <time>2014-03-08T13:51:37Z</time>
</trkpt>
<trkpt lat="53.495984" lon="10.002666">
   <ele>1.691472</ele>
   <time>2014-03-08T13:51:40Z</time>
</trkpt>
<trkpt lat="53.495909" lon="10.002834">
   <ele>1.581524</ele>
   <time>2014-03-08T13:51:44Z</time>
</trkpt>
<trkpt lat="53.495855" lon="10.002946">
   <ele>1.466958</ele>
   <time>2014-03-08T13:51:47Z</time>
</trkpt>
<trkpt lat="53.495794" lon="10.003093">
   <ele>1.355741</ele>
   <time>2014-03-08T13:51:50Z</time>
</trkpt>
<trkpt lat="53.495726" lon="10.003227">
   <ele>1.352708</ele>
   <time>2014-03-08T13:51:53Z</time>
</trkpt>
<trkpt lat="53.495655" lon="10.003335">
   <ele>1.427046</ele>
   <time>2014-03-08T13:51:56Z</time>
</trkpt>
<trkpt lat="53.495580" lon="10.003472">
   <ele>1.558177</ele>
   <time>2014-03-08T13:52:00Z</time>
</trkpt>
<trkpt lat="53.495507" lon="10.003629">
   <ele>1.643354</ele>
   <time>2014-03-08T13:52:04Z</time>
</trkpt>
<trkpt lat="53.495449" lon="10.003724">
   <ele>1.705887</ele>
   <time>2014-03-08T13:52:07Z</time>
</trkpt>
<trkpt lat="53.495376" lon="10.003887">
   <ele>1.732787</ele>
   <time>2014-03-08T13:52:11Z</time>
</trkpt>
<trkpt lat="53.495284" lon="10.004088">
   <ele>1.721596</ele>
   <time>2014-03-08T13:52:15Z</time>
</trkpt>
<trkpt lat="53.495206" lon="10.004186">
   <ele>1.740418</ele>
   <time>2014-03-08T13:52:18Z</time>
</trkpt>
<trkpt lat="53.495089" lon="10.004208">
   <ele>1.854585</ele>
   <time>2014-03-08T13:52:22Z</time>
</trkpt>
<trkpt lat="53.495000" lon="10.004178">
   <ele>1.986365</ele>
   <time>2014-03-08T13:52:25Z</time>
</trkpt>
<trkpt lat="53.494882" lon="10.004135">
   <ele>2.043464</ele>
   <time>2014-03-08T13:52:29Z</time>
</trkpt>
<trkpt lat="53.494783" lon="10.004104">
   <ele>2.094720</ele>
   <time>2014-03-08T13:52:32Z</time>
</trkpt>
<trkpt lat="53.494653" lon="10.004082">
   <ele>2.143955</ele>
   <time>2014-03-08T13:52:36Z</time>
</trkpt>
<trkpt lat="53.494560" lon="10.004072">
   <ele>2.172914</ele>
   <time>2014-03-08T13:52:39Z</time>
</trkpt>
<trkpt lat="53.494466" lon="10.004060">
   <ele>2.209157</ele>
   <time>2014-03-08T13:52:42Z</time>
</trkpt>
<trkpt lat="53.494363" lon="10.004034">
   <ele>2.280794</ele>
   <time>2014-03-08T13:52:45Z</time>
</trkpt>
<trkpt lat="53.494231" lon="10.004003">
   <ele>2.377518</ele>
   <time>2014-03-08T13:52:49Z</time>
</trkpt>
<trkpt lat="53.494102" lon="10.003955">
   <ele>2.565177</ele>
   <time>2014-03-08T13:52:53Z</time>
</trkpt>
<trkpt lat="53.493997" lon="10.003948">
   <ele>2.665450</ele>
   <time>2014-03-08T13:52:56Z</time>
</trkpt>
<trkpt lat="53.493889" lon="10.003926">
   <ele>2.762857</ele>
   <time>2014-03-08T13:52:59Z</time>
</trkpt>
<trkpt lat="53.493789" lon="10.003918">
   <ele>2.827384</ele>
   <time>2014-03-08T13:53:02Z</time>
</trkpt>
<trkpt lat="53.493653" lon="10.003901">
   <ele>2.887975</ele>
   <time>2014-03-08T13:53:06Z</time>
</trkpt>
<trkpt lat="53.493566" lon="10.003879">
   <ele>2.888694</ele>
   <time>2014-03-08T13:53:09Z</time>
</trkpt>
<trkpt lat="53.493452" lon="10.003838">
   <ele>2.812759</ele>
   <time>2014-03-08T13:53:13Z</time>
</trkpt>
<trkpt lat="53.493360" lon="10.003803">
   <ele>2.697090</ele>
   <time>2014-03-08T13:53:16Z</time>
</trkpt>
<trkpt lat="53.493235" lon="10.003771">
   <ele>1.519572</ele>
   <time>2014-03-08T13:53:20Z</time>
</trkpt>
<trkpt lat="53.493143" lon="10.003737">
   <ele>1.491781</ele>
   <time>2014-03-08T13:53:23Z</time>
</trkpt>
<trkpt lat="53.493048" lon="10.003723">
   <ele>1.489895</ele>
   <time>2014-03-08T13:53:26Z</time>
</trkpt>
<trkpt lat="53.492917" lon="10.003703">
   <ele>1.500007</ele>
   <time>2014-03-08T13:53:30Z</time>
</trkpt>
<trkpt lat="53.492801" lon="10.003689">
   <ele>1.520362</ele>
   <time>2014-03-08T13:53:34Z</time>
</trkpt>
<trkpt lat="53.492708" lon="10.003641">
   <ele>1.565275</ele>
   <time>2014-03-08T13:53:37Z</time>
</trkpt>
<trkpt lat="53.492590" lon="10.003578">
   <ele>1.662040</ele>
   <time>2014-03-08T13:53:41Z</time>
</trkpt>
<trkpt lat="53.492507" lon="10.003539">
   <ele>1.748424</ele>
   <time>2014-03-08T13:53:44Z</time>
</trkpt>
<trkpt lat="53.492419" lon="10.003504">
   <ele>1.815530</ele>
   <time>2014-03-08T13:53:47Z</time>
</trkpt>
<trkpt lat="53.492302" lon="10.003451">
   <ele>1.892608</ele>
   <time>2014-03-08T13:53:51Z</time>
</trkpt>
<trkpt lat="53.492220" lon="10.003413">
   <ele>1.936475</ele>
   <time>2014-03-08T13:53:54Z</time>
</trkpt>
<trkpt lat="53.492136" lon="10.003383">
   <ele>1.966130</ele>
   <time>2014-03-08T13:53:57Z</time>
</trkpt>
<trkpt lat="53.491998" lon="10.003346">
   <ele>1.993966</ele>
   <time>2014-03-08T13:54:01Z</time>
</trkpt>
<trkpt lat="53.491845" lon="10.003346">
   <ele>1.996763</ele>
   <time>2014-03-08T13:54:05Z</time>
</trkpt>
<trkpt lat="53.491702" lon="10.003333">
   <ele>1.999263</ele>
   <time>2014-03-08T13:54:09Z</time>
</trkpt>
<trkpt lat="53.491599" lon="10.003316">
   <ele>1.899396</ele>
   <time>2014-03-08T13:54:12Z</time>
</trkpt>
<trkpt lat="53.491474" lon="10.003269">
   <ele>1.710223</ele>
   <time>2014-03-08T13:54:16Z</time>
</trkpt>
<trkpt lat="53.491384" lon="10.003207">
   <ele>1.561082</ele>
   <time>2014-03-08T13:54:19Z</time>
</trkpt>
<trkpt lat="53.491272" lon="10.003088">
   <ele>1.371533</ele>
   <time>2014-03-08T13:54:23Z</time>
</trkpt>
<trkpt lat="53.491172" lon="10.002999">
   <ele>1.243841</ele>
   <time>2014-03-08T13:54:26Z</time>
</trkpt>
<trkpt lat="53.491048" lon="10.002863">
   <ele>1.112410</ele>
   <time>2014-03-08T13:54:30Z</time>
</trkpt>
<trkpt lat="53.490958" lon="10.002778">
   <ele>1.049999</ele>
   <time>2014-03-08T13:54:33Z</time>
</trkpt>
<trkpt lat="53.490832" lon="10.002647">
   <ele>1.008057</ele>
   <time>2014-03-08T13:54:37Z</time>
</trkpt>
<trkpt lat="53.490753" lon="10.002504">
   <ele>1.387695</ele>
   <time>2014-03-08T13:54:40Z</time>
</trkpt>
<trkpt lat="53.490671" lon="10.002359">
   <ele>1.779541</ele>
   <time>2014-03-08T13:54:43Z</time>
</trkpt>
<trkpt lat="53.490592" lon="10.002228">
   <ele>2.157227</ele>
   <time>2014-03-08T13:54:46Z</time>
</trkpt>
<trkpt lat="53.490485" lon="10.002093">
   <ele>2.674072</ele>
   <time>2014-03-08T13:54:50Z</time>
</trkpt>
<trkpt lat="53.490377" lon="10.001982">
   <ele>3.192383</ele>
   <time>2014-03-08T13:54:54Z</time>
</trkpt>
<trkpt lat="53.490298" lon="10.001835">
   <ele>3.569824</ele>
   <time>2014-03-08T13:54:58Z</time>
</trkpt>
<trkpt lat="53.490258" lon="10.001798">
   <ele>3.759766</ele>
   <time>2014-03-08T13:55:06Z</time>
</trkpt>
<trkpt lat="53.490254" lon="10.001878">
   <ele>3.780762</ele>
   <time>2014-03-08T13:55:19Z</time>
</trkpt>
<trkpt lat="53.490205" lon="10.001837">
   <ele>4.017090</ele>
   <time>2014-03-08T13:55:35Z</time>
</trkpt>
<trkpt lat="53.490249" lon="10.001822">
   <ele>3.802734</ele>
   <time>2014-03-08T13:56:03Z</time>
</trkpt>
<trkpt lat="53.490295" lon="10.001842">
   <ele>3.585205</ele>
   <time>2014-03-08T13:56:08Z</time>
</trkpt>
<trkpt lat="53.490243" lon="10.001777">
   <ele>3.831543</ele>
   <time>2014-03-08T13:56:13Z</time>
</trkpt>
<trkpt lat="53.490199" lon="10.001762">
   <ele>4.045166</ele>
   <time>2014-03-08T13:56:37Z</time>
</trkpt>
<trkpt lat="53.490155" lon="10.001738">
   <ele>4.258301</ele>
   <time>2014-03-08T13:56:51Z</time>
</trkpt>
<trkpt lat="53.490086" lon="10.001681">
   <ele>4.588135</ele>
   <time>2014-03-08T13:56:55Z</time>
</trkpt>
<trkpt lat="53.490003" lon="10.001720">
   <ele>4.986572</ele>
   <time>2014-03-08T13:56:58Z</time>
</trkpt>
<trkpt lat="53.489892" lon="10.001853">
   <ele>4.638569</ele>
   <time>2014-03-08T13:57:02Z</time>
</trkpt>
<trkpt lat="53.489832" lon="10.002005">
   <ele>4.476149</ele>
   <time>2014-03-08T13:57:05Z</time>
</trkpt>
<trkpt lat="53.489711" lon="10.002147">
   <ele>4.160411</ele>
   <time>2014-03-08T13:57:09Z</time>
</trkpt>
<trkpt lat="53.489594" lon="10.002217">
   <ele>3.861100</ele>
   <time>2014-03-08T13:57:12Z</time>
</trkpt>
<trkpt lat="53.489461" lon="10.002190">
   <ele>3.465428</ele>
   <time>2014-03-08T13:57:16Z</time>
</trkpt>
<trkpt lat="53.489370" lon="10.002139">
   <ele>3.160597</ele>
   <time>2014-03-08T13:57:19Z</time>
</trkpt>
<trkpt lat="53.489266" lon="10.002223">
   <ele>2.944281</ele>
   <time>2014-03-08T13:57:23Z</time>
</trkpt>
<trkpt lat="53.489187" lon="10.002339">
   <ele>2.860272</ele>
   <time>2014-03-08T13:57:27Z</time>
</trkpt>
<trkpt lat="53.489114" lon="10.002392">
   <ele>2.815335</ele>
   <time>2014-03-08T13:57:30Z</time>
</trkpt>
<trkpt lat="53.488988" lon="10.002392">
   <ele>2.683894</ele>
   <time>2014-03-08T13:57:34Z</time>
</trkpt>
<trkpt lat="53.488865" lon="10.002370">
   <ele>2.538387</ele>
   <time>2014-03-08T13:57:38Z</time>
</trkpt>
<trkpt lat="53.488741" lon="10.002417">
   <ele>2.440763</ele>
   <time>2014-03-08T13:57:42Z</time>
</trkpt>
<trkpt lat="53.488656" lon="10.002483">
   <ele>2.379314</ele>
   <time>2014-03-08T13:57:45Z</time>
</trkpt>
<trkpt lat="53.488575" lon="10.002604">
   <ele>2.415076</ele>
   <time>2014-03-08T13:57:48Z</time>
</trkpt>
<trkpt lat="53.488487" lon="10.002716">
   <ele>2.443220</ele>
   <time>2014-03-08T13:57:51Z</time>
</trkpt>
<trkpt lat="53.488382" lon="10.002760">
   <ele>2.370635</ele>
   <time>2014-03-08T13:57:54Z</time>
</trkpt>
<trkpt lat="53.488286" lon="10.002716">
   <ele>2.216730</ele>
   <time>2014-03-08T13:57:57Z</time>
</trkpt>
<trkpt lat="53.488174" lon="10.002617">
   <ele>1.976750</ele>
   <time>2014-03-08T13:58:01Z</time>
</trkpt>
<trkpt lat="53.488049" lon="10.002512">
   <ele>1.678501</ele>
   <time>2014-03-08T13:58:05Z</time>
</trkpt>
<trkpt lat="53.487952" lon="10.002454">
   <ele>1.542725</ele>
   <time>2014-03-08T13:58:08Z</time>
</trkpt>
<trkpt lat="53.487825" lon="10.002374">
   <ele>1.389832</ele>
   <time>2014-03-08T13:58:12Z</time>
</trkpt>
<trkpt lat="53.487690" lon="10.002296">
   <ele>1.228516</ele>
   <time>2014-03-08T13:58:16Z</time>
</trkpt>
<trkpt lat="53.487593" lon="10.002239">
   <ele>1.111816</ele>
   <time>2014-03-08T13:58:19Z</time>
</trkpt>
<trkpt lat="53.487460" lon="10.002146">
   <ele>0.905029</ele>
   <time>2014-03-08T13:58:23Z</time>
</trkpt>
<trkpt lat="53.487367" lon="10.002086">
   <ele>0.681152</ele>
   <time>2014-03-08T13:58:26Z</time>
</trkpt>
<trkpt lat="53.487260" lon="10.002035">
   <ele>0.423218</ele>
   <time>2014-03-08T13:58:30Z</time>
</trkpt>
<trkpt lat="53.487195" lon="10.001975">
   <ele>0.268677</ele>
   <time>2014-03-08T13:58:33Z</time>
</trkpt>
<trkpt lat="53.487098" lon="10.001933">
   <ele>0.034180</ele>
   <time>2014-03-08T13:58:37Z</time>
</trkpt>
<trkpt lat="53.487026" lon="10.001891">
   <ele>-0.137939</ele>
   <time>2014-03-08T13:58:40Z</time>
</trkpt>
<trkpt lat="53.486955" lon="10.001839">
   <ele>-0.306763</ele>
   <time>2014-03-08T13:58:43Z</time>
</trkpt>
<trkpt lat="53.486843" lon="10.001765">
   <ele>-0.577637</ele>
   <time>2014-03-08T13:58:47Z</time>
</trkpt>
<trkpt lat="53.486768" lon="10.001724">
   <ele>-0.756348</ele>
   <time>2014-03-08T13:58:50Z</time>
</trkpt>
<trkpt lat="53.486660" lon="10.001663">
   <ele>-0.971831</ele>
   <time>2014-03-08T13:58:54Z</time>
</trkpt>
<trkpt lat="53.486569" lon="10.001600">
   <ele>-0.545978</ele>
   <time>2014-03-08T13:58:57Z</time>
</trkpt>
<trkpt lat="53.486450" lon="10.001526">
   <ele>-0.061609</ele>
   <time>2014-03-08T13:59:01Z</time>
</trkpt>
<trkpt lat="53.486360" lon="10.001482">
   <ele>0.236510</ele>
   <time>2014-03-08T13:59:04Z</time>
</trkpt>
<trkpt lat="53.486269" lon="10.001447">
   <ele>0.493670</ele>
   <time>2014-03-08T13:59:07Z</time>
</trkpt>
<trkpt lat="53.486160" lon="10.001387">
   <ele>0.815799</ele>
   <time>2014-03-08T13:59:11Z</time>
</trkpt>
<trkpt lat="53.486077" lon="10.001340">
   <ele>1.036418</ele>
   <time>2014-03-08T13:59:14Z</time>
</trkpt>
<trkpt lat="53.485968" lon="10.001270">
   <ele>1.306973</ele>
   <time>2014-03-08T13:59:18Z</time>
</trkpt>
<trkpt lat="53.485865" lon="10.001173">
   <ele>1.561195</ele>
   <time>2014-03-08T13:59:22Z</time>
</trkpt>
<trkpt lat="53.485761" lon="10.001081">
   <ele>1.408630</ele>
   <time>2014-03-08T13:59:26Z</time>
</trkpt>
<trkpt lat="53.485678" lon="10.001022">
   <ele>1.110947</ele>
   <time>2014-03-08T13:59:29Z</time>
</trkpt>
<trkpt lat="53.485574" lon="10.000943">
   <ele>0.706752</ele>
   <time>2014-03-08T13:59:33Z</time>
</trkpt>
<trkpt lat="53.485465" lon="10.000868">
   <ele>0.225182</ele>
   <time>2014-03-08T13:59:37Z</time>
</trkpt>
<trkpt lat="53.485375" lon="10.000796">
   <ele>-0.199707</ele>
   <time>2014-03-08T13:59:40Z</time>
</trkpt>
<trkpt lat="53.485288" lon="10.000728">
   <ele>-0.619141</ele>
   <time>2014-03-08T13:59:43Z</time>
</trkpt>
<trkpt lat="53.485219" lon="10.000653">
   <ele>-0.948975</ele>
   <time>2014-03-08T13:59:46Z</time>
</trkpt>
<trkpt lat="53.485122" lon="10.000545">
   <ele>-1.416260</ele>
   <time>2014-03-08T13:59:50Z</time>
</trkpt>
<trkpt lat="53.485033" lon="10.000432">
   <ele>-1.842285</ele>
   <time>2014-03-08T13:59:54Z</time>
</trkpt>
<trkpt lat="53.484967" lon="10.000335">
   <ele>-2.000000</ele>
   <time>2014-03-08T13:59:57Z</time>
</trkpt>
<trkpt lat="53.484869" lon="10.000240">
   <ele>-2.000000</ele>
   <time>2014-03-08T14:00:01Z</time>
</trkpt>
<trkpt lat="53.484790" lon="10.000109">
   <ele>-2.000000</ele>
   <time>2014-03-08T14:00:05Z</time>
</trkpt>
<trkpt lat="53.484688" lon="10.000085">
   <ele>-2.000000</ele>
   <time>2014-03-08T14:00:09Z</time>
</trkpt>
<trkpt lat="53.484605" lon="10.000087">
   <ele>-2.000000</ele>
   <time>2014-03-08T14:00:12Z</time>
</trkpt>
<trkpt lat="53.484498" lon="10.000092">
   <ele>-2.000000</ele>
   <time>2014-03-08T14:00:16Z</time>
</trkpt>
<trkpt lat="53.484424" lon="10.000084">
   <ele>-2.000000</ele>
   <time>2014-03-08T14:00:19Z</time>
</trkpt>
<trkpt lat="53.484335" lon="10.000036">
   <ele>-2.000000</ele>
   <time>2014-03-08T14:00:23Z</time>
</trkpt>
<trkpt lat="53.484237" lon="10.000030">
   <ele>-2.000000</ele>
   <time>2014-03-08T14:00:27Z</time>
</trkpt>
<trkpt lat="53.484174" lon="10.000045">
   <ele>-2.000000</ele>
   <time>2014-03-08T14:00:30Z</time>
</trkpt>
<trkpt lat="53.484046" lon="10.000038">
   <ele>-1.566956</ele>
   <time>2014-03-08T14:00:34Z</time>
</trkpt>
<trkpt lat="53.483914" lon="10.000055">
   <ele>-1.090881</ele>
   <time>2014-03-08T14:00:38Z</time>
</trkpt>
<trkpt lat="53.483778" lon="10.000101">
   <ele>-0.599609</ele>
   <time>2014-03-08T14:00:42Z</time>
</trkpt>
<trkpt lat="53.483653" lon="10.000047">
   <ele>-0.152283</ele>
   <time>2014-03-08T14:00:46Z</time>
</trkpt>
<trkpt lat="53.483552" lon="9.999927">
   <ele>0.236378</ele>
   <time>2014-03-08T14:00:50Z</time>
</trkpt>
<trkpt lat="53.483489" lon="9.999821">
   <ele>0.480798</ele>
   <time>2014-03-08T14:00:53Z</time>
</trkpt>
<trkpt lat="53.483449" lon="9.999630">
   <ele>0.645673</ele>
   <time>2014-03-08T14:00:57Z</time>
</trkpt>
<trkpt lat="53.483426" lon="9.999412">
   <ele>0.745672</ele>
   <time>2014-03-08T14:01:01Z</time>
</trkpt>
<trkpt lat="53.483401" lon="9.999175">
   <ele>0.836804</ele>
   <time>2014-03-08T14:01:05Z</time>
</trkpt>
<trkpt lat="53.483380" lon="9.998995">
   <ele>-0.056335</ele>
   <time>2014-03-08T14:01:08Z</time>
</trkpt>
<trkpt lat="53.483353" lon="9.998758">
   <ele>-0.023865</ele>
   <time>2014-03-08T14:01:12Z</time>
</trkpt>
<trkpt lat="53.483317" lon="9.998525">
   <ele>2.985111</ele>
   <time>2014-03-08T14:01:16Z</time>
</trkpt>
<trkpt lat="53.483290" lon="9.998354">
   <ele>2.949556</ele>
   <time>2014-03-08T14:01:19Z</time>
</trkpt>
<trkpt lat="53.483259" lon="9.998200">
   <ele>2.000000</ele>
   <time>2014-03-08T14:01:22Z</time>
</trkpt>
<trkpt lat="53.483179" lon="9.998052">
   <ele>2.000000</ele>
   <time>2014-03-08T14:01:26Z</time>
</trkpt>
<trkpt lat="53.483062" lon="9.997976">
   <ele>2.000000</ele>
   <time>2014-03-08T14:01:30Z</time>
</trkpt>
<trkpt lat="53.482968" lon="9.997931">
   <ele>2.000000</ele>
   <time>2014-03-08T14:01:33Z</time>
</trkpt>
<trkpt lat="53.482879" lon="9.997795">
   <ele>2.000000</ele>
   <time>2014-03-08T14:01:37Z</time>
</trkpt>
<trkpt lat="53.482827" lon="9.997662">
   <ele>2.000000</ele>
   <time>2014-03-08T14:01:40Z</time>
</trkpt>
<trkpt lat="53.482747" lon="9.997553">
   <ele>2.000000</ele>
   <time>2014-03-08T14:01:43Z</time>
</trkpt>
<trkpt lat="53.482607" lon="9.997497">
   <ele>-0.002660</ele>
   <time>2014-03-08T14:01:47Z</time>
</trkpt>
<trkpt lat="53.482464" lon="9.997482">
   <ele>1.935650</ele>
   <time>2014-03-08T14:01:51Z</time>
</trkpt>
<trkpt lat="53.482303" lon="9.997506">
   <ele>3.519291</ele>
   <time>2014-03-08T14:01:55Z</time>
</trkpt>
<trkpt lat="53.482167" lon="9.997527">
   <ele>3.187162</ele>
   <time>2014-03-08T14:01:59Z</time>
</trkpt>
<trkpt lat="53.482073" lon="9.997566">
   <ele>2.978536</ele>
   <time>2014-03-08T14:02:02Z</time>
</trkpt>
<trkpt lat="53.482041" lon="9.997735">
   <ele>2.956112</ele>
   <time>2014-03-08T14:02:05Z</time>
</trkpt>
<trkpt lat="53.482033" lon="9.998004">
   <ele>3.025484</ele>
   <time>2014-03-08T14:02:09Z</time>
</trkpt>
<trkpt lat="53.482017" lon="9.998225">
   <ele>3.118710</ele>
   <time>2014-03-08T14:02:12Z</time>
</trkpt>
<trkpt lat="53.482013" lon="9.998430">
   <ele>3.217745</ele>
   <time>2014-03-08T14:02:15Z</time>
</trkpt>
<trkpt lat="53.481996" lon="9.998679">
   <ele>3.374538</ele>
   <time>2014-03-08T14:02:19Z</time>
</trkpt>
<trkpt lat="53.481956" lon="9.998928">
   <ele>3.553768</ele>
   <time>2014-03-08T14:02:23Z</time>
</trkpt>
<trkpt lat="53.481918" lon="9.999096">
   <ele>3.672229</ele>
   <time>2014-03-08T14:02:26Z</time>
</trkpt>
<trkpt lat="53.481811" lon="9.999220">
   <ele>3.849366</ele>
   <time>2014-03-08T14:02:30Z</time>
</trkpt>
<trkpt lat="53.481724" lon="9.999168">
   <ele>3.931648</ele>
   <time>2014-03-08T14:02:33Z</time>
</trkpt>
<trkpt lat="53.481647" lon="9.999103">
   <ele>3.928955</ele>
   <time>2014-03-08T14:02:36Z</time>
</trkpt>
<trkpt lat="53.481543" lon="9.999089">
   <ele>3.553223</ele>
   <time>2014-03-08T14:02:40Z</time>
</trkpt>
<trkpt lat="53.481500" lon="9.999139">
   <ele>3.401062</ele>
   <time>2014-03-08T14:03:38Z</time>
</trkpt>
<trkpt lat="53.481445" lon="9.999156">
   <ele>3.203491</ele>
   <time>2014-03-08T14:03:43Z</time>
</trkpt>
<trkpt lat="53.481348" lon="9.999171">
   <ele>2.855221</ele>
   <time>2014-03-08T14:03:47Z</time>
</trkpt>
<trkpt lat="53.481230" lon="9.999160">
   <ele>2.426941</ele>
   <time>2014-03-08T14:03:51Z</time>
</trkpt>
<trkpt lat="53.481129" lon="9.999150">
   <ele>2.065308</ele>
   <time>2014-03-08T14:03:54Z</time>
</trkpt>
<trkpt lat="53.481007" lon="9.999192">
   <ele>1.650936</ele>
   <time>2014-03-08T14:03:58Z</time>
</trkpt>
<trkpt lat="53.480956" lon="9.999273">
   <ele>1.551629</ele>
   <time>2014-03-08T14:04:01Z</time>
</trkpt>
<trkpt lat="53.480903" lon="9.999350">
   <ele>1.452713</ele>
   <time>2014-03-08T14:04:04Z</time>
</trkpt>
<trkpt lat="53.480823" lon="9.999467">
   <ele>1.360840</ele>
   <time>2014-03-08T14:04:08Z</time>
</trkpt>
<trkpt lat="53.480754" lon="9.999564">
   <ele>1.476929</ele>
   <time>2014-03-08T14:04:11Z</time>
</trkpt>
<trkpt lat="53.480686" lon="9.999645">
   <ele>1.573608</ele>
   <time>2014-03-08T14:04:14Z</time>
</trkpt>
<trkpt lat="53.480602" lon="9.999768">
   <ele>1.721924</ele>
   <time>2014-03-08T14:04:18Z</time>
</trkpt>
<trkpt lat="53.480529" lon="9.999865">
   <ele>1.838135</ele>
   <time>2014-03-08T14:04:21Z</time>
</trkpt>
<trkpt lat="53.480428" lon="10.000006">
   <ele>2.000000</ele>
   <time>2014-03-08T14:04:25Z</time>
</trkpt>
<trkpt lat="53.480357" lon="10.000113">
   <ele>2.000000</ele>
   <time>2014-03-08T14:04:28Z</time>
</trkpt>
<trkpt lat="53.480253" lon="10.000265">
   <ele>2.000000</ele>
   <time>2014-03-08T14:04:32Z</time>
</trkpt>
<trkpt lat="53.480165" lon="10.000413">
   <ele>2.000000</ele>
   <time>2014-03-08T14:04:35Z</time>
</trkpt>
<trkpt lat="53.480079" lon="10.000540">
   <ele>2.000000</ele>
   <time>2014-03-08T14:04:38Z</time>
</trkpt>
<trkpt lat="53.479990" lon="10.000655">
   <ele>2.221326</ele>
   <time>2014-03-08T14:04:41Z</time>
</trkpt>
<trkpt lat="53.479887" lon="10.000697">
   <ele>2.255139</ele>
   <time>2014-03-08T14:04:44Z</time>
</trkpt>
<trkpt lat="53.479754" lon="10.000634">
   <ele>2.392991</ele>
   <time>2014-03-08T14:04:48Z</time>
</trkpt>
<trkpt lat="53.479655" lon="10.000583">
   <ele>2.465756</ele>
   <time>2014-03-08T14:04:51Z</time>
</trkpt>
<trkpt lat="53.479529" lon="10.000501">
   <ele>2.513263</ele>
   <time>2014-03-08T14:04:55Z</time>
</trkpt>
<trkpt lat="53.479396" lon="10.000439">
   <ele>2.512275</ele>
   <time>2014-03-08T14:04:59Z</time>
</trkpt>
<trkpt lat="53.479294" lon="10.000412">
   <ele>2.496075</ele>
   <time>2014-03-08T14:05:02Z</time>
</trkpt>
<trkpt lat="53.479172" lon="10.000351">
   <ele>2.422352</ele>
   <time>2014-03-08T14:05:06Z</time>
</trkpt>
<trkpt lat="53.479040" lon="10.000272">
   <ele>2.276598</ele>
   <time>2014-03-08T14:05:10Z</time>
</trkpt>
<trkpt lat="53.478888" lon="10.000230">
   <ele>2.184131</ele>
   <time>2014-03-08T14:05:14Z</time>
</trkpt>
<trkpt lat="53.478779" lon="10.000177">
   <ele>2.113415</ele>
   <time>2014-03-08T14:05:17Z</time>
</trkpt>
<trkpt lat="53.478628" lon="10.000106">
   <ele>2.044940</ele>
   <time>2014-03-08T14:05:21Z</time>
</trkpt>
<trkpt lat="53.478512" lon="10.000068">
   <ele>2.017506</ele>
   <time>2014-03-08T14:05:24Z</time>
</trkpt>
<trkpt lat="53.478406" lon="10.000024">
   <ele>2.002529</ele>
   <time>2014-03-08T14:05:27Z</time>
</trkpt>
<trkpt lat="53.478300" lon="9.999976">
   <ele>2.067869</ele>
   <time>2014-03-08T14:05:30Z</time>
</trkpt>
<trkpt lat="53.478154" lon="9.999903">
   <ele>2.306225</ele>
   <time>2014-03-08T14:05:34Z</time>
</trkpt>
<trkpt lat="53.478089" lon="9.999767">
   <ele>2.490486</ele>
   <time>2014-03-08T14:05:37Z</time>
</trkpt>
<trkpt lat="53.478005" lon="9.999588">
   <ele>2.693810</ele>
   <time>2014-03-08T14:05:41Z</time>
</trkpt>
<trkpt lat="53.477914" lon="9.999424">
   <ele>2.846565</ele>
   <time>2014-03-08T14:05:45Z</time>
</trkpt>
<trkpt lat="53.477869" lon="9.999305">
   <ele>2.926737</ele>
   <time>2014-03-08T14:05:48Z</time>
</trkpt>
<trkpt lat="53.477810" lon="9.999195">
   <ele>2.987359</ele>
   <time>2014-03-08T14:05:51Z</time>
</trkpt>
<trkpt lat="53.477722" lon="9.999040">
   <ele>3.000000</ele>
   <time>2014-03-08T14:05:55Z</time>
</trkpt>
<trkpt lat="53.477667" lon="9.998919">
   <ele>3.000000</ele>
   <time>2014-03-08T14:05:58Z</time>
</trkpt>
<trkpt lat="53.477611" lon="9.998736">
   <ele>3.000000</ele>
   <time>2014-03-08T14:06:02Z</time>
</trkpt>
<trkpt lat="53.477553" lon="9.998618">
   <ele>3.000000</ele>
   <time>2014-03-08T14:06:05Z</time>
</trkpt>
<trkpt lat="53.477470" lon="9.998490">
   <ele>3.073120</ele>
   <time>2014-03-08T14:06:09Z</time>
</trkpt>
<trkpt lat="53.477336" lon="9.998469">
   <ele>3.392578</ele>
   <time>2014-03-08T14:06:13Z</time>
</trkpt>
<trkpt lat="53.477218" lon="9.998396">
   <ele>3.677490</ele>
   <time>2014-03-08T14:06:17Z</time>
</trkpt>
<trkpt lat="53.477145" lon="9.998353">
   <ele>3.851562</ele>
   <time>2014-03-08T14:06:20Z</time>
</trkpt>
<trkpt lat="53.477165" lon="9.998448">
   <ele>3.804321</ele>
   <time>2014-03-08T14:06:54Z</time>
</trkpt>
<trkpt lat="53.477114" lon="9.998423">
   <ele>3.925659</ele>
   <time>2014-03-08T14:07:01Z</time>
</trkpt>
<trkpt lat="53.477025" lon="9.998463">
   <ele>4.140747</ele>
   <time>2014-03-08T14:07:05Z</time>
</trkpt>
<trkpt lat="53.476970" lon="9.998551">
   <ele>4.273071</ele>
   <time>2014-03-08T14:07:08Z</time>
</trkpt>
<trkpt lat="53.476878" lon="9.998678">
   <ele>4.491821</ele>
   <time>2014-03-08T14:07:12Z</time>
</trkpt>
<trkpt lat="53.476792" lon="9.998863">
   <ele>4.699219</ele>
   <time>2014-03-08T14:07:16Z</time>
</trkpt>
<trkpt lat="53.476691" lon="9.999092">
   <ele>4.940918</ele>
   <time>2014-03-08T14:07:20Z</time>
</trkpt>
<trkpt lat="53.476630" lon="9.999262">
   <ele>5.005011</ele>
   <time>2014-03-08T14:07:23Z</time>
</trkpt>
<trkpt lat="53.476588" lon="9.999435">
   <ele>5.030453</ele>
   <time>2014-03-08T14:07:26Z</time>
</trkpt>
<trkpt lat="53.476533" lon="9.999676">
   <ele>5.097830</ele>
   <time>2014-03-08T14:07:30Z</time>
</trkpt>
<trkpt lat="53.476441" lon="9.999956">
   <ele>5.256259</ele>
   <time>2014-03-08T14:07:34Z</time>
</trkpt>
<trkpt lat="53.476357" lon="10.000162">
   <ele>5.371338</ele>
   <time>2014-03-08T14:07:37Z</time>
</trkpt>
<trkpt lat="53.476285" lon="10.000439">
   <ele>5.457886</ele>
   <time>2014-03-08T14:07:41Z</time>
</trkpt>
<trkpt lat="53.476225" lon="10.000648">
   <ele>5.530151</ele>
   <time>2014-03-08T14:07:44Z</time>
</trkpt>
<trkpt lat="53.476129" lon="10.000869">
   <ele>5.601501</ele>
   <time>2014-03-08T14:07:48Z</time>
</trkpt>
<trkpt lat="53.476089" lon="10.000953">
   <ele>5.550673</ele>
   <time>2014-03-08T14:07:51Z</time>
</trkpt>
<trkpt lat="53.476057" lon="10.001035">
   <ele>5.489585</ele>
   <time>2014-03-08T14:07:54Z</time>
</trkpt>
<trkpt lat="53.476007" lon="10.001077">
   <ele>5.498903</ele>
   <time>2014-03-08T14:07:57Z</time>
</trkpt>
<trkpt lat="53.475932" lon="10.001164">
   <ele>5.485211</ele>
   <time>2014-03-08T14:08:01Z</time>
</trkpt>
<trkpt lat="53.475879" lon="10.001278">
   <ele>5.411396</ele>
   <time>2014-03-08T14:08:04Z</time>
</trkpt>
<trkpt lat="53.475798" lon="10.001449">
   <ele>5.218468</ele>
   <time>2014-03-08T14:08:08Z</time>
</trkpt>
<trkpt lat="53.475742" lon="10.001600">
   <ele>4.971235</ele>
   <time>2014-03-08T14:08:11Z</time>
</trkpt>
<trkpt lat="53.475671" lon="10.001808">
   <ele>4.668782</ele>
   <time>2014-03-08T14:08:15Z</time>
</trkpt>
<trkpt lat="53.475614" lon="10.002032">
   <ele>4.413412</ele>
   <time>2014-03-08T14:08:19Z</time>
</trkpt>
<trkpt lat="53.475568" lon="10.002256">
   <ele>4.199451</ele>
   <time>2014-03-08T14:08:23Z</time>
</trkpt>
<trkpt lat="53.475549" lon="10.002419">
   <ele>4.063849</ele>
   <time>2014-03-08T14:08:26Z</time>
</trkpt>
<trkpt lat="53.475515" lon="10.002621">
   <ele>3.910269</ele>
   <time>2014-03-08T14:08:30Z</time>
</trkpt>
<trkpt lat="53.475494" lon="10.002773">
   <ele>3.805964</ele>
   <time>2014-03-08T14:08:33Z</time>
</trkpt>
<trkpt lat="53.475474" lon="10.002975">
   <ele>3.675550</ele>
   <time>2014-03-08T14:08:37Z</time>
</trkpt>
<trkpt lat="53.475467" lon="10.003120">
   <ele>3.583180</ele>
   <time>2014-03-08T14:08:40Z</time>
</trkpt>
<trkpt lat="53.475460" lon="10.003270">
   <ele>3.490157</ele>
   <time>2014-03-08T14:08:44Z</time>
</trkpt>
<trkpt lat="53.475437" lon="10.003358">
   <ele>3.491024</ele>
   <time>2014-03-08T14:09:25Z</time>
</trkpt>
<trkpt lat="53.475423" lon="10.003528">
   <ele>3.611010</ele>
   <time>2014-03-08T14:09:29Z</time>
</trkpt>
<trkpt lat="53.475435" lon="10.003618">
   <ele>3.656061</ele>
   <time>2014-03-08T14:09:38Z</time>
</trkpt>
<trkpt lat="53.475464" lon="10.003769">
   <ele>3.734078</ele>
   <time>2014-03-08T14:09:42Z</time>
</trkpt>
<trkpt lat="53.475475" lon="10.003997">
   <ele>3.884277</ele>
   <time>2014-03-08T14:09:46Z</time>
</trkpt>
<trkpt lat="53.475504" lon="10.004245">
   <ele>4.093504</ele>
   <time>2014-03-08T14:09:50Z</time>
</trkpt>
<trkpt lat="53.475522" lon="10.004407">
   <ele>4.288836</ele>
   <time>2014-03-08T14:09:53Z</time>
</trkpt>
<trkpt lat="53.475551" lon="10.004573">
   <ele>4.488090</ele>
   <time>2014-03-08T14:09:56Z</time>
</trkpt>
<trkpt lat="53.475592" lon="10.004779">
   <ele>4.735323</ele>
   <time>2014-03-08T14:10:00Z</time>
</trkpt>
<trkpt lat="53.475621" lon="10.004943">
   <ele>4.931459</ele>
   <time>2014-03-08T14:10:03Z</time>
</trkpt>
<trkpt lat="53.475647" lon="10.005108">
   <ele>5.000000</ele>
   <time>2014-03-08T14:10:06Z</time>
</trkpt>
<trkpt lat="53.475676" lon="10.005332">
   <ele>5.000000</ele>
   <time>2014-03-08T14:10:10Z</time>
</trkpt>
<trkpt lat="53.475693" lon="10.005473">
   <ele>5.000000</ele>
   <time>2014-03-08T14:10:13Z</time>
</trkpt>
<trkpt lat="53.475708" lon="10.005611">
   <ele>5.000000</ele>
   <time>2014-03-08T14:10:16Z</time>
</trkpt>
<trkpt lat="53.475725" lon="10.005751">
   <ele>5.000000</ele>
   <time>2014-03-08T14:10:19Z</time>
</trkpt>
<trkpt lat="53.475753" lon="10.005910">
   <ele>5.083386</ele>
   <time>2014-03-08T14:10:23Z</time>
</trkpt>
<trkpt lat="53.475797" lon="10.006076">
   <ele>5.278800</ele>
   <time>2014-03-08T14:10:27Z</time>
</trkpt>
<trkpt lat="53.475828" lon="10.006227">
   <ele>5.469601</ele>
   <time>2014-03-08T14:10:30Z</time>
</trkpt>
<trkpt lat="53.475869" lon="10.006478">
   <ele>5.688615</ele>
   <time>2014-03-08T14:10:34Z</time>
</trkpt>
<trkpt lat="53.475906" lon="10.006704">
   <ele>5.780268</ele>
   <time>2014-03-08T14:10:38Z</time>
</trkpt>
<trkpt lat="53.475934" lon="10.006927">
   <ele>5.447425</ele>
   <time>2014-03-08T14:10:42Z</time>
</trkpt>
<trkpt lat="53.475968" lon="10.007124">
   <ele>5.127443</ele>
   <time>2014-03-08T14:10:45Z</time>
</trkpt>
<trkpt lat="53.476013" lon="10.007383">
   <ele>4.708919</ele>
   <time>2014-03-08T14:10:49Z</time>
</trkpt>
<trkpt lat="53.476045" lon="10.007568">
   <ele>4.349448</ele>
   <time>2014-03-08T14:10:52Z</time>
</trkpt>
<trkpt lat="53.476070" lon="10.007748">
   <ele>3.920209</ele>
   <time>2014-03-08T14:10:55Z</time>
</trkpt>
<trkpt lat="53.476104" lon="10.007985">
   <ele>3.374696</ele>
   <time>2014-03-08T14:10:59Z</time>
</trkpt>
<trkpt lat="53.476130" lon="10.008159">
   <ele>2.988603</ele>
   <time>2014-03-08T14:11:03Z</time>
</trkpt>
<trkpt lat="53.476159" lon="10.008316">
   <ele>2.643176</ele>
   <time>2014-03-08T14:11:06Z</time>
</trkpt>
<trkpt lat="53.476202" lon="10.008489">
   <ele>2.453610</ele>
   <time>2014-03-08T14:11:09Z</time>
</trkpt>
<trkpt lat="53.476238" lon="10.008704">
   <ele>2.285850</ele>
   <time>2014-03-08T14:11:13Z</time>
</trkpt>
<trkpt lat="53.476266" lon="10.008872">
   <ele>2.169958</ele>
   <time>2014-03-08T14:11:16Z</time>
</trkpt>
<trkpt lat="53.476299" lon="10.009091">
   <ele>2.040189</ele>
   <time>2014-03-08T14:11:20Z</time>
</trkpt>
<trkpt lat="53.476325" lon="10.009259">
   <ele>2.000000</ele>
   <time>2014-03-08T14:11:23Z</time>
</trkpt>
<trkpt lat="53.476356" lon="10.009476">
   <ele>2.000000</ele>
   <time>2014-03-08T14:11:27Z</time>
</trkpt>
<trkpt lat="53.476404" lon="10.009698">
   <ele>2.000000</ele>
   <time>2014-03-08T14:11:31Z</time>
</trkpt>
<trkpt lat="53.476447" lon="10.009955">
   <ele>2.000000</ele>
   <time>2014-03-08T14:11:35Z</time>
</trkpt>
<trkpt lat="53.476405" lon="10.010180">
   <ele>1.784125</ele>
   <time>2014-03-08T14:11:39Z</time>
</trkpt>
<trkpt lat="53.476329" lon="10.010412">
   <ele>1.505510</ele>
   <time>2014-03-08T14:11:43Z</time>
</trkpt>
<trkpt lat="53.476273" lon="10.010564">
   <ele>1.322952</ele>
   <time>2014-03-08T14:11:46Z</time>
</trkpt>
<trkpt lat="53.476195" lon="10.010756">
   <ele>1.092417</ele>
   <time>2014-03-08T14:11:50Z</time>
</trkpt>
<trkpt lat="53.476111" lon="10.010936">
   <ele>1.247271</ele>
   <time>2014-03-08T14:11:54Z</time>
</trkpt>
<trkpt lat="53.476016" lon="10.011130">
   <ele>1.712164</ele>
   <time>2014-03-08T14:11:58Z</time>
</trkpt>
<trkpt lat="53.475923" lon="10.011331">
   <ele>2.194962</ele>
   <time>2014-03-08T14:12:02Z</time>
</trkpt>
<trkpt lat="53.475853" lon="10.011545">
   <ele>2.708538</ele>
   <time>2014-03-08T14:12:06Z</time>
</trkpt>
<trkpt lat="53.475770" lon="10.011691">
   <ele>2.670328</ele>
   <time>2014-03-08T14:12:09Z</time>
</trkpt>
<trkpt lat="53.475653" lon="10.011841">
   <ele>1.972885</ele>
   <time>2014-03-08T14:12:13Z</time>
</trkpt>
<trkpt lat="53.475575" lon="10.012030">
   <ele>1.461011</ele>
   <time>2014-03-08T14:12:17Z</time>
</trkpt>
<trkpt lat="53.475518" lon="10.012144">
   <ele>1.130915</ele>
   <time>2014-03-08T14:12:20Z</time>
</trkpt>
<trkpt lat="53.475466" lon="10.012236">
   <ele>0.855414</ele>
   <time>2014-03-08T14:12:24Z</time>
</trkpt>
<trkpt lat="53.475479" lon="10.012314">
   <ele>0.852873</ele>
   <time>2014-03-08T14:12:50Z</time>
</trkpt>
<trkpt lat="53.475428" lon="10.012322">
   <ele>0.648975</ele>
   <time>2014-03-08T14:13:14Z</time>
</trkpt>
<trkpt lat="53.475414" lon="10.012404">
   <ele>0.547372</ele>
   <time>2014-03-08T14:14:03Z</time>
</trkpt>
<trkpt lat="53.475431" lon="10.012485">
   <ele>0.562341</ele>
   <time>2014-03-08T14:14:06Z</time>
</trkpt>
<trkpt lat="53.475468" lon="10.012589">
   <ele>0.625644</ele>
   <time>2014-03-08T14:14:09Z</time>
</trkpt>
<trkpt lat="53.475523" lon="10.012705">
   <ele>0.727932</ele>
   <time>2014-03-08T14:14:12Z</time>
</trkpt>
<trkpt lat="53.475598" lon="10.012811">
   <ele>0.885220</ele>
   <time>2014-03-08T14:14:15Z</time>
</trkpt>
<trkpt lat="53.475642" lon="10.012983">
   <ele>0.864661</ele>
   <time>2014-03-08T14:14:19Z</time>
</trkpt>
<trkpt lat="53.475685" lon="10.013134">
   <ele>0.840110</ele>
   <time>2014-03-08T14:14:23Z</time>
</trkpt>
<trkpt lat="53.475753" lon="10.013230">
   <ele>0.919458</ele>
   <time>2014-03-08T14:14:26Z</time>
</trkpt>
<trkpt lat="53.475826" lon="10.013324">
   <ele>0.993194</ele>
   <time>2014-03-08T14:14:29Z</time>
</trkpt>
<trkpt lat="53.475906" lon="10.013406">
   <ele>0.841196</ele>
   <time>2014-03-08T14:14:32Z</time>
</trkpt>
<trkpt lat="53.475986" lon="10.013482">
   <ele>0.699409</ele>
   <time>2014-03-08T14:14:35Z</time>
</trkpt>
<trkpt lat="53.476071" lon="10.013590">
   <ele>0.604772</ele>
   <time>2014-03-08T14:14:39Z</time>
</trkpt>
<trkpt lat="53.476161" lon="10.013701">
   <ele>0.559937</ele>
   <time>2014-03-08T14:14:43Z</time>
</trkpt>
<trkpt lat="53.476224" lon="10.013784">
   <ele>0.568745</ele>
   <time>2014-03-08T14:14:46Z</time>
</trkpt>
<trkpt lat="53.476303" lon="10.013866">
   <ele>0.592948</ele>
   <time>2014-03-08T14:14:49Z</time>
</trkpt>
<trkpt lat="53.476424" lon="10.013992">
   <ele>0.702286</ele>
   <time>2014-03-08T14:14:53Z</time>
</trkpt>
<trkpt lat="53.476514" lon="10.014085">
   <ele>0.840233</ele>
   <time>2014-03-08T14:14:56Z</time>
</trkpt>
<trkpt lat="53.476577" lon="10.014190">
   <ele>1.870768</ele>
   <time>2014-03-08T14:14:59Z</time>
</trkpt>
<trkpt lat="53.476652" lon="10.014325">
   <ele>1.799394</ele>
   <time>2014-03-08T14:15:03Z</time>
</trkpt>
<trkpt lat="53.476714" lon="10.014425">
   <ele>2.416115</ele>
   <time>2014-03-08T14:15:06Z</time>
</trkpt>
<trkpt lat="53.476808" lon="10.014552">
   <ele>2.230815</ele>
   <time>2014-03-08T14:15:10Z</time>
</trkpt>
<trkpt lat="53.476882" lon="10.014654">
   <ele>2.131719</ele>
   <time>2014-03-08T14:15:13Z</time>
</trkpt>
<trkpt lat="53.476994" lon="10.014847">
   <ele>2.008977</ele>
   <time>2014-03-08T14:15:17Z</time>
</trkpt>
<trkpt lat="53.477129" lon="10.015182">
   <ele>1.987544</ele>
   <time>2014-03-08T14:15:21Z</time>
</trkpt>
<trkpt lat="53.477218" lon="10.015365">
   <ele>2.033480</ele>
   <time>2014-03-08T14:15:24Z</time>
</trkpt>
<trkpt lat="53.477331" lon="10.015641">
   <ele>1.980293</ele>
   <time>2014-03-08T14:15:28Z</time>
</trkpt>
<trkpt lat="53.477422" lon="10.015829">
   <ele>1.910851</ele>
   <time>2014-03-08T14:15:31Z</time>
</trkpt>
<trkpt lat="53.477544" lon="10.016066">
   <ele>1.839966</ele>
   <time>2014-03-08T14:15:35Z</time>
</trkpt>
<trkpt lat="53.477555" lon="10.016255">
   <ele>1.802429</ele>
   <time>2014-03-08T14:15:38Z</time>
</trkpt>
<trkpt lat="53.477658" lon="10.016460">
   <ele>1.432739</ele>
   <time>2014-03-08T14:15:42Z</time>
</trkpt>
<trkpt lat="53.477712" lon="10.016621">
   <ele>1.236816</ele>
   <time>2014-03-08T14:15:45Z</time>
</trkpt>
<trkpt lat="53.477757" lon="10.016780">
   <ele>-0.266827</ele>
   <time>2014-03-08T14:15:48Z</time>
</trkpt>
<trkpt lat="53.477807" lon="10.016937">
   <ele>-0.248899</ele>
   <time>2014-03-08T14:15:51Z</time>
</trkpt>
<trkpt lat="53.477878" lon="10.017147">
   <ele>-0.192225</ele>
   <time>2014-03-08T14:15:55Z</time>
</trkpt>
<trkpt lat="53.477957" lon="10.017338">
   <ele>-0.106428</ele>
   <time>2014-03-08T14:15:59Z</time>
</trkpt>
<trkpt lat="53.478002" lon="10.017474">
   <ele>-0.018874</ele>
   <time>2014-03-08T14:16:02Z</time>
</trkpt>
<trkpt lat="53.478066" lon="10.017673">
   <ele>1.933671</ele>
   <time>2014-03-08T14:16:06Z</time>
</trkpt>
<trkpt lat="53.478127" lon="10.017821">
   <ele>1.904827</ele>
   <time>2014-03-08T14:16:09Z</time>
</trkpt>
<trkpt lat="53.478270" lon="10.018021">
   <ele>1.952667</ele>
   <time>2014-03-08T14:16:13Z</time>
</trkpt>
<trkpt lat="53.478366" lon="10.018199">
   <ele>2.181250</ele>
   <time>2014-03-08T14:16:17Z</time>
</trkpt>
<trkpt lat="53.478453" lon="10.018403">
   <ele>2.143860</ele>
   <time>2014-03-08T14:16:21Z</time>
</trkpt>
<trkpt lat="53.478501" lon="10.018562">
   <ele>2.201050</ele>
   <time>2014-03-08T14:16:24Z</time>
</trkpt>
<trkpt lat="53.478581" lon="10.018764">
   <ele>2.297607</ele>
   <time>2014-03-08T14:16:28Z</time>
</trkpt>
<trkpt lat="53.478653" lon="10.018853">
   <ele>2.383118</ele>
   <time>2014-03-08T14:16:31Z</time>
</trkpt>
<trkpt lat="53.478700" lon="10.018857">
   <ele>2.439453</ele>
   <time>2014-03-08T14:16:37Z</time>
</trkpt>
<trkpt lat="53.478709" lon="10.018944">
   <ele>2.450500</ele>
   <time>2014-03-08T14:16:40Z</time>
</trkpt>
<trkpt lat="53.478695" lon="10.019121">
   <ele>2.434082</ele>
   <time>2014-03-08T14:16:44Z</time>
</trkpt>
<trkpt lat="53.478696" lon="10.019222">
   <ele>2.443835</ele>
   <time>2014-03-08T14:16:47Z</time>
</trkpt>
<trkpt lat="53.478705" lon="10.019313">
   <ele>2.464690</ele>
   <time>2014-03-08T14:16:50Z</time>
</trkpt>
<trkpt lat="53.478699" lon="10.019451">
   <ele>2.480682</ele>
   <time>2014-03-08T14:16:54Z</time>
</trkpt>
<trkpt lat="53.478716" lon="10.019609">
   <ele>2.502508</ele>
   <time>2014-03-08T14:16:58Z</time>
</trkpt>
<trkpt lat="53.478744" lon="10.019786">
   <ele>2.503264</ele>
   <time>2014-03-08T14:17:02Z</time>
</trkpt>
<trkpt lat="53.478779" lon="10.019932">
   <ele>2.470758</ele>
   <time>2014-03-08T14:17:05Z</time>
</trkpt>
<trkpt lat="53.478786" lon="10.020130">
   <ele>2.457336</ele>
   <time>2014-03-08T14:17:09Z</time>
</trkpt>
<trkpt lat="53.478783" lon="10.020289">
   <ele>2.459900</ele>
   <time>2014-03-08T14:17:12Z</time>
</trkpt>
<trkpt lat="53.478783" lon="10.020457">
   <ele>2.460938</ele>
   <time>2014-03-08T14:17:15Z</time>
</trkpt>
<trkpt lat="53.478769" lon="10.020724">
   <ele>2.477600</ele>
   <time>2014-03-08T14:17:19Z</time>
</trkpt>
<trkpt lat="53.478756" lon="10.020976">
   <ele>2.576445</ele>
   <time>2014-03-08T14:17:23Z</time>
</trkpt>
<trkpt lat="53.478742" lon="10.021149">
   <ele>2.702670</ele>
   <time>2014-03-08T14:17:26Z</time>
</trkpt>
<trkpt lat="53.478731" lon="10.021363">
   <ele>2.855544</ele>
   <time>2014-03-08T14:17:30Z</time>
</trkpt>
<trkpt lat="53.478715" lon="10.021590">
   <ele>3.033649</ele>
   <time>2014-03-08T14:17:34Z</time>
</trkpt>
<trkpt lat="53.478701" lon="10.021763">
   <ele>3.168779</ele>
   <time>2014-03-08T14:17:37Z</time>
</trkpt>
<trkpt lat="53.478688" lon="10.021892">
   <ele>3.262685</ele>
   <time>2014-03-08T14:17:40Z</time>
</trkpt>
<trkpt lat="53.478617" lon="10.021990">
   <ele>3.450562</ele>
   <time>2014-03-08T14:17:44Z</time>
</trkpt>
<trkpt lat="53.478537" lon="10.021989">
   <ele>3.605781</ele>
   <time>2014-03-08T14:17:47Z</time>
</trkpt>
<trkpt lat="53.478448" lon="10.021931">
   <ele>3.767696</ele>
   <time>2014-03-08T14:17:50Z</time>
</trkpt>
<trkpt lat="53.478270" lon="10.021811">
   <ele>4.000000</ele>
   <time>2014-03-08T14:17:54Z</time>
</trkpt>
<trkpt lat="53.478083" lon="10.021769">
   <ele>4.000000</ele>
   <time>2014-03-08T14:17:58Z</time>
</trkpt>
<trkpt lat="53.477949" lon="10.021799">
   <ele>4.000000</ele>
   <time>2014-03-08T14:18:01Z</time>
</trkpt>
<trkpt lat="53.477825" lon="10.021784">
   <ele>4.000000</ele>
   <time>2014-03-08T14:18:04Z</time>
</trkpt>
<trkpt lat="53.477693" lon="10.021777">
   <ele>4.000000</ele>
   <time>2014-03-08T14:18:07Z</time>
</trkpt>
<trkpt lat="53.477514" lon="10.021785">
   <ele>4.000000</ele>
   <time>2014-03-08T14:18:11Z</time>
</trkpt>
<trkpt lat="53.477335" lon="10.021804">
   <ele>4.000000</ele>
   <time>2014-03-08T14:18:15Z</time>
</trkpt>
<trkpt lat="53.477189" lon="10.021811">
   <ele>4.000000</ele>
   <time>2014-03-08T14:18:18Z</time>
</trkpt>
<trkpt lat="53.477066" lon="10.021833">
   <ele>4.000000</ele>
   <time>2014-03-08T14:18:21Z</time>
</trkpt>
<trkpt lat="53.476943" lon="10.021859">
   <ele>4.000000</ele>
   <time>2014-03-08T14:18:24Z</time>
</trkpt>
<trkpt lat="53.476817" lon="10.021895">
   <ele>4.000000</ele>
   <time>2014-03-08T14:18:27Z</time>
</trkpt>
<trkpt lat="53.476662" lon="10.021931">
   <ele>3.982971</ele>
   <time>2014-03-08T14:18:31Z</time>
</trkpt>
<trkpt lat="53.476505" lon="10.021952">
   <ele>3.416626</ele>
   <time>2014-03-08T14:18:35Z</time>
</trkpt>
<trkpt lat="53.476382" lon="10.021965">
   <ele>2.974060</ele>
   <time>2014-03-08T14:18:38Z</time>
</trkpt>
<trkpt lat="53.476221" lon="10.021960">
   <ele>2.395813</ele>
   <time>2014-03-08T14:18:42Z</time>
</trkpt>
<trkpt lat="53.476103" lon="10.021954">
   <ele>1.972473</ele>
   <time>2014-03-08T14:18:45Z</time>
</trkpt>
<trkpt lat="53.475979" lon="10.022041">
   <ele>1.523315</ele>
   <time>2014-03-08T14:18:49Z</time>
</trkpt>
<trkpt lat="53.475913" lon="10.022241">
   <ele>1.287659</ele>
   <time>2014-03-08T14:18:53Z</time>
</trkpt>
<trkpt lat="53.475890" lon="10.022484">
   <ele>1.202332</ele>
   <time>2014-03-08T14:18:57Z</time>
</trkpt>
<trkpt lat="53.475900" lon="10.022728">
   <ele>1.994432</ele>
   <time>2014-03-08T14:19:01Z</time>
</trkpt>
<trkpt lat="53.475962" lon="10.022998">
   <ele>2.979481</ele>
   <time>2014-03-08T14:19:05Z</time>
</trkpt>
<trkpt lat="53.476052" lon="10.023224">
   <ele>3.710080</ele>
   <time>2014-03-08T14:19:09Z</time>
</trkpt>
<trkpt lat="53.476121" lon="10.023359">
   <ele>3.940658</ele>
   <time>2014-03-08T14:19:12Z</time>
</trkpt>
<trkpt lat="53.476217" lon="10.023450">
   <ele>3.772606</ele>
   <time>2014-03-08T14:19:16Z</time>
</trkpt>
<trkpt lat="53.476306" lon="10.023460">
   <ele>3.803375</ele>
   <time>2014-03-08T14:19:19Z</time>
</trkpt>
<trkpt lat="53.476445" lon="10.023382">
   <ele>3.953589</ele>
   <time>2014-03-08T14:19:23Z</time>
</trkpt>
<trkpt lat="53.476597" lon="10.023283">
   <ele>3.984896</ele>
   <time>2014-03-08T14:19:27Z</time>
</trkpt>
<trkpt lat="53.476752" lon="10.023208">
   <ele>4.086916</ele>
   <time>2014-03-08T14:19:31Z</time>
</trkpt>
<trkpt lat="53.476861" lon="10.023190">
   <ele>4.193466</ele>
   <time>2014-03-08T14:19:34Z</time>
</trkpt>
<trkpt lat="53.477010" lon="10.023151">
   <ele>4.321291</ele>
   <time>2014-03-08T14:19:38Z</time>
</trkpt>
<trkpt lat="53.477162" lon="10.023145">
   <ele>4.460288</ele>
   <time>2014-03-08T14:19:42Z</time>
</trkpt>
<trkpt lat="53.477301" lon="10.023135">
   <ele>4.579952</ele>
   <time>2014-03-08T14:19:46Z</time>
</trkpt>
<trkpt lat="53.477455" lon="10.023138">
   <ele>4.724459</ele>
   <time>2014-03-08T14:19:50Z</time>
</trkpt>
<trkpt lat="53.477572" lon="10.023109">
   <ele>4.667481</ele>
   <time>2014-03-08T14:19:53Z</time>
</trkpt>
<trkpt lat="53.477726" lon="10.023093">
   <ele>4.518211</ele>
   <time>2014-03-08T14:19:57Z</time>
</trkpt>
<trkpt lat="53.477870" lon="10.023085">
   <ele>4.390164</ele>
   <time>2014-03-08T14:20:01Z</time>
</trkpt>
<trkpt lat="53.477970" lon="10.023064">
   <ele>4.294634</ele>
   <time>2014-03-08T14:20:05Z</time>
</trkpt>
<trkpt lat="53.478040" lon="10.023046">
   <ele>4.230349</ele>
   <time>2014-03-08T14:20:08Z</time>
</trkpt>
<trkpt lat="53.478146" lon="10.023080">
   <ele>4.156507</ele>
   <time>2014-03-08T14:20:12Z</time>
</trkpt>
<trkpt lat="53.478215" lon="10.023247">
   <ele>4.127513</ele>
   <time>2014-03-08T14:20:16Z</time>
</trkpt>
<trkpt lat="53.478222" lon="10.023447">
   <ele>4.115024</ele>
   <time>2014-03-08T14:20:20Z</time>
</trkpt>
<trkpt lat="53.478241" lon="10.023643">
   <ele>4.069800</ele>
   <time>2014-03-08T14:20:24Z</time>
</trkpt>
<trkpt lat="53.478272" lon="10.023857">
   <ele>4.027128</ele>
   <time>2014-03-08T14:20:28Z</time>
</trkpt>
<trkpt lat="53.478294" lon="10.024016">
   <ele>4.008610</ele>
   <time>2014-03-08T14:20:31Z</time>
</trkpt>
<trkpt lat="53.478314" lon="10.024237">
   <ele>3.913805</ele>
   <time>2014-03-08T14:20:35Z</time>
</trkpt>
<trkpt lat="53.478326" lon="10.024413">
   <ele>3.701369</ele>
   <time>2014-03-08T14:20:38Z</time>
</trkpt>
<trkpt lat="53.478353" lon="10.024646">
   <ele>3.513824</ele>
   <time>2014-03-08T14:20:42Z</time>
</trkpt>
<trkpt lat="53.478381" lon="10.024811">
   <ele>3.473494</ele>
   <time>2014-03-08T14:20:45Z</time>
</trkpt>
<trkpt lat="53.478404" lon="10.025047">
   <ele>3.419672</ele>
   <time>2014-03-08T14:20:49Z</time>
</trkpt>
<trkpt lat="53.478427" lon="10.025291">
   <ele>3.520359</ele>
   <time>2014-03-08T14:20:53Z</time>
</trkpt>
<trkpt lat="53.478425" lon="10.025508">
   <ele>3.481243</ele>
   <time>2014-03-08T14:20:57Z</time>
</trkpt>
<trkpt lat="53.478430" lon="10.025696">
   <ele>3.483479</ele>
   <time>2014-03-08T14:21:01Z</time>
</trkpt>
<trkpt lat="53.478428" lon="10.025776">
   <ele>3.461730</ele>
   <time>2014-03-08T14:21:05Z</time>
</trkpt>
<trkpt lat="53.478397" lon="10.025676">
   <ele>3.318067</ele>
   <time>2014-03-08T14:21:23Z</time>
</trkpt>
<trkpt lat="53.478397" lon="10.025756">
   <ele>3.311515</ele>
   <time>2014-03-08T14:22:17Z</time>
</trkpt>
<trkpt lat="53.478365" lon="10.025823">
   <ele>3.152814</ele>
   <time>2014-03-08T14:22:23Z</time>
</trkpt>
<trkpt lat="53.478310" lon="10.025870">
   <ele>2.929338</ele>
   <time>2014-03-08T14:22:27Z</time>
</trkpt>
<trkpt lat="53.478276" lon="10.025924">
   <ele>2.830253</ele>
   <time>2014-03-08T14:22:31Z</time>
</trkpt>
<trkpt lat="53.478239" lon="10.025975">
   <ele>2.736670</ele>
   <time>2014-03-08T14:22:36Z</time>
</trkpt>
<trkpt lat="53.478259" lon="10.026054">
   <ele>2.669861</ele>
   <time>2014-03-08T14:22:50Z</time>
</trkpt>
<trkpt lat="53.478273" lon="10.025967">
   <ele>2.778156</ele>
   <time>2014-03-08T14:23:33Z</time>
</trkpt>
<trkpt lat="53.478314" lon="10.025932">
   <ele>2.860895</ele>
   <time>2014-03-08T14:23:46Z</time>
</trkpt>
<trkpt lat="53.478347" lon="10.025875">
   <ele>3.015762</ele>
   <time>2014-03-08T14:23:50Z</time>
</trkpt>
<trkpt lat="53.478380" lon="10.025802">
   <ele>3.228423</ele>
   <time>2014-03-08T14:23:54Z</time>
</trkpt>
<trkpt lat="53.478387" lon="10.025709">
   <ele>3.266140</ele>
   <time>2014-03-08T14:23:59Z</time>
</trkpt>
<trkpt lat="53.478367" lon="10.025638">
   <ele>3.170819</ele>
   <time>2014-03-08T14:24:03Z</time>
</trkpt>
<trkpt lat="53.478398" lon="10.025699">
   <ele>3.322324</ele>
   <time>2014-03-08T14:24:17Z</time>
</trkpt>
<trkpt lat="53.478436" lon="10.025749">
   <ele>3.505661</ele>
   <time>2014-03-08T14:24:54Z</time>
</trkpt>
<trkpt lat="53.478450" lon="10.025854">
   <ele>3.533484</ele>
   <time>2014-03-08T14:24:57Z</time>
</trkpt>
<trkpt lat="53.478453" lon="10.025989">
   <ele>3.388994</ele>
   <time>2014-03-08T14:25:00Z</time>
</trkpt>
<trkpt lat="53.478457" lon="10.026198">
   <ele>3.154915</ele>
   <time>2014-03-08T14:25:04Z</time>
</trkpt>
<trkpt lat="53.478486" lon="10.026466">
   <ele>2.974968</ele>
   <time>2014-03-08T14:25:08Z</time>
</trkpt>
<trkpt lat="53.478503" lon="10.026656">
   <ele>2.828718</ele>
   <time>2014-03-08T14:25:11Z</time>
</trkpt>
<trkpt lat="53.478514" lon="10.026819">
   <ele>2.826965</ele>
   <time>2014-03-08T14:25:14Z</time>
</trkpt>
<trkpt lat="53.478519" lon="10.027032">
   <ele>2.793502</ele>
   <time>2014-03-08T14:25:18Z</time>
</trkpt>
<trkpt lat="53.478531" lon="10.027228">
   <ele>2.787359</ele>
   <time>2014-03-08T14:25:22Z</time>
</trkpt>
<trkpt lat="53.478536" lon="10.027389">
   <ele>2.762754</ele>
   <time>2014-03-08T14:25:25Z</time>
</trkpt>
<trkpt lat="53.478546" lon="10.027605">
   <ele>2.637474</ele>
   <time>2014-03-08T14:25:29Z</time>
</trkpt>
<trkpt lat="53.478552" lon="10.027816">
   <ele>2.407715</ele>
   <time>2014-03-08T14:25:33Z</time>
</trkpt>
<trkpt lat="53.478547" lon="10.027978">
   <ele>2.196774</ele>
   <time>2014-03-08T14:25:36Z</time>
</trkpt>
<trkpt lat="53.478547" lon="10.028207">
   <ele>1.918850</ele>
   <time>2014-03-08T14:25:40Z</time>
</trkpt>
<trkpt lat="53.478540" lon="10.028424">
   <ele>1.689427</ele>
   <time>2014-03-08T14:25:44Z</time>
</trkpt>
<trkpt lat="53.478532" lon="10.028688">
   <ele>1.513488</ele>
   <time>2014-03-08T14:25:47Z</time>
</trkpt>
<trkpt lat="53.478532" lon="10.028887">
   <ele>1.397895</ele>
   <time>2014-03-08T14:25:51Z</time>
</trkpt>
<trkpt lat="53.478536" lon="10.029040">
   <ele>1.317169</ele>
   <time>2014-03-08T14:25:54Z</time>
</trkpt>
<trkpt lat="53.478534" lon="10.029206">
   <ele>1.240906</ele>
   <time>2014-03-08T14:25:57Z</time>
</trkpt>
<trkpt lat="53.478530" lon="10.029427">
   <ele>1.236145</ele>
   <time>2014-03-08T14:26:01Z</time>
</trkpt>
<trkpt lat="53.478528" lon="10.029657">
   <ele>1.233032</ele>
   <time>2014-03-08T14:26:05Z</time>
</trkpt>
<trkpt lat="53.478524" lon="10.029831">
   <ele>1.228333</ele>
   <time>2014-03-08T14:26:08Z</time>
</trkpt>
<trkpt lat="53.478516" lon="10.030072">
   <ele>1.000000</ele>
   <time>2014-03-08T14:26:12Z</time>
</trkpt>
<trkpt lat="53.478511" lon="10.030260">
   <ele>1.000000</ele>
   <time>2014-03-08T14:26:15Z</time>
</trkpt>
<trkpt lat="53.478498" lon="10.030504">
   <ele>1.000000</ele>
   <time>2014-03-08T14:26:19Z</time>
</trkpt>
<trkpt lat="53.478484" lon="10.030687">
   <ele>1.000000</ele>
   <time>2014-03-08T14:26:22Z</time>
</trkpt>
<trkpt lat="53.478471" lon="10.030924">
   <ele>1.000000</ele>
   <time>2014-03-08T14:26:26Z</time>
</trkpt>
<trkpt lat="53.478435" lon="10.031140">
   <ele>1.000000</ele>
   <time>2014-03-08T14:26:30Z</time>
</trkpt>
<trkpt lat="53.478408" lon="10.031368">
   <ele>1.000000</ele>
   <time>2014-03-08T14:26:34Z</time>
</trkpt>
<trkpt lat="53.478391" lon="10.031534">
   <ele>1.000000</ele>
   <time>2014-03-08T14:26:37Z</time>
</trkpt>
<trkpt lat="53.478366" lon="10.031706">
   <ele>1.000000</ele>
   <time>2014-03-08T14:26:40Z</time>
</trkpt>
<trkpt lat="53.478336" lon="10.031939">
   <ele>1.000000</ele>
   <time>2014-03-08T14:26:44Z</time>
</trkpt>
<trkpt lat="53.478306" lon="10.032118">
   <ele>1.000000</ele>
   <time>2014-03-08T14:26:47Z</time>
</trkpt>
<trkpt lat="53.478261" lon="10.032346">
   <ele>1.000000</ele>
   <time>2014-03-08T14:26:51Z</time>
</trkpt>
<trkpt lat="53.478217" lon="10.032519">
   <ele>1.019726</ele>
   <time>2014-03-08T14:26:54Z</time>
</trkpt>
<trkpt lat="53.478181" lon="10.032687">
   <ele>1.183430</ele>
   <time>2014-03-08T14:26:57Z</time>
</trkpt>
<trkpt lat="53.478130" lon="10.032903">
   <ele>1.365227</ele>
   <time>2014-03-08T14:27:01Z</time>
</trkpt>
<trkpt lat="53.478081" lon="10.033124">
   <ele>1.521454</ele>
   <time>2014-03-08T14:27:05Z</time>
</trkpt>
<trkpt lat="53.478039" lon="10.033291">
   <ele>1.614231</ele>
   <time>2014-03-08T14:27:08Z</time>
</trkpt>
<trkpt lat="53.477983" lon="10.033515">
   <ele>1.579712</ele>
   <time>2014-03-08T14:27:12Z</time>
</trkpt>
<trkpt lat="53.477937" lon="10.033672">
   <ele>1.524353</ele>
   <time>2014-03-08T14:27:15Z</time>
</trkpt>
<trkpt lat="53.477880" lon="10.033851">
   <ele>1.455566</ele>
   <time>2014-03-08T14:27:19Z</time>
</trkpt>
<trkpt lat="53.477842" lon="10.034064">
   <ele>1.410889</ele>
   <time>2014-03-08T14:27:23Z</time>
</trkpt>
<trkpt lat="53.477798" lon="10.034205">
   <ele>1.386893</ele>
   <time>2014-03-08T14:27:26Z</time>
</trkpt>
<trkpt lat="53.477735" lon="10.034430">
   <ele>1.509012</ele>
   <time>2014-03-08T14:27:30Z</time>
</trkpt>
<trkpt lat="53.477694" lon="10.034593">
   <ele>1.625717</ele>
   <time>2014-03-08T14:27:33Z</time>
</trkpt>
<trkpt lat="53.477652" lon="10.034767">
   <ele>1.771330</ele>
   <time>2014-03-08T14:27:36Z</time>
</trkpt>
<trkpt lat="53.477609" lon="10.034929">
   <ele>1.925958</ele>
   <time>2014-03-08T14:27:39Z</time>
</trkpt>
<trkpt lat="53.477545" lon="10.035157">
   <ele>2.000000</ele>
   <time>2014-03-08T14:27:43Z</time>
</trkpt>
<trkpt lat="53.477497" lon="10.035321">
   <ele>1.996887</ele>
   <time>2014-03-08T14:27:46Z</time>
</trkpt>
<trkpt lat="53.477440" lon="10.035528">
   <ele>1.928528</ele>
   <time>2014-03-08T14:27:50Z</time>
</trkpt>
<trkpt lat="53.477392" lon="10.035717">
   <ele>1.870483</ele>
   <time>2014-03-08T14:27:54Z</time>
</trkpt>
<trkpt lat="53.477358" lon="10.035873">
   <ele>1.830078</ele>
   <time>2014-03-08T14:27:57Z</time>
</trkpt>
<trkpt lat="53.477316" lon="10.036028">
   <ele>1.779541</ele>
   <time>2014-03-08T14:28:00Z</time>
</trkpt>
<trkpt lat="53.477263" lon="10.036179">
   <ele>1.716003</ele>
   <time>2014-03-08T14:28:03Z</time>
</trkpt>
<trkpt lat="53.477212" lon="10.036368">
   <ele>1.654480</ele>
   <time>2014-03-08T14:28:07Z</time>
</trkpt>
<trkpt lat="53.477140" lon="10.036571">
   <ele>1.568420</ele>
   <time>2014-03-08T14:28:11Z</time>
</trkpt>
<trkpt lat="53.477088" lon="10.036735">
   <ele>1.587521</ele>
   <time>2014-03-08T14:28:14Z</time>
</trkpt>
<trkpt lat="53.477022" lon="10.036952">
   <ele>1.768177</ele>
   <time>2014-03-08T14:28:18Z</time>
</trkpt>
<trkpt lat="53.476962" lon="10.037109">
   <ele>1.885014</ele>
   <time>2014-03-08T14:28:21Z</time>
</trkpt>
<trkpt lat="53.476878" lon="10.037304">
   <ele>2.018871</ele>
   <time>2014-03-08T14:28:25Z</time>
</trkpt>
<trkpt lat="53.476815" lon="10.037447">
   <ele>2.114132</ele>
   <time>2014-03-08T14:28:28Z</time>
</trkpt>
<trkpt lat="53.476725" lon="10.037628">
   <ele>2.223949</ele>
   <time>2014-03-08T14:28:32Z</time>
</trkpt>
<trkpt lat="53.476652" lon="10.037744">
   <ele>2.275650</ele>
   <time>2014-03-08T14:28:35Z</time>
</trkpt>
<trkpt lat="53.476583" lon="10.037846">
   <ele>2.314625</ele>
   <time>2014-03-08T14:28:38Z</time>
</trkpt>
<trkpt lat="53.476487" lon="10.037968">
   <ele>2.346630</ele>
   <time>2014-03-08T14:28:42Z</time>
</trkpt>
<trkpt lat="53.476386" lon="10.038096">
   <ele>2.377995</ele>
   <time>2014-03-08T14:28:46Z</time>
</trkpt>
<trkpt lat="53.476305" lon="10.038202">
   <ele>2.408756</ele>
   <time>2014-03-08T14:28:49Z</time>
</trkpt>
<trkpt lat="53.476206" lon="10.038333">
   <ele>2.446316</ele>
   <time>2014-03-08T14:28:53Z</time>
</trkpt>
<trkpt lat="53.476128" lon="10.038441">
   <ele>2.353577</ele>
   <time>2014-03-08T14:28:56Z</time>
</trkpt>
<trkpt lat="53.476022" lon="10.038572">
   <ele>2.226257</ele>
   <time>2014-03-08T14:29:00Z</time>
</trkpt>
<trkpt lat="53.475918" lon="10.038688">
   <ele>2.101685</ele>
   <time>2014-03-08T14:29:04Z</time>
</trkpt>
<trkpt lat="53.475827" lon="10.038818">
   <ele>1.992188</ele>
   <time>2014-03-08T14:29:08Z</time>
</trkpt>
<trkpt lat="53.475733" lon="10.038955">
   <ele>1.879333</ele>
   <time>2014-03-08T14:29:12Z</time>
</trkpt>
<trkpt lat="53.475624" lon="10.039102">
   <ele>1.748230</ele>
   <time>2014-03-08T14:29:16Z</time>
</trkpt>
<trkpt lat="53.475539" lon="10.039206">
   <ele>1.677901</ele>
   <time>2014-03-08T14:29:19Z</time>
</trkpt>
<trkpt lat="53.475463" lon="10.039315">
   <ele>1.654387</ele>
   <time>2014-03-08T14:29:22Z</time>
</trkpt>
<trkpt lat="53.475368" lon="10.039459">
   <ele>1.595787</ele>
   <time>2014-03-08T14:29:26Z</time>
</trkpt>
<trkpt lat="53.475300" lon="10.039574">
   <ele>1.535716</ele>
   <time>2014-03-08T14:29:29Z</time>
</trkpt>
<trkpt lat="53.475230" lon="10.039758">
   <ele>1.471426</ele>
   <time>2014-03-08T14:29:33Z</time>
</trkpt>
<trkpt lat="53.475185" lon="10.039898">
   <ele>1.417424</ele>
   <time>2014-03-08T14:29:36Z</time>
</trkpt>
<trkpt lat="53.475133" lon="10.040040">
   <ele>1.310527</ele>
   <time>2014-03-08T14:29:39Z</time>
</trkpt>
<trkpt lat="53.475061" lon="10.040234">
   <ele>1.125614</ele>
   <time>2014-03-08T14:29:43Z</time>
</trkpt>
<trkpt lat="53.475000" lon="10.040356">
   <ele>1.000864</ele>
   <time>2014-03-08T14:29:46Z</time>
</trkpt>
<trkpt lat="53.474924" lon="10.040515">
   <ele>1.000000</ele>
   <time>2014-03-08T14:29:50Z</time>
</trkpt>
<trkpt lat="53.474850" lon="10.040687">
   <ele>1.000000</ele>
   <time>2014-03-08T14:29:54Z</time>
</trkpt>
<trkpt lat="53.474771" lon="10.040855">
   <ele>1.293613</ele>
   <time>2014-03-08T14:29:58Z</time>
</trkpt>
<trkpt lat="53.474707" lon="10.040979">
   <ele>1.464743</ele>
   <time>2014-03-08T14:30:01Z</time>
</trkpt>
<trkpt lat="53.474624" lon="10.041169">
   <ele>1.672180</ele>
   <time>2014-03-08T14:30:05Z</time>
</trkpt>
<trkpt lat="53.474546" lon="10.041358">
   <ele>1.831085</ele>
   <time>2014-03-08T14:30:09Z</time>
</trkpt>
<trkpt lat="53.474464" lon="10.041549">
   <ele>1.949723</ele>
   <time>2014-03-08T14:30:13Z</time>
</trkpt>
<trkpt lat="53.474432" lon="10.041685">
   <ele>2.000000</ele>
   <time>2014-03-08T14:30:16Z</time>
</trkpt>
<trkpt lat="53.474469" lon="10.041611">
   <ele>1.975809</ele>
   <time>2014-03-08T14:30:21Z</time>
</trkpt>
<trkpt lat="53.474527" lon="10.041482">
   <ele>1.904311</ele>
   <time>2014-03-08T14:30:25Z</time>
</trkpt>
<trkpt lat="53.474590" lon="10.041418">
   <ele>1.848026</ele>
   <time>2014-03-08T14:30:28Z</time>
</trkpt>
<trkpt lat="53.474645" lon="10.041348">
   <ele>1.780560</ele>
   <time>2014-03-08T14:30:31Z</time>
</trkpt>
<trkpt lat="53.474633" lon="10.041275">
   <ele>1.736830</ele>
   <time>2014-03-08T14:30:35Z</time>
</trkpt>
<trkpt lat="53.474579" lon="10.041298">
   <ele>1.780988</ele>
   <time>2014-03-08T14:30:41Z</time>
</trkpt>
<trkpt lat="53.474611" lon="10.041351">
   <ele>1.797820</ele>
   <time>2014-03-08T14:30:54Z</time>
</trkpt>
<trkpt lat="53.474637" lon="10.041414">
   <ele>1.829025</ele>
   <time>2014-03-08T14:31:14Z</time>
</trkpt>
<trkpt lat="53.474686" lon="10.041370">
   <ele>1.778247</ele>
   <time>2014-03-08T14:31:31Z</time>
</trkpt>
<trkpt lat="53.474652" lon="10.041430">
   <ele>1.834246</ele>
   <time>2014-03-08T14:37:13Z</time>
</trkpt>
<trkpt lat="53.474597" lon="10.041479">
   <ele>1.883509</ele>
   <time>2014-03-08T14:38:35Z</time>
</trkpt>
<trkpt lat="53.474495" lon="10.041582">
   <ele>1.959919</ele>
   <time>2014-03-08T14:38:38Z</time>
</trkpt>
<trkpt lat="53.474371" lon="10.041788">
   <ele>2.000000</ele>
   <time>2014-03-08T14:38:41Z</time>
</trkpt>
<trkpt lat="53.474245" lon="10.042001">
   <ele>2.000000</ele>
   <time>2014-03-08T14:38:45Z</time>
</trkpt>
<trkpt lat="53.474168" lon="10.042195">
   <ele>2.000000</ele>
   <time>2014-03-08T14:38:49Z</time>
</trkpt>
<trkpt lat="53.474117" lon="10.042316">
   <ele>1.940430</ele>
   <time>2014-03-08T14:38:52Z</time>
</trkpt>
<trkpt lat="53.474051" lon="10.042497">
   <ele>1.861389</ele>
   <time>2014-03-08T14:38:56Z</time>
</trkpt>
<trkpt lat="53.474001" lon="10.042611">
   <ele>2.040405</ele>
   <time>2014-03-08T14:38:59Z</time>
</trkpt>
<trkpt lat="53.473956" lon="10.042737">
   <ele>2.243441</ele>
   <time>2014-03-08T14:39:02Z</time>
</trkpt>
<trkpt lat="53.473871" lon="10.042925">
   <ele>2.484005</ele>
   <time>2014-03-08T14:39:06Z</time>
</trkpt>
<trkpt lat="53.473806" lon="10.043062">
   <ele>2.623994</ele>
   <time>2014-03-08T14:39:09Z</time>
</trkpt>
<trkpt lat="53.473729" lon="10.043201">
   <ele>2.714738</ele>
   <time>2014-03-08T14:39:13Z</time>
</trkpt>
<trkpt lat="53.473681" lon="10.043238">
   <ele>2.673041</ele>
   <time>2014-03-08T14:39:16Z</time>
</trkpt>
<trkpt lat="53.473629" lon="10.043292">
   <ele>2.642135</ele>
   <time>2014-03-08T14:39:19Z</time>
</trkpt>
<trkpt lat="53.473583" lon="10.043310">
   <ele>2.562762</ele>
   <time>2014-03-08T14:39:23Z</time>
</trkpt>
<trkpt lat="53.473537" lon="10.043305">
   <ele>2.447697</ele>
   <time>2014-03-08T14:39:32Z</time>
</trkpt>
<trkpt lat="53.473497" lon="10.043266">
   <ele>2.296089</ele>
   <time>2014-03-08T14:39:49Z</time>
</trkpt>
<trkpt lat="53.473450" lon="10.043284">
   <ele>2.211903</ele>
   <time>2014-03-08T14:40:00Z</time>
</trkpt>
<trkpt lat="53.473393" lon="10.043248">
   <ele>2.033664</ele>
   <time>2014-03-08T14:40:06Z</time>
</trkpt>
<trkpt lat="53.473340" lon="10.043247">
   <ele>1.909906</ele>
   <time>2014-03-08T14:40:11Z</time>
</trkpt>
<trkpt lat="53.473335" lon="10.043153">
   <ele>1.787171</ele>
   <time>2014-03-08T14:40:31Z</time>
</trkpt>
<trkpt lat="53.473622" lon="10.043312">
   <ele>2.659747</ele>
   <time>2014-03-08T14:54:34Z</time>
</trkpt>
<trkpt lat="53.473636" lon="10.043386">
   <ele>2.725586</ele>
   <time>2014-03-08T14:54:53Z</time>
</trkpt>
<trkpt lat="53.473638" lon="10.043510">
   <ele>2.730225</ele>
   <time>2014-03-08T14:54:57Z</time>
</trkpt>
<trkpt lat="53.473584" lon="10.043653">
   <ele>2.601440</ele>
   <time>2014-03-08T14:55:01Z</time>
</trkpt>
<trkpt lat="53.473534" lon="10.043785">
   <ele>2.481934</ele>
   <time>2014-03-08T14:55:04Z</time>
</trkpt>
<trkpt lat="53.473470" lon="10.043952">
   <ele>2.327881</ele>
   <time>2014-03-08T14:55:07Z</time>
</trkpt>
<trkpt lat="53.473412" lon="10.044099">
   <ele>2.188843</ele>
   <time>2014-03-08T14:55:10Z</time>
</trkpt>
<trkpt lat="53.473327" lon="10.044238">
   <ele>2.078655</ele>
   <time>2014-03-08T14:55:14Z</time>
</trkpt>
<trkpt lat="53.473264" lon="10.044344">
   <ele>2.129707</ele>
   <time>2014-03-08T14:55:17Z</time>
</trkpt>
<trkpt lat="53.473183" lon="10.044489">
   <ele>2.205757</ele>
   <time>2014-03-08T14:55:21Z</time>
</trkpt>
<trkpt lat="53.473126" lon="10.044592">
   <ele>2.261723</ele>
   <time>2014-03-08T14:55:24Z</time>
</trkpt>
<trkpt lat="53.473072" lon="10.044727">
   <ele>2.358459</ele>
   <time>2014-03-08T14:55:28Z</time>
</trkpt>
<trkpt lat="53.473036" lon="10.044845">
   <ele>2.456787</ele>
   <time>2014-03-08T14:55:31Z</time>
</trkpt>
<trkpt lat="53.472995" lon="10.044967">
   <ele>2.555012</ele>
   <time>2014-03-08T14:55:34Z</time>
</trkpt>
<trkpt lat="53.472944" lon="10.045136">
   <ele>2.446534</ele>
   <time>2014-03-08T14:55:38Z</time>
</trkpt>
<trkpt lat="53.472902" lon="10.045265">
   <ele>2.328992</ele>
   <time>2014-03-08T14:55:41Z</time>
</trkpt>
<trkpt lat="53.472839" lon="10.045435">
   <ele>2.194546</ele>
   <time>2014-03-08T14:55:45Z</time>
</trkpt>
<trkpt lat="53.472752" lon="10.045588">
   <ele>2.089209</ele>
   <time>2014-03-08T14:55:49Z</time>
</trkpt>
<trkpt lat="53.472684" lon="10.045702">
   <ele>2.034606</ele>
   <time>2014-03-08T14:55:52Z</time>
</trkpt>
<trkpt lat="53.472592" lon="10.045861">
   <ele>1.966312</ele>
   <time>2014-03-08T14:55:56Z</time>
</trkpt>
<trkpt lat="53.472510" lon="10.046033">
   <ele>1.760620</ele>
   <time>2014-03-08T14:56:00Z</time>
</trkpt>
<trkpt lat="53.472438" lon="10.046210">
   <ele>1.581721</ele>
   <time>2014-03-08T14:56:04Z</time>
</trkpt>
<trkpt lat="53.472349" lon="10.046376">
   <ele>1.466311</ele>
   <time>2014-03-08T14:56:08Z</time>
</trkpt>
<trkpt lat="53.472271" lon="10.046550">
   <ele>1.376316</ele>
   <time>2014-03-08T14:56:12Z</time>
</trkpt>
<trkpt lat="53.472207" lon="10.046717">
   <ele>1.000000</ele>
   <time>2014-03-08T14:56:16Z</time>
</trkpt>
<trkpt lat="53.472159" lon="10.046831">
   <ele>1.000000</ele>
   <time>2014-03-08T14:56:19Z</time>
</trkpt>
<trkpt lat="53.472077" lon="10.047001">
   <ele>1.000000</ele>
   <time>2014-03-08T14:56:23Z</time>
</trkpt>
<trkpt lat="53.472002" lon="10.047164">
   <ele>1.000000</ele>
   <time>2014-03-08T14:56:27Z</time>
</trkpt>
<trkpt lat="53.471937" lon="10.047338">
   <ele>1.000000</ele>
   <time>2014-03-08T14:56:31Z</time>
</trkpt>
<trkpt lat="53.471856" lon="10.047506">
   <ele>1.000000</ele>
   <time>2014-03-08T14:56:35Z</time>
</trkpt>
<trkpt lat="53.471799" lon="10.047654">
   <ele>1.000000</ele>
   <time>2014-03-08T14:56:38Z</time>
</trkpt>
<trkpt lat="53.471720" lon="10.047846">
   <ele>1.000000</ele>
   <time>2014-03-08T14:56:42Z</time>
</trkpt>
<trkpt lat="53.471667" lon="10.047955">
   <ele>1.000000</ele>
   <time>2014-03-08T14:56:45Z</time>
</trkpt>
<trkpt lat="53.471614" lon="10.048124">
   <ele>1.000000</ele>
   <time>2014-03-08T14:56:49Z</time>
</trkpt>
<trkpt lat="53.471541" lon="10.048282">
   <ele>1.000000</ele>
   <time>2014-03-08T14:56:53Z</time>
</trkpt>
<trkpt lat="53.471455" lon="10.048449">
   <ele>1.000000</ele>
   <time>2014-03-08T14:56:57Z</time>
</trkpt>
<trkpt lat="53.471384" lon="10.048564">
   <ele>1.000000</ele>
   <time>2014-03-08T14:57:00Z</time>
</trkpt>
<trkpt lat="53.471303" lon="10.048684">
   <ele>1.000000</ele>
   <time>2014-03-08T14:57:03Z</time>
</trkpt>
<trkpt lat="53.471200" lon="10.048836">
   <ele>1.000000</ele>
   <time>2014-03-08T14:57:07Z</time>
</trkpt>
<trkpt lat="53.471124" lon="10.048942">
   <ele>1.000000</ele>
   <time>2014-03-08T14:57:10Z</time>
</trkpt>
<trkpt lat="53.471027" lon="10.049079">
   <ele>1.000000</ele>
   <time>2014-03-08T14:57:14Z</time>
</trkpt>
<trkpt lat="53.470922" lon="10.049211">
   <ele>1.000000</ele>
   <time>2014-03-08T14:57:18Z</time>
</trkpt>
<trkpt lat="53.470838" lon="10.049320">
   <ele>1.000000</ele>
   <time>2014-03-08T14:57:21Z</time>
</trkpt>
<trkpt lat="53.470738" lon="10.049448">
   <ele>1.000000</ele>
   <time>2014-03-08T14:57:25Z</time>
</trkpt>
<trkpt lat="53.470660" lon="10.049540">
   <ele>1.000000</ele>
   <time>2014-03-08T14:57:28Z</time>
</trkpt>
<trkpt lat="53.470582" lon="10.049628">
   <ele>1.000000</ele>
   <time>2014-03-08T14:57:31Z</time>
</trkpt>
<trkpt lat="53.470502" lon="10.049726">
   <ele>1.000000</ele>
   <time>2014-03-08T14:57:34Z</time>
</trkpt>
<trkpt lat="53.470396" lon="10.049859">
   <ele>1.000000</ele>
   <time>2014-03-08T14:57:38Z</time>
</trkpt>
<trkpt lat="53.470292" lon="10.049993">
   <ele>1.000000</ele>
   <time>2014-03-08T14:57:42Z</time>
</trkpt>
<trkpt lat="53.470219" lon="10.050099">
   <ele>1.000000</ele>
   <time>2014-03-08T14:57:45Z</time>
</trkpt>
<trkpt lat="53.470122" lon="10.050226">
   <ele>1.000000</ele>
   <time>2014-03-08T14:57:49Z</time>
</trkpt>
<trkpt lat="53.470046" lon="10.050330">
   <ele>1.000000</ele>
   <time>2014-03-08T14:57:52Z</time>
</trkpt>
<trkpt lat="53.469946" lon="10.050471">
   <ele>1.028406</ele>
   <time>2014-03-08T14:57:56Z</time>
</trkpt>
<trkpt lat="53.469865" lon="10.050565">
   <ele>1.052302</ele>
   <time>2014-03-08T14:57:59Z</time>
</trkpt>
<trkpt lat="53.469782" lon="10.050653">
   <ele>1.056674</ele>
   <time>2014-03-08T14:58:02Z</time>
</trkpt>
<trkpt lat="53.469703" lon="10.050733">
   <ele>1.043088</ele>
   <time>2014-03-08T14:58:05Z</time>
</trkpt>
<trkpt lat="53.469592" lon="10.050836">
   <ele>1.000000</ele>
   <time>2014-03-08T14:58:09Z</time>
</trkpt>
<trkpt lat="53.469506" lon="10.050913">
   <ele>1.000000</ele>
   <time>2014-03-08T14:58:12Z</time>
</trkpt>
<trkpt lat="53.469422" lon="10.050992">
   <ele>1.000000</ele>
   <time>2014-03-08T14:58:15Z</time>
</trkpt>
<trkpt lat="53.469273" lon="10.051166">
   <ele>1.000000</ele>
   <time>2014-03-08T14:58:19Z</time>
</trkpt>
<trkpt lat="53.469188" lon="10.051201">
   <ele>1.000000</ele>
   <time>2014-03-08T14:58:22Z</time>
</trkpt>
<trkpt lat="53.469081" lon="10.051250">
   <ele>1.500046</ele>
   <time>2014-03-08T14:58:26Z</time>
</trkpt>
<trkpt lat="53.468968" lon="10.051318">
   <ele>1.542425</ele>
   <time>2014-03-08T14:58:30Z</time>
</trkpt>
<trkpt lat="53.468879" lon="10.051359">
   <ele>1.540468</ele>
   <time>2014-03-08T14:58:33Z</time>
</trkpt>
<trkpt lat="53.468793" lon="10.051379">
   <ele>1.516118</ele>
   <time>2014-03-08T14:58:36Z</time>
</trkpt>
<trkpt lat="53.468682" lon="10.051453">
   <ele>1.460215</ele>
   <time>2014-03-08T14:58:40Z</time>
</trkpt>
<trkpt lat="53.468605" lon="10.051531">
   <ele>1.382837</ele>
   <time>2014-03-08T14:58:43Z</time>
</trkpt>
<trkpt lat="53.468525" lon="10.051628">
   <ele>1.254767</ele>
   <time>2014-03-08T14:58:46Z</time>
</trkpt>
<trkpt lat="53.468421" lon="10.051761">
   <ele>1.000000</ele>
   <time>2014-03-08T14:58:50Z</time>
</trkpt>
<trkpt lat="53.468347" lon="10.051868">
   <ele>1.000000</ele>
   <time>2014-03-08T14:58:53Z</time>
</trkpt>
<trkpt lat="53.468250" lon="10.052006">
   <ele>1.100342</ele>
   <time>2014-03-08T14:58:57Z</time>
</trkpt>
<trkpt lat="53.468159" lon="10.052131">
   <ele>1.209045</ele>
   <time>2014-03-08T14:59:01Z</time>
</trkpt>
<trkpt lat="53.468095" lon="10.052240">
   <ele>1.285706</ele>
   <time>2014-03-08T14:59:04Z</time>
</trkpt>
<trkpt lat="53.468016" lon="10.052406">
   <ele>1.380432</ele>
   <time>2014-03-08T14:59:08Z</time>
</trkpt>
<trkpt lat="53.467929" lon="10.052504">
   <ele>1.485535</ele>
   <time>2014-03-08T14:59:12Z</time>
</trkpt>
<trkpt lat="53.467861" lon="10.052604">
   <ele>1.566711</ele>
   <time>2014-03-08T14:59:15Z</time>
</trkpt>
<trkpt lat="53.467766" lon="10.052744">
   <ele>1.680420</ele>
   <time>2014-03-08T14:59:19Z</time>
</trkpt>
<trkpt lat="53.467677" lon="10.052918">
   <ele>1.787537</ele>
   <time>2014-03-08T14:59:23Z</time>
</trkpt>
<trkpt lat="53.467584" lon="10.053081">
   <ele>1.898865</ele>
   <time>2014-03-08T14:59:27Z</time>
</trkpt>
<trkpt lat="53.467488" lon="10.053240">
   <ele>1.985229</ele>
   <time>2014-03-08T14:59:31Z</time>
</trkpt>
<trkpt lat="53.467414" lon="10.053362">
   <ele>1.900726</ele>
   <time>2014-03-08T14:59:34Z</time>
</trkpt>
<trkpt lat="53.467319" lon="10.053493">
   <ele>1.824276</ele>
   <time>2014-03-08T14:59:38Z</time>
</trkpt>
<trkpt lat="53.467251" lon="10.053594">
   <ele>1.794801</ele>
   <time>2014-03-08T14:59:41Z</time>
</trkpt>
<trkpt lat="53.467168" lon="10.053754">
   <ele>1.802672</ele>
   <time>2014-03-08T14:59:45Z</time>
</trkpt>
<trkpt lat="53.467101" lon="10.053858">
   <ele>1.822614</ele>
   <time>2014-03-08T14:59:48Z</time>
</trkpt>
<trkpt lat="53.467010" lon="10.054018">
   <ele>1.894979</ele>
   <time>2014-03-08T14:59:52Z</time>
</trkpt>
<trkpt lat="53.466932" lon="10.054112">
   <ele>1.955558</ele>
   <time>2014-03-08T14:59:55Z</time>
</trkpt>
<trkpt lat="53.466874" lon="10.054225">
   <ele>2.104789</ele>
   <time>2014-03-08T14:59:58Z</time>
</trkpt>
<trkpt lat="53.466774" lon="10.054327">
   <ele>2.334550</ele>
   <time>2014-03-08T15:00:02Z</time>
</trkpt>
<trkpt lat="53.466698" lon="10.054418">
   <ele>2.580634</ele>
   <time>2014-03-08T15:00:05Z</time>
</trkpt>
<trkpt lat="53.466626" lon="10.054528">
   <ele>2.867706</ele>
   <time>2014-03-08T15:00:08Z</time>
</trkpt>
<trkpt lat="53.466515" lon="10.054623">
   <ele>3.095016</ele>
   <time>2014-03-08T15:00:12Z</time>
</trkpt>
<trkpt lat="53.466439" lon="10.054710">
   <ele>3.303635</ele>
   <time>2014-03-08T15:00:15Z</time>
</trkpt>
<trkpt lat="53.466359" lon="10.054781">
   <ele>3.475220</ele>
   <time>2014-03-08T15:00:18Z</time>
</trkpt>
<trkpt lat="53.466244" lon="10.054874">
   <ele>3.697708</ele>
   <time>2014-03-08T15:00:22Z</time>
</trkpt>
<trkpt lat="53.466157" lon="10.054886">
   <ele>3.726486</ele>
   <time>2014-03-08T15:00:25Z</time>
</trkpt>
<trkpt lat="53.466079" lon="10.054915">
   <ele>3.796890</ele>
   <time>2014-03-08T15:00:28Z</time>
</trkpt>
<trkpt lat="53.465968" lon="10.055000">
   <ele>3.999827</ele>
   <time>2014-03-08T15:00:32Z</time>
</trkpt>
<trkpt lat="53.465891" lon="10.055089">
   <ele>3.985101</ele>
   <time>2014-03-08T15:00:35Z</time>
</trkpt>
<trkpt lat="53.465818" lon="10.055183">
   <ele>3.981567</ele>
   <time>2014-03-08T15:00:38Z</time>
</trkpt>
<trkpt lat="53.465724" lon="10.055333">
   <ele>3.868286</ele>
   <time>2014-03-08T15:00:42Z</time>
</trkpt>
<trkpt lat="53.465662" lon="10.055457">
   <ele>3.794006</ele>
   <time>2014-03-08T15:00:45Z</time>
</trkpt>
<trkpt lat="53.465607" lon="10.055545">
   <ele>3.727905</ele>
   <time>2014-03-08T15:00:48Z</time>
</trkpt>
<trkpt lat="53.465564" lon="10.055666">
   <ele>3.676270</ele>
   <time>2014-03-08T15:00:52Z</time>
</trkpt>
<trkpt lat="53.465518" lon="10.055783">
   <ele>3.621887</ele>
   <time>2014-03-08T15:00:56Z</time>
</trkpt>
<trkpt lat="53.465478" lon="10.055838">
   <ele>3.570650</ele>
   <time>2014-03-08T15:01:00Z</time>
</trkpt>
<trkpt lat="53.465441" lon="10.055893">
   <ele>3.491225</ele>
   <time>2014-03-08T15:01:04Z</time>
</trkpt>
<trkpt lat="53.465416" lon="10.055961">
   <ele>3.423074</ele>
   <time>2014-03-08T15:01:07Z</time>
</trkpt>
<trkpt lat="53.465395" lon="10.056056">
   <ele>3.347229</ele>
   <time>2014-03-08T15:01:11Z</time>
</trkpt>
<trkpt lat="53.465362" lon="10.056110">
   <ele>3.290649</ele>
   <time>2014-03-08T15:01:16Z</time>
</trkpt>
<trkpt lat="53.465387" lon="10.056034">
   <ele>3.352618</ele>
   <time>2014-03-08T15:01:25Z</time>
</trkpt>
<trkpt lat="53.465353" lon="10.056094">
   <ele>3.291156</ele>
   <time>2014-03-08T15:02:22Z</time>
</trkpt>
<trkpt lat="53.465297" lon="10.056165">
   <ele>3.214646</ele>
   <time>2014-03-08T15:02:26Z</time>
</trkpt>
<trkpt lat="53.465130" lon="10.056407">
   <ele>3.048406</ele>
   <time>2014-03-08T15:02:30Z</time>
</trkpt>
<trkpt lat="53.465014" lon="10.056585">
   <ele>3.001649</ele>
   <time>2014-03-08T15:02:33Z</time>
</trkpt>
<trkpt lat="53.464931" lon="10.056738">
   <ele>2.913879</ele>
   <time>2014-03-08T15:02:36Z</time>
</trkpt>
<trkpt lat="53.464799" lon="10.056947">
   <ele>2.663223</ele>
   <time>2014-03-08T15:02:40Z</time>
</trkpt>
<trkpt lat="53.464718" lon="10.057052">
   <ele>2.537094</ele>
   <time>2014-03-08T15:02:43Z</time>
</trkpt>
<trkpt lat="53.464603" lon="10.057234">
   <ele>2.319130</ele>
   <time>2014-03-08T15:02:47Z</time>
</trkpt>
<trkpt lat="53.464507" lon="10.057379">
   <ele>2.145729</ele>
   <time>2014-03-08T15:02:50Z</time>
</trkpt>
<trkpt lat="53.464410" lon="10.057596">
   <ele>1.884514</ele>
   <time>2014-03-08T15:02:54Z</time>
</trkpt>
<trkpt lat="53.464327" lon="10.057760">
   <ele>1.688477</ele>
   <time>2014-03-08T15:02:57Z</time>
</trkpt>
<trkpt lat="53.464245" lon="10.057954">
   <ele>1.455124</ele>
   <time>2014-03-08T15:03:00Z</time>
</trkpt>
<trkpt lat="53.464142" lon="10.058186">
   <ele>1.265785</ele>
   <time>2014-03-08T15:03:04Z</time>
</trkpt>
<trkpt lat="53.464030" lon="10.058440">
   <ele>1.471421</ele>
   <time>2014-03-08T15:03:08Z</time>
</trkpt>
<trkpt lat="53.463949" lon="10.058615">
   <ele>1.696106</ele>
   <time>2014-03-08T15:03:11Z</time>
</trkpt>
<trkpt lat="53.463860" lon="10.058808">
   <ele>1.895116</ele>
   <time>2014-03-08T15:03:15Z</time>
</trkpt>
<trkpt lat="53.463760" lon="10.059029">
   <ele>2.055979</ele>
   <time>2014-03-08T15:03:19Z</time>
</trkpt>
<trkpt lat="53.463665" lon="10.059236">
   <ele>2.153837</ele>
   <time>2014-03-08T15:03:23Z</time>
</trkpt>
<trkpt lat="53.463602" lon="10.059389">
   <ele>2.174229</ele>
   <time>2014-03-08T15:03:27Z</time>
</trkpt>
<trkpt lat="53.463620" lon="10.059463">
   <ele>2.079926</ele>
   <time>2014-03-08T15:03:58Z</time>
</trkpt>
<trkpt lat="53.463624" lon="10.059541">
   <ele>2.009953</ele>
   <time>2014-03-08T15:04:05Z</time>
</trkpt>
<trkpt lat="53.463630" lon="10.059669">
   <ele>1.899112</ele>
   <time>2014-03-08T15:04:09Z</time>
</trkpt>
<trkpt lat="53.463639" lon="10.059565">
   <ele>1.963227</ele>
   <time>2014-03-08T15:04:23Z</time>
</trkpt>
<trkpt lat="53.463590" lon="10.059591">
   <ele>2.032259</ele>
   <time>2014-03-08T15:04:42Z</time>
</trkpt>
<trkpt lat="53.463532" lon="10.059685">
   <ele>2.050314</ele>
   <time>2014-03-08T15:04:45Z</time>
</trkpt>
<trkpt lat="53.463467" lon="10.059781">
   <ele>2.059900</ele>
   <time>2014-03-08T15:04:48Z</time>
</trkpt>
<trkpt lat="53.463415" lon="10.059890">
   <ele>2.020919</ele>
   <time>2014-03-08T15:04:51Z</time>
</trkpt>
<trkpt lat="53.463356" lon="10.060000">
   <ele>1.972902</ele>
   <time>2014-03-08T15:04:54Z</time>
</trkpt>
<trkpt lat="53.463280" lon="10.060166">
   <ele>1.927071</ele>
   <time>2014-03-08T15:04:58Z</time>
</trkpt>
<trkpt lat="53.463196" lon="10.060345">
   <ele>1.916359</ele>
   <time>2014-03-08T15:05:02Z</time>
</trkpt>
<trkpt lat="53.463106" lon="10.060507">
   <ele>1.936096</ele>
   <time>2014-03-08T15:05:06Z</time>
</trkpt>
<trkpt lat="53.463011" lon="10.060702">
   <ele>1.931808</ele>
   <time>2014-03-08T15:05:10Z</time>
</trkpt>
<trkpt lat="53.462920" lon="10.060920">
   <ele>2.045147</ele>
   <time>2014-03-08T15:05:14Z</time>
</trkpt>
<trkpt lat="53.462843" lon="10.061139">
   <ele>2.262879</ele>
   <time>2014-03-08T15:05:18Z</time>
</trkpt>
<trkpt lat="53.462803" lon="10.061325">
   <ele>2.326423</ele>
   <time>2014-03-08T15:05:21Z</time>
</trkpt>
<trkpt lat="53.462796" lon="10.061508">
   <ele>2.342883</ele>
   <time>2014-03-08T15:05:24Z</time>
</trkpt>
<trkpt lat="53.462810" lon="10.061738">
   <ele>1.946081</ele>
   <time>2014-03-08T15:05:28Z</time>
</trkpt>
<trkpt lat="53.462842" lon="10.061913">
   <ele>1.825520</ele>
   <time>2014-03-08T15:05:32Z</time>
</trkpt>
<trkpt lat="53.462842" lon="10.062041">
   <ele>1.734674</ele>
   <time>2014-03-08T15:05:35Z</time>
</trkpt>
<trkpt lat="53.462799" lon="10.062156">
   <ele>1.623728</ele>
   <time>2014-03-08T15:05:39Z</time>
</trkpt>
<trkpt lat="53.462751" lon="10.062193">
   <ele>1.559005</ele>
   <time>2014-03-08T15:05:43Z</time>
</trkpt>
<trkpt lat="53.462697" lon="10.062230">
   <ele>1.483199</ele>
   <time>2014-03-08T15:05:47Z</time>
</trkpt>
<trkpt lat="53.462648" lon="10.062212">
   <ele>1.461938</ele>
   <time>2014-03-08T15:05:51Z</time>
</trkpt>
<trkpt lat="53.462695" lon="10.062184">
   <ele>1.525018</ele>
   <time>2014-03-08T15:05:56Z</time>
</trkpt>
<trkpt lat="53.462697" lon="10.062106">
   <ele>1.597799</ele>
   <time>2014-03-08T15:06:01Z</time>
</trkpt>
<trkpt lat="53.462698" lon="10.062205">
   <ele>1.507282</ele>
   <time>2014-03-08T15:06:08Z</time>
</trkpt>
<trkpt lat="53.462684" lon="10.062283">
   <ele>1.424357</ele>
   <time>2014-03-08T15:06:12Z</time>
</trkpt>
<trkpt lat="53.462636" lon="10.062272">
   <ele>1.392236</ele>
   <time>2014-03-08T15:06:25Z</time>
</trkpt>
<trkpt lat="53.462549" lon="10.062263">
   <ele>1.326501</ele>
   <time>2014-03-08T15:06:28Z</time>
</trkpt>
<trkpt lat="53.462432" lon="10.062298">
   <ele>1.344423</ele>
   <time>2014-03-08T15:06:32Z</time>
</trkpt>
<trkpt lat="53.462329" lon="10.062255">
   <ele>1.559424</ele>
   <time>2014-03-08T15:06:36Z</time>
</trkpt>
<trkpt lat="53.462257" lon="10.062173">
   <ele>1.799348</ele>
   <time>2014-03-08T15:06:40Z</time>
</trkpt>
<trkpt lat="53.462205" lon="10.062182">
   <ele>1.870595</ele>
   <time>2014-03-08T15:06:58Z</time>
</trkpt>
<trkpt lat="53.462137" lon="10.062135">
   <ele>2.065670</ele>
   <time>2014-03-08T15:07:02Z</time>
</trkpt>
<trkpt lat="53.462098" lon="10.062081">
   <ele>2.228324</ele>
   <time>2014-03-08T15:07:05Z</time>
</trkpt>
<trkpt lat="53.462067" lon="10.062021">
   <ele>2.394233</ele>
   <time>2014-03-08T15:07:18Z</time>
</trkpt>
<trkpt lat="53.462032" lon="10.061951">
   <ele>2.589865</ele>
   <time>2014-03-08T15:07:22Z</time>
</trkpt>
<trkpt lat="53.461997" lon="10.061864">
   <ele>2.826786</ele>
   <time>2014-03-08T15:07:26Z</time>
</trkpt>
<trkpt lat="53.461964" lon="10.061787">
   <ele>3.049337</ele>
   <time>2014-03-08T15:07:29Z</time>
</trkpt>
<trkpt lat="53.461881" lon="10.061692">
   <ele>3.432467</ele>
   <time>2014-03-08T15:07:33Z</time>
</trkpt>
<trkpt lat="53.461774" lon="10.061571">
   <ele>3.758313</ele>
   <time>2014-03-08T15:07:37Z</time>
</trkpt>
<trkpt lat="53.461671" lon="10.061441">
   <ele>3.991243</ele>
   <time>2014-03-08T15:07:41Z</time>
</trkpt>
<trkpt lat="53.461585" lon="10.061345">
   <ele>3.766802</ele>
   <time>2014-03-08T15:07:44Z</time>
</trkpt>
<trkpt lat="53.461451" lon="10.061308">
   <ele>3.371884</ele>
   <time>2014-03-08T15:07:48Z</time>
</trkpt>
<trkpt lat="53.461346" lon="10.061376">
   <ele>3.095560</ele>
   <time>2014-03-08T15:07:52Z</time>
</trkpt>
<trkpt lat="53.461285" lon="10.061483">
   <ele>2.981913</ele>
   <time>2014-03-08T15:07:55Z</time>
</trkpt>
<trkpt lat="53.461202" lon="10.061614">
   <ele>2.849847</ele>
   <time>2014-03-08T15:07:59Z</time>
</trkpt>
<trkpt lat="53.461113" lon="10.061769">
   <ele>2.670720</ele>
   <time>2014-03-08T15:08:03Z</time>
</trkpt>
<trkpt lat="53.461048" lon="10.061875">
   <ele>2.571855</ele>
   <time>2014-03-08T15:08:06Z</time>
</trkpt>
<trkpt lat="53.460987" lon="10.061937">
   <ele>2.514567</ele>
   <time>2014-03-08T15:08:09Z</time>
</trkpt>
<trkpt lat="53.460933" lon="10.062013">
   <ele>2.506070</ele>
   <time>2014-03-08T15:08:12Z</time>
</trkpt>
<trkpt lat="53.460882" lon="10.062158">
   <ele>2.602613</ele>
   <time>2014-03-08T15:08:16Z</time>
</trkpt>
<trkpt lat="53.460802" lon="10.062323">
   <ele>2.749870</ele>
   <time>2014-03-08T15:08:20Z</time>
</trkpt>
<trkpt lat="53.460742" lon="10.062462">
   <ele>2.844360</ele>
   <time>2014-03-08T15:08:23Z</time>
</trkpt>
<trkpt lat="53.460653" lon="10.062588">
   <ele>2.912701</ele>
   <time>2014-03-08T15:08:27Z</time>
</trkpt>
<trkpt lat="53.460553" lon="10.062677">
   <ele>2.947214</ele>
   <time>2014-03-08T15:08:31Z</time>
</trkpt>
<trkpt lat="53.460499" lon="10.062750">
   <ele>3.019485</ele>
   <time>2014-03-08T15:08:34Z</time>
</trkpt>
<trkpt lat="53.460451" lon="10.062827">
   <ele>3.113647</ele>
   <time>2014-03-08T15:08:38Z</time>
</trkpt>
<trkpt lat="53.460414" lon="10.062896">
   <ele>3.211155</ele>
   <time>2014-03-08T15:08:41Z</time>
</trkpt>
<trkpt lat="53.460366" lon="10.062983">
   <ele>3.343678</ele>
   <time>2014-03-08T15:08:44Z</time>
</trkpt>
<trkpt lat="53.460306" lon="10.063073">
   <ele>3.490557</ele>
   <time>2014-03-08T15:08:47Z</time>
</trkpt>
<trkpt lat="53.460242" lon="10.063201">
   <ele>3.728054</ele>
   <time>2014-03-08T15:08:51Z</time>
</trkpt>
<trkpt lat="53.460171" lon="10.063313">
   <ele>3.956807</ele>
   <time>2014-03-08T15:08:55Z</time>
</trkpt>
<trkpt lat="53.460110" lon="10.063455">
   <ele>3.980615</ele>
   <time>2014-03-08T15:08:59Z</time>
</trkpt>
<trkpt lat="53.460091" lon="10.063583">
   <ele>3.967226</ele>
   <time>2014-03-08T15:09:02Z</time>
</trkpt>
<trkpt lat="53.460058" lon="10.063754">
   <ele>3.964821</ele>
   <time>2014-03-08T15:09:05Z</time>
</trkpt>
<trkpt lat="53.459953" lon="10.063979">
   <ele>3.887207</ele>
   <time>2014-03-08T15:09:08Z</time>
</trkpt>
<trkpt lat="53.459843" lon="10.064160">
   <ele>3.624023</ele>
   <time>2014-03-08T15:09:11Z</time>
</trkpt>
<trkpt lat="53.459741" lon="10.064414">
   <ele>3.470315</ele>
   <time>2014-03-08T15:09:15Z</time>
</trkpt>
<trkpt lat="53.459639" lon="10.064643">
   <ele>3.381914</ele>
   <time>2014-03-08T15:09:19Z</time>
</trkpt>
<trkpt lat="53.459530" lon="10.064892">
   <ele>3.363097</ele>
   <time>2014-03-08T15:09:23Z</time>
</trkpt>
<trkpt lat="53.459421" lon="10.065105">
   <ele>3.140222</ele>
   <time>2014-03-08T15:09:27Z</time>
</trkpt>
<trkpt lat="53.459329" lon="10.065215">
   <ele>2.885765</ele>
   <time>2014-03-08T15:09:31Z</time>
</trkpt>
<trkpt lat="53.459237" lon="10.065245">
   <ele>2.765973</ele>
   <time>2014-03-08T15:09:35Z</time>
</trkpt>
<trkpt lat="53.459167" lon="10.065259">
   <ele>2.689484</ele>
   <time>2014-03-08T15:09:38Z</time>
</trkpt>
<trkpt lat="53.459085" lon="10.065339">
   <ele>2.436152</ele>
   <time>2014-03-08T15:09:41Z</time>
</trkpt>
<trkpt lat="53.458973" lon="10.065503">
   <ele>2.071888</ele>
   <time>2014-03-08T15:09:45Z</time>
</trkpt>
<trkpt lat="53.458864" lon="10.065618">
   <ele>1.801447</ele>
   <time>2014-03-08T15:09:49Z</time>
</trkpt>
<trkpt lat="53.458777" lon="10.065721">
   <ele>1.604225</ele>
   <time>2014-03-08T15:09:53Z</time>
</trkpt>
<trkpt lat="53.458710" lon="10.065795">
   <ele>1.473169</ele>
   <time>2014-03-08T15:09:56Z</time>
</trkpt>
<trkpt lat="53.458649" lon="10.065877">
   <ele>1.391497</ele>
   <time>2014-03-08T15:09:59Z</time>
</trkpt>
<trkpt lat="53.458553" lon="10.065984">
   <ele>1.349720</ele>
   <time>2014-03-08T15:10:03Z</time>
</trkpt>
<trkpt lat="53.458477" lon="10.066118">
   <ele>1.396409</ele>
   <time>2014-03-08T15:10:06Z</time>
</trkpt>
<trkpt lat="53.458399" lon="10.066284">
   <ele>1.534404</ele>
   <time>2014-03-08T15:10:09Z</time>
</trkpt>
<trkpt lat="53.458295" lon="10.066472">
   <ele>1.741321</ele>
   <time>2014-03-08T15:10:13Z</time>
</trkpt>
<trkpt lat="53.458214" lon="10.066594">
   <ele>1.795362</ele>
   <time>2014-03-08T15:10:16Z</time>
</trkpt>
<trkpt lat="53.458106" lon="10.066799">
   <ele>1.612271</ele>
   <time>2014-03-08T15:10:20Z</time>
</trkpt>
<trkpt lat="53.458037" lon="10.066930">
   <ele>1.440954</ele>
   <time>2014-03-08T15:10:23Z</time>
</trkpt>
<trkpt lat="53.457965" lon="10.067062">
   <ele>1.293159</ele>
   <time>2014-03-08T15:10:26Z</time>
</trkpt>
<trkpt lat="53.457870" lon="10.067232">
   <ele>1.142662</ele>
   <time>2014-03-08T15:10:30Z</time>
</trkpt>
<trkpt lat="53.457811" lon="10.067355">
   <ele>1.065059</ele>
   <time>2014-03-08T15:10:33Z</time>
</trkpt>
<trkpt lat="53.457723" lon="10.067470">
   <ele>1.009480</ele>
   <time>2014-03-08T15:10:36Z</time>
</trkpt>
<trkpt lat="53.457597" lon="10.067653">
   <ele>1.183311</ele>
   <time>2014-03-08T15:10:40Z</time>
</trkpt>
<trkpt lat="53.457492" lon="10.067846">
   <ele>1.416915</ele>
   <time>2014-03-08T15:10:44Z</time>
</trkpt>
<trkpt lat="53.457396" lon="10.068042">
   <ele>1.612788</ele>
   <time>2014-03-08T15:10:48Z</time>
</trkpt>
<trkpt lat="53.457320" lon="10.068162">
   <ele>1.667434</ele>
   <time>2014-03-08T15:10:51Z</time>
</trkpt>
<trkpt lat="53.457249" lon="10.068288">
   <ele>1.677015</ele>
   <time>2014-03-08T15:10:54Z</time>
</trkpt>
<trkpt lat="53.457165" lon="10.068424">
   <ele>1.532544</ele>
   <time>2014-03-08T15:10:58Z</time>
</trkpt>
<trkpt lat="53.457110" lon="10.068509">
   <ele>1.420150</ele>
   <time>2014-03-08T15:11:01Z</time>
</trkpt>
<trkpt lat="53.457045" lon="10.068626">
   <ele>1.294361</ele>
   <time>2014-03-08T15:11:05Z</time>
</trkpt>
<trkpt lat="53.457001" lon="10.068731">
   <ele>1.209726</ele>
   <time>2014-03-08T15:11:08Z</time>
</trkpt>
<trkpt lat="53.456956" lon="10.068842">
   <ele>1.135276</ele>
   <time>2014-03-08T15:11:11Z</time>
</trkpt>
<trkpt lat="53.456916" lon="10.068941">
   <ele>1.081082</ele>
   <time>2014-03-08T15:11:15Z</time>
</trkpt>
<trkpt lat="53.456955" lon="10.068980">
   <ele>1.077544</ele>
   <time>2014-03-08T15:11:28Z</time>
</trkpt>
<trkpt lat="53.457008" lon="10.068871">
   <ele>1.145459</ele>
   <time>2014-03-08T15:16:27Z</time>
</trkpt>
<trkpt lat="53.456835" lon="10.069134">
   <ele>1.007958</ele>
   <time>2014-03-08T15:16:32Z</time>
</trkpt>
<trkpt lat="53.456874" lon="10.068853">
   <ele>1.093642</ele>
   <time>2014-03-08T15:16:35Z</time>
</trkpt>
<trkpt lat="53.456923" lon="10.068820">
   <ele>1.128221</ele>
   <time>2014-03-08T15:16:47Z</time>
</trkpt>
<trkpt lat="53.456966" lon="10.068773">
   <ele>1.169457</ele>
   <time>2014-03-08T15:16:51Z</time>
</trkpt>
<trkpt lat="53.457020" lon="10.068640">
   <ele>1.268116</ele>
   <time>2014-03-08T15:16:55Z</time>
</trkpt>
<trkpt lat="53.457081" lon="10.068526">
   <ele>1.382488</ele>
   <time>2014-03-08T15:16:59Z</time>
</trkpt>
<trkpt lat="53.457145" lon="10.068419">
   <ele>1.514938</ele>
   <time>2014-03-08T15:17:03Z</time>
</trkpt>
<trkpt lat="53.457222" lon="10.068303">
   <ele>1.654534</ele>
   <time>2014-03-08T15:17:07Z</time>
</trkpt>
<trkpt lat="53.457296" lon="10.068181">
   <ele>1.661704</ele>
   <time>2014-03-08T15:17:11Z</time>
</trkpt>
<trkpt lat="53.457361" lon="10.068101">
   <ele>1.648003</ele>
   <time>2014-03-08T15:17:14Z</time>
</trkpt>
<trkpt lat="53.457421" lon="10.068012">
   <ele>1.592857</ele>
   <time>2014-03-08T15:17:17Z</time>
</trkpt>
<trkpt lat="53.457510" lon="10.067909">
   <ele>1.490295</ele>
   <time>2014-03-08T15:17:21Z</time>
</trkpt>
<trkpt lat="53.457585" lon="10.067800">
   <ele>1.359436</ele>
   <time>2014-03-08T15:17:24Z</time>
</trkpt>
<trkpt lat="53.457674" lon="10.067631">
   <ele>1.156761</ele>
   <time>2014-03-08T15:17:28Z</time>
</trkpt>
<trkpt lat="53.457747" lon="10.067425">
   <ele>1.026783</ele>
   <time>2014-03-08T15:17:32Z</time>
</trkpt>
<trkpt lat="53.457810" lon="10.067314">
   <ele>1.083224</ele>
   <time>2014-03-08T15:17:35Z</time>
</trkpt>
<trkpt lat="53.457910" lon="10.067155">
   <ele>1.203659</ele>
   <time>2014-03-08T15:17:39Z</time>
</trkpt>
<trkpt lat="53.458014" lon="10.067028">
   <ele>1.349819</ele>
   <time>2014-03-08T15:17:43Z</time>
</trkpt>
<trkpt lat="53.458108" lon="10.066908">
   <ele>1.518134</ele>
   <time>2014-03-08T15:17:47Z</time>
</trkpt>
<trkpt lat="53.458191" lon="10.066780">
   <ele>1.716756</ele>
   <time>2014-03-08T15:17:51Z</time>
</trkpt>
<trkpt lat="53.458275" lon="10.066642">
   <ele>1.904760</ele>
   <time>2014-03-08T15:17:55Z</time>
</trkpt>
<trkpt lat="53.458363" lon="10.066530">
   <ele>1.812593</ele>
   <time>2014-03-08T15:17:59Z</time>
</trkpt>
<trkpt lat="53.458431" lon="10.066433">
   <ele>1.668337</ele>
   <time>2014-03-08T15:18:02Z</time>
</trkpt>
<trkpt lat="53.458509" lon="10.066340">
   <ele>1.562296</ele>
   <time>2014-03-08T15:18:05Z</time>
</trkpt>
<trkpt lat="53.458576" lon="10.066220">
   <ele>1.484823</ele>
   <time>2014-03-08T15:18:08Z</time>
</trkpt>
<trkpt lat="53.458656" lon="10.066068">
   <ele>1.451079</ele>
   <time>2014-03-08T15:18:12Z</time>
</trkpt>
<trkpt lat="53.458723" lon="10.065942">
   <ele>1.475986</ele>
   <time>2014-03-08T15:18:15Z</time>
</trkpt>
<trkpt lat="53.458818" lon="10.065836">
   <ele>1.580623</ele>
   <time>2014-03-08T15:18:19Z</time>
</trkpt>
<trkpt lat="53.458937" lon="10.065755">
   <ele>1.792825</ele>
   <time>2014-03-08T15:18:23Z</time>
</trkpt>
<trkpt lat="53.459042" lon="10.065691">
   <ele>1.994774</ele>
   <time>2014-03-08T15:18:26Z</time>
</trkpt>
<trkpt lat="53.459149" lon="10.065569">
   <ele>2.289250</ele>
   <time>2014-03-08T15:18:30Z</time>
</trkpt>
<trkpt lat="53.459225" lon="10.065458">
   <ele>2.481946</ele>
   <time>2014-03-08T15:18:33Z</time>
</trkpt>
<trkpt lat="53.459338" lon="10.065269">
   <ele>2.816087</ele>
   <time>2014-03-08T15:18:37Z</time>
</trkpt>
<trkpt lat="53.459403" lon="10.065126">
   <ele>3.090007</ele>
   <time>2014-03-08T15:18:40Z</time>
</trkpt>
<trkpt lat="53.459469" lon="10.064959">
   <ele>3.331494</ele>
   <time>2014-03-08T15:18:43Z</time>
</trkpt>
<trkpt lat="53.459540" lon="10.064809">
   <ele>3.321838</ele>
   <time>2014-03-08T15:18:46Z</time>
</trkpt>
<trkpt lat="53.459640" lon="10.064611">
   <ele>3.365473</ele>
   <time>2014-03-08T15:18:50Z</time>
</trkpt>
<trkpt lat="53.459713" lon="10.064462">
   <ele>3.433423</ele>
   <time>2014-03-08T15:18:53Z</time>
</trkpt>
<trkpt lat="53.459790" lon="10.064320">
   <ele>3.542166</ele>
   <time>2014-03-08T15:18:56Z</time>
</trkpt>
<trkpt lat="53.459884" lon="10.064126">
   <ele>3.721558</ele>
   <time>2014-03-08T15:19:00Z</time>
</trkpt>
<trkpt lat="53.459952" lon="10.063979">
   <ele>3.883789</ele>
   <time>2014-03-08T15:19:03Z</time>
</trkpt>
<trkpt lat="53.460041" lon="10.063794">
   <ele>3.972927</ele>
   <time>2014-03-08T15:19:07Z</time>
</trkpt>
<trkpt lat="53.460088" lon="10.063619">
   <ele>3.963703</ele>
   <time>2014-03-08T15:19:11Z</time>
</trkpt>
<trkpt lat="53.460103" lon="10.063465">
   <ele>3.980336</ele>
   <time>2014-03-08T15:19:15Z</time>
</trkpt>
<trkpt lat="53.460132" lon="10.063310">
   <ele>3.948456</ele>
   <time>2014-03-08T15:19:19Z</time>
</trkpt>
<trkpt lat="53.460189" lon="10.063168">
   <ele>3.648345</ele>
   <time>2014-03-08T15:19:23Z</time>
</trkpt>
<trkpt lat="53.460241" lon="10.063065">
   <ele>3.448356</ele>
   <time>2014-03-08T15:19:26Z</time>
</trkpt>
<trkpt lat="53.460306" lon="10.062920">
   <ele>3.189625</ele>
   <time>2014-03-08T15:19:30Z</time>
</trkpt>
<trkpt lat="53.460368" lon="10.062788">
   <ele>2.981143</ele>
   <time>2014-03-08T15:19:33Z</time>
</trkpt>
<trkpt lat="53.460484" lon="10.062609">
   <ele>2.767068</ele>
   <time>2014-03-08T15:19:37Z</time>
</trkpt>
<trkpt lat="53.460663" lon="10.062526">
   <ele>2.832526</ele>
   <time>2014-03-08T15:19:40Z</time>
</trkpt>
<trkpt lat="53.460800" lon="10.062346">
   <ele>2.775620</ele>
   <time>2014-03-08T15:19:43Z</time>
</trkpt>
<trkpt lat="53.460922" lon="10.062125">
   <ele>2.587120</ele>
   <time>2014-03-08T15:19:47Z</time>
</trkpt>
<trkpt lat="53.461013" lon="10.061964">
   <ele>2.556818</ele>
   <time>2014-03-08T15:19:50Z</time>
</trkpt>
<trkpt lat="53.461123" lon="10.061722">
   <ele>2.692223</ele>
   <time>2014-03-08T15:19:54Z</time>
</trkpt>
<trkpt lat="53.461205" lon="10.061548">
   <ele>2.813277</ele>
   <time>2014-03-08T15:19:57Z</time>
</trkpt>
<trkpt lat="53.461307" lon="10.061358">
   <ele>2.977523</ele>
   <time>2014-03-08T15:20:01Z</time>
</trkpt>
<trkpt lat="53.461427" lon="10.061281">
   <ele>3.292910</ele>
   <time>2014-03-08T15:20:05Z</time>
</trkpt>
<trkpt lat="53.461519" lon="10.061309">
   <ele>3.568634</ele>
   <time>2014-03-08T15:20:08Z</time>
</trkpt>
<trkpt lat="53.461607" lon="10.061387">
   <ele>3.832966</ele>
   <time>2014-03-08T15:20:11Z</time>
</trkpt>
<trkpt lat="53.461712" lon="10.061520">
   <ele>3.900029</ele>
   <time>2014-03-08T15:20:15Z</time>
</trkpt>
<trkpt lat="53.461785" lon="10.061627">
   <ele>3.722191</ele>
   <time>2014-03-08T15:20:18Z</time>
</trkpt>
<trkpt lat="53.461901" lon="10.061768">
   <ele>3.227361</ele>
   <time>2014-03-08T15:20:22Z</time>
</trkpt>
<trkpt lat="53.461951" lon="10.061877">
   <ele>2.898675</ele>
   <time>2014-03-08T15:20:25Z</time>
</trkpt>
<trkpt lat="53.461969" lon="10.061981">
   <ele>2.656996</ele>
   <time>2014-03-08T15:20:28Z</time>
</trkpt>
<trkpt lat="53.461979" lon="10.062065">
   <ele>2.473750</ele>
   <time>2014-03-08T15:20:31Z</time>
</trkpt>
<trkpt lat="53.462039" lon="10.062042">
   <ele>2.407380</ele>
   <time>2014-03-08T15:20:34Z</time>
</trkpt>
<trkpt lat="53.462089" lon="10.062055">
   <ele>2.290169</ele>
   <time>2014-03-08T15:20:38Z</time>
</trkpt>
<trkpt lat="53.462127" lon="10.062102">
   <ele>2.139212</ele>
   <time>2014-03-08T15:20:56Z</time>
</trkpt>
<trkpt lat="53.462180" lon="10.062156">
   <ele>1.956186</ele>
   <time>2014-03-08T15:20:59Z</time>
</trkpt>
<trkpt lat="53.462251" lon="10.062212">
   <ele>1.748089</ele>
   <time>2014-03-08T15:21:02Z</time>
</trkpt>
<trkpt lat="53.462324" lon="10.062282">
   <ele>1.527536</ele>
   <time>2014-03-08T15:21:06Z</time>
</trkpt>
<trkpt lat="53.462413" lon="10.062277">
   <ele>1.398684</ele>
   <time>2014-03-08T15:21:09Z</time>
</trkpt>
<trkpt lat="53.462489" lon="10.062271">
   <ele>1.292409</ele>
   <time>2014-03-08T15:21:12Z</time>
</trkpt>
<trkpt lat="53.462594" lon="10.062239">
   <ele>1.390355</ele>
   <time>2014-03-08T15:21:16Z</time>
</trkpt>
<trkpt lat="53.462702" lon="10.062207">
   <ele>1.509221</ele>
   <time>2014-03-08T15:21:20Z</time>
</trkpt>
<trkpt lat="53.462781" lon="10.062189">
   <ele>1.584800</ele>
   <time>2014-03-08T15:21:23Z</time>
</trkpt>
<trkpt lat="53.462848" lon="10.062189">
   <ele>1.634594</ele>
   <time>2014-03-08T15:21:26Z</time>
</trkpt>
<trkpt lat="53.462920" lon="10.062132">
   <ele>1.723256</ele>
   <time>2014-03-08T15:21:30Z</time>
</trkpt>
<trkpt lat="53.462963" lon="10.062071">
   <ele>1.784396</ele>
   <time>2014-03-08T15:21:33Z</time>
</trkpt>
<trkpt lat="53.463019" lon="10.062005">
   <ele>1.847117</ele>
   <time>2014-03-08T15:21:36Z</time>
</trkpt>
<trkpt lat="53.463129" lon="10.061925">
   <ele>1.924129</ele>
   <time>2014-03-08T15:21:40Z</time>
</trkpt>
<trkpt lat="53.463288" lon="10.061843">
   <ele>1.988538</ele>
   <time>2014-03-08T15:21:44Z</time>
</trkpt>
<trkpt lat="53.463445" lon="10.061787">
   <ele>1.980748</ele>
   <time>2014-03-08T15:21:47Z</time>
</trkpt>
<trkpt lat="53.463620" lon="10.061716">
   <ele>1.979727</ele>
   <time>2014-03-08T15:21:50Z</time>
</trkpt>
<trkpt lat="53.463839" lon="10.061619">
   <ele>1.943077</ele>
   <time>2014-03-08T15:21:54Z</time>
</trkpt>
<trkpt lat="53.463997" lon="10.061538">
   <ele>1.845436</ele>
   <time>2014-03-08T15:21:57Z</time>
</trkpt>
<trkpt lat="53.464239" lon="10.061453">
   <ele>1.743256</ele>
   <time>2014-03-08T15:22:01Z</time>
</trkpt>
<trkpt lat="53.464458" lon="10.061350">
   <ele>1.620255</ele>
   <time>2014-03-08T15:22:05Z</time>
</trkpt>
<trkpt lat="53.464661" lon="10.061277">
   <ele>1.532806</ele>
   <time>2014-03-08T15:22:09Z</time>
</trkpt>
<trkpt lat="53.464783" lon="10.061241">
   <ele>1.488876</ele>
   <time>2014-03-08T15:22:12Z</time>
</trkpt>
<trkpt lat="53.464896" lon="10.061197">
   <ele>1.435959</ele>
   <time>2014-03-08T15:22:15Z</time>
</trkpt>
<trkpt lat="53.465082" lon="10.061145">
   <ele>1.398997</ele>
   <time>2014-03-08T15:22:19Z</time>
</trkpt>
<trkpt lat="53.465252" lon="10.061116">
   <ele>1.436135</ele>
   <time>2014-03-08T15:22:23Z</time>
</trkpt>
<trkpt lat="53.465425" lon="10.061066">
   <ele>1.504329</ele>
   <time>2014-03-08T15:22:27Z</time>
</trkpt>
<trkpt lat="53.465556" lon="10.061028">
   <ele>1.589283</ele>
   <time>2014-03-08T15:22:30Z</time>
</trkpt>
<trkpt lat="53.465682" lon="10.061003">
   <ele>1.688614</ele>
   <time>2014-03-08T15:22:33Z</time>
</trkpt>
<trkpt lat="53.465794" lon="10.060977">
   <ele>1.796961</ele>
   <time>2014-03-08T15:22:36Z</time>
</trkpt>
<trkpt lat="53.465944" lon="10.060940">
   <ele>1.872307</ele>
   <time>2014-03-08T15:22:40Z</time>
</trkpt>
<trkpt lat="53.466103" lon="10.060909">
   <ele>1.909592</ele>
   <time>2014-03-08T15:22:44Z</time>
</trkpt>
<trkpt lat="53.466224" lon="10.060877">
   <ele>1.947342</ele>
   <time>2014-03-08T15:22:47Z</time>
</trkpt>
<trkpt lat="53.466404" lon="10.060835">
   <ele>1.997490</ele>
   <time>2014-03-08T15:22:51Z</time>
</trkpt>
<trkpt lat="53.466524" lon="10.060811">
   <ele>2.000000</ele>
   <time>2014-03-08T15:22:54Z</time>
</trkpt>
<trkpt lat="53.466687" lon="10.060802">
   <ele>2.000000</ele>
   <time>2014-03-08T15:22:58Z</time>
</trkpt>
<trkpt lat="53.466856" lon="10.060763">
   <ele>2.000000</ele>
   <time>2014-03-08T15:23:02Z</time>
</trkpt>
<trkpt lat="53.466988" lon="10.060733">
   <ele>2.000000</ele>
   <time>2014-03-08T15:23:05Z</time>
</trkpt>
<trkpt lat="53.467146" lon="10.060701">
   <ele>2.000000</ele>
   <time>2014-03-08T15:23:09Z</time>
</trkpt>
<trkpt lat="53.467290" lon="10.060680">
   <ele>2.000000</ele>
   <time>2014-03-08T15:23:13Z</time>
</trkpt>
<trkpt lat="53.467385" lon="10.060669">
   <ele>2.000000</ele>
   <time>2014-03-08T15:23:16Z</time>
</trkpt>
<trkpt lat="53.467474" lon="10.060657">
   <ele>2.000000</ele>
   <time>2014-03-08T15:23:20Z</time>
</trkpt>
<trkpt lat="53.467523" lon="10.060658">
   <ele>1.978134</ele>
   <time>2014-03-08T15:23:23Z</time>
</trkpt>
<trkpt lat="53.467586" lon="10.060634">
   <ele>1.921443</ele>
   <time>2014-03-08T15:24:28Z</time>
</trkpt>
<trkpt lat="53.467684" lon="10.060625">
   <ele>1.834514</ele>
   <time>2014-03-08T15:24:32Z</time>
</trkpt>
<trkpt lat="53.467793" lon="10.060609">
   <ele>1.743144</ele>
   <time>2014-03-08T15:24:35Z</time>
</trkpt>
<trkpt lat="53.467911" lon="10.060590">
   <ele>1.650981</ele>
   <time>2014-03-08T15:24:38Z</time>
</trkpt>
<trkpt lat="53.468026" lon="10.060582">
   <ele>1.559695</ele>
   <time>2014-03-08T15:24:41Z</time>
</trkpt>
<trkpt lat="53.468176" lon="10.060573">
   <ele>1.442335</ele>
   <time>2014-03-08T15:24:45Z</time>
</trkpt>
<trkpt lat="53.468294" lon="10.060568">
   <ele>1.350410</ele>
   <time>2014-03-08T15:24:48Z</time>
</trkpt>
<trkpt lat="53.468405" lon="10.060584">
   <ele>1.359728</ele>
   <time>2014-03-08T15:24:51Z</time>
</trkpt>
<trkpt lat="53.468512" lon="10.060595">
   <ele>1.438739</ele>
   <time>2014-03-08T15:24:54Z</time>
</trkpt>
<trkpt lat="53.468662" lon="10.060611">
   <ele>1.555595</ele>
   <time>2014-03-08T15:24:58Z</time>
</trkpt>
<trkpt lat="53.468772" lon="10.060613">
   <ele>1.651693</ele>
   <time>2014-03-08T15:25:01Z</time>
</trkpt>
<trkpt lat="53.468876" lon="10.060621">
   <ele>1.740132</ele>
   <time>2014-03-08T15:25:04Z</time>
</trkpt>
<trkpt lat="53.468982" lon="10.060622">
   <ele>1.834144</ele>
   <time>2014-03-08T15:25:07Z</time>
</trkpt>
<trkpt lat="53.469118" lon="10.060618">
   <ele>1.956240</ele>
   <time>2014-03-08T15:25:11Z</time>
</trkpt>
<trkpt lat="53.469272" lon="10.060626">
   <ele>1.000000</ele>
   <time>2014-03-08T15:25:15Z</time>
</trkpt>
<trkpt lat="53.469399" lon="10.060620">
   <ele>1.000000</ele>
   <time>2014-03-08T15:25:18Z</time>
</trkpt>
<trkpt lat="53.469586" lon="10.060604">
   <ele>1.000000</ele>
   <time>2014-03-08T15:25:22Z</time>
</trkpt>
<trkpt lat="53.469704" lon="10.060601">
   <ele>1.000000</ele>
   <time>2014-03-08T15:25:25Z</time>
</trkpt>
<trkpt lat="53.469814" lon="10.060602">
   <ele>1.000000</ele>
   <time>2014-03-08T15:25:28Z</time>
</trkpt>
<trkpt lat="53.469983" lon="10.060588">
   <ele>1.000000</ele>
   <time>2014-03-08T15:25:32Z</time>
</trkpt>
<trkpt lat="53.470145" lon="10.060591">
   <ele>1.050373</ele>
   <time>2014-03-08T15:25:36Z</time>
</trkpt>
<trkpt lat="53.470261" lon="10.060581">
   <ele>1.094818</ele>
   <time>2014-03-08T15:25:39Z</time>
</trkpt>
<trkpt lat="53.470431" lon="10.060576">
   <ele>1.159925</ele>
   <time>2014-03-08T15:25:43Z</time>
</trkpt>
<trkpt lat="53.470575" lon="10.060560">
   <ele>1.226554</ele>
   <time>2014-03-08T15:25:46Z</time>
</trkpt>
<trkpt lat="53.470745" lon="10.060553">
   <ele>1.300609</ele>
   <time>2014-03-08T15:25:50Z</time>
</trkpt>
<trkpt lat="53.470862" lon="10.060559">
   <ele>1.328705</ele>
   <time>2014-03-08T15:25:53Z</time>
</trkpt>
<trkpt lat="53.471019" lon="10.060546">
   <ele>1.344894</ele>
   <time>2014-03-08T15:25:57Z</time>
</trkpt>
<trkpt lat="53.471142" lon="10.060538">
   <ele>1.354141</ele>
   <time>2014-03-08T15:26:00Z</time>
</trkpt>
<trkpt lat="53.471255" lon="10.060530">
   <ele>1.364517</ele>
   <time>2014-03-08T15:26:03Z</time>
</trkpt>
<trkpt lat="53.471413" lon="10.060521">
   <ele>1.374275</ele>
   <time>2014-03-08T15:26:07Z</time>
</trkpt>
<trkpt lat="53.471539" lon="10.060528">
   <ele>1.366425</ele>
   <time>2014-03-08T15:26:10Z</time>
</trkpt>
<trkpt lat="53.471704" lon="10.060526">
   <ele>1.352332</ele>
   <time>2014-03-08T15:26:14Z</time>
</trkpt>
<trkpt lat="53.471866" lon="10.060523">
   <ele>1.282776</ele>
   <time>2014-03-08T15:26:18Z</time>
</trkpt>
<trkpt lat="53.472039" lon="10.060525">
   <ele>1.204564</ele>
   <time>2014-03-08T15:26:22Z</time>
</trkpt>
<trkpt lat="53.472233" lon="10.060531">
   <ele>1.116069</ele>
   <time>2014-03-08T15:26:26Z</time>
</trkpt>
<trkpt lat="53.472390" lon="10.060530">
   <ele>1.048055</ele>
   <time>2014-03-08T15:26:30Z</time>
</trkpt>
<trkpt lat="53.472540" lon="10.060510">
   <ele>1.018535</ele>
   <time>2014-03-08T15:26:33Z</time>
</trkpt>
<trkpt lat="53.472697" lon="10.060508">
   <ele>1.092290</ele>
   <time>2014-03-08T15:26:37Z</time>
</trkpt>
<trkpt lat="53.472872" lon="10.060468">
   <ele>1.195853</ele>
   <time>2014-03-08T15:26:41Z</time>
</trkpt>
<trkpt lat="53.472991" lon="10.060462">
   <ele>1.262358</ele>
   <time>2014-03-08T15:26:44Z</time>
</trkpt>
<trkpt lat="53.473148" lon="10.060423">
   <ele>1.382906</ele>
   <time>2014-03-08T15:26:48Z</time>
</trkpt>
<trkpt lat="53.473279" lon="10.060393">
   <ele>1.494110</ele>
   <time>2014-03-08T15:26:51Z</time>
</trkpt>
<trkpt lat="53.473388" lon="10.060364">
   <ele>1.562752</ele>
   <time>2014-03-08T15:26:54Z</time>
</trkpt>
<trkpt lat="53.473437" lon="10.060363">
   <ele>1.564323</ele>
   <time>2014-03-08T15:26:57Z</time>
</trkpt>
<trkpt lat="53.473693" lon="10.060327">
   <ele>1.607628</ele>
   <time>2014-03-08T15:27:01Z</time>
</trkpt>
<trkpt lat="53.473812" lon="10.060304">
   <ele>1.635490</ele>
   <time>2014-03-08T15:27:05Z</time>
</trkpt>
<trkpt lat="53.473941" lon="10.060271">
   <ele>1.675400</ele>
   <time>2014-03-08T15:27:08Z</time>
</trkpt>
<trkpt lat="53.474084" lon="10.060229">
   <ele>1.724861</ele>
   <time>2014-03-08T15:27:12Z</time>
</trkpt>
<trkpt lat="53.474233" lon="10.060183">
   <ele>1.718646</ele>
   <time>2014-03-08T15:27:16Z</time>
</trkpt>
<trkpt lat="53.474347" lon="10.060146">
   <ele>1.646949</ele>
   <time>2014-03-08T15:27:19Z</time>
</trkpt>
<trkpt lat="53.474538" lon="10.060051">
   <ele>1.520530</ele>
   <time>2014-03-08T15:27:23Z</time>
</trkpt>
<trkpt lat="53.474647" lon="10.059983">
   <ele>1.423523</ele>
   <time>2014-03-08T15:27:26Z</time>
</trkpt>
<trkpt lat="53.474780" lon="10.059895">
   <ele>1.264099</ele>
   <time>2014-03-08T15:27:29Z</time>
</trkpt>
<trkpt lat="53.474908" lon="10.059761">
   <ele>1.110657</ele>
   <time>2014-03-08T15:27:33Z</time>
</trkpt>
<trkpt lat="53.475037" lon="10.059654">
   <ele>1.000000</ele>
   <time>2014-03-08T15:27:36Z</time>
</trkpt>
<trkpt lat="53.475130" lon="10.059573">
   <ele>1.000000</ele>
   <time>2014-03-08T15:27:39Z</time>
</trkpt>
<trkpt lat="53.475287" lon="10.059413">
   <ele>1.000000</ele>
   <time>2014-03-08T15:27:42Z</time>
</trkpt>
<trkpt lat="53.475448" lon="10.059244">
   <ele>1.000000</ele>
   <time>2014-03-08T15:27:46Z</time>
</trkpt>
<trkpt lat="53.475580" lon="10.059154">
   <ele>1.000000</ele>
   <time>2014-03-08T15:27:49Z</time>
</trkpt>
<trkpt lat="53.475748" lon="10.058980">
   <ele>1.000000</ele>
   <time>2014-03-08T15:27:53Z</time>
</trkpt>
<trkpt lat="53.475891" lon="10.058794">
   <ele>1.068726</ele>
   <time>2014-03-08T15:27:57Z</time>
</trkpt>
<trkpt lat="53.476007" lon="10.058632">
   <ele>1.208252</ele>
   <time>2014-03-08T15:28:01Z</time>
</trkpt>
<trkpt lat="53.476136" lon="10.058510">
   <ele>1.363770</ele>
   <time>2014-03-08T15:28:04Z</time>
</trkpt>
<trkpt lat="53.476292" lon="10.058321">
   <ele>1.548432</ele>
   <time>2014-03-08T15:28:08Z</time>
</trkpt>
<trkpt lat="53.476443" lon="10.058165">
   <ele>1.638549</ele>
   <time>2014-03-08T15:28:12Z</time>
</trkpt>
<trkpt lat="53.476537" lon="10.058047">
   <ele>1.608228</ele>
   <time>2014-03-08T15:28:15Z</time>
</trkpt>
<trkpt lat="53.476681" lon="10.057873">
   <ele>1.464645</ele>
   <time>2014-03-08T15:28:19Z</time>
</trkpt>
<trkpt lat="53.476789" lon="10.057741">
   <ele>1.436279</ele>
   <time>2014-03-08T15:28:22Z</time>
</trkpt>
<trkpt lat="53.476900" lon="10.057606">
   <ele>1.407402</ele>
   <time>2014-03-08T15:28:25Z</time>
</trkpt>
<trkpt lat="53.477033" lon="10.057430">
   <ele>1.440186</ele>
   <time>2014-03-08T15:28:29Z</time>
</trkpt>
<trkpt lat="53.477137" lon="10.057326">
   <ele>1.564148</ele>
   <time>2014-03-08T15:28:32Z</time>
</trkpt>
<trkpt lat="53.477248" lon="10.057197">
   <ele>1.697449</ele>
   <time>2014-03-08T15:28:35Z</time>
</trkpt>
<trkpt lat="53.477387" lon="10.057043">
   <ele>1.864319</ele>
   <time>2014-03-08T15:28:39Z</time>
</trkpt>
<trkpt lat="53.477536" lon="10.056865">
   <ele>1.989758</ele>
   <time>2014-03-08T15:28:43Z</time>
</trkpt>
<trkpt lat="53.477675" lon="10.056695">
   <ele>1.992757</ele>
   <time>2014-03-08T15:28:47Z</time>
</trkpt>
<trkpt lat="53.477770" lon="10.056592">
   <ele>2.028878</ele>
   <time>2014-03-08T15:28:50Z</time>
</trkpt>
<trkpt lat="53.477911" lon="10.056444">
   <ele>2.131626</ele>
   <time>2014-03-08T15:28:54Z</time>
</trkpt>
<trkpt lat="53.478018" lon="10.056327">
   <ele>2.253522</ele>
   <time>2014-03-08T15:28:57Z</time>
</trkpt>
<trkpt lat="53.478167" lon="10.056180">
   <ele>2.467299</ele>
   <time>2014-03-08T15:29:01Z</time>
</trkpt>
<trkpt lat="53.478283" lon="10.056052">
   <ele>2.693399</ele>
   <time>2014-03-08T15:29:04Z</time>
</trkpt>
<trkpt lat="53.478399" lon="10.055929">
   <ele>2.755196</ele>
   <time>2014-03-08T15:29:07Z</time>
</trkpt>
<trkpt lat="53.478527" lon="10.055811">
   <ele>2.541391</ele>
   <time>2014-03-08T15:29:11Z</time>
</trkpt>
<trkpt lat="53.478677" lon="10.055644">
   <ele>2.268576</ele>
   <time>2014-03-08T15:29:15Z</time>
</trkpt>
<trkpt lat="53.478808" lon="10.055489">
   <ele>2.096650</ele>
   <time>2014-03-08T15:29:19Z</time>
</trkpt>
<trkpt lat="53.478915" lon="10.055375">
   <ele>1.987744</ele>
   <time>2014-03-08T15:29:22Z</time>
</trkpt>
<trkpt lat="53.479063" lon="10.055209">
   <ele>1.905399</ele>
   <time>2014-03-08T15:29:26Z</time>
</trkpt>
<trkpt lat="53.479173" lon="10.055091">
   <ele>1.891461</ele>
   <time>2014-03-08T15:29:29Z</time>
</trkpt>
<trkpt lat="53.479287" lon="10.054965">
   <ele>2.167881</ele>
   <time>2014-03-08T15:29:32Z</time>
</trkpt>
<trkpt lat="53.479434" lon="10.054812">
   <ele>2.329176</ele>
   <time>2014-03-08T15:29:36Z</time>
</trkpt>
<trkpt lat="53.479580" lon="10.054664">
   <ele>2.299293</ele>
   <time>2014-03-08T15:29:40Z</time>
</trkpt>
<trkpt lat="53.479675" lon="10.054551">
   <ele>2.162587</ele>
   <time>2014-03-08T15:29:43Z</time>
</trkpt>
<trkpt lat="53.479783" lon="10.054463">
   <ele>1.954464</ele>
   <time>2014-03-08T15:29:47Z</time>
</trkpt>
<trkpt lat="53.479921" lon="10.054347">
   <ele>1.560699</ele>
   <time>2014-03-08T15:29:50Z</time>
</trkpt>
<trkpt lat="53.480038" lon="10.054275">
   <ele>0.982362</ele>
   <time>2014-03-08T15:29:53Z</time>
</trkpt>
<trkpt lat="53.480160" lon="10.054202">
   <ele>0.975429</ele>
   <time>2014-03-08T15:29:57Z</time>
</trkpt>
<trkpt lat="53.480202" lon="10.054166">
   <ele>1.000957</ele>
   <time>2014-03-08T15:30:01Z</time>
</trkpt>
<trkpt lat="53.480249" lon="10.054142">
   <ele>1.038890</ele>
   <time>2014-03-08T15:30:05Z</time>
</trkpt>
<trkpt lat="53.480207" lon="10.054189">
   <ele>0.980053</ele>
   <time>2014-03-08T15:30:29Z</time>
</trkpt>
<trkpt lat="53.480130" lon="10.054246">
   <ele>0.955249</ele>
   <time>2014-03-08T15:30:35Z</time>
</trkpt>
<trkpt lat="53.480022" lon="10.054322">
   <ele>0.985306</ele>
   <time>2014-03-08T15:30:39Z</time>
</trkpt>
<trkpt lat="53.479965" lon="10.054279">
   <ele>1.336568</ele>
   <time>2014-03-08T15:30:43Z</time>
</trkpt>
<trkpt lat="53.480064" lon="10.054155">
   <ele>1.014794</ele>
   <time>2014-03-08T15:30:47Z</time>
</trkpt>
<trkpt lat="53.480192" lon="10.053989">
   <ele>1.262227</ele>
   <time>2014-03-08T15:30:51Z</time>
</trkpt>
<trkpt lat="53.480292" lon="10.053863">
   <ele>1.492019</ele>
   <time>2014-03-08T15:30:54Z</time>
</trkpt>
<trkpt lat="53.480399" lon="10.053721">
   <ele>1.790392</ele>
   <time>2014-03-08T15:30:57Z</time>
</trkpt>
<trkpt lat="53.480520" lon="10.053557">
   <ele>2.189086</ele>
   <time>2014-03-08T15:31:01Z</time>
</trkpt>
<trkpt lat="53.480607" lon="10.053440">
   <ele>2.507179</ele>
   <time>2014-03-08T15:31:04Z</time>
</trkpt>
<trkpt lat="53.480711" lon="10.053283">
   <ele>2.853577</ele>
   <time>2014-03-08T15:31:08Z</time>
</trkpt>
<trkpt lat="53.480801" lon="10.053172">
   <ele>2.960632</ele>
   <time>2014-03-08T15:31:11Z</time>
</trkpt>
<trkpt lat="53.480914" lon="10.053003">
   <ele>2.882857</ele>
   <time>2014-03-08T15:31:15Z</time>
</trkpt>
<trkpt lat="53.480999" lon="10.052872">
   <ele>2.823189</ele>
   <time>2014-03-08T15:31:18Z</time>
</trkpt>
<trkpt lat="53.481045" lon="10.052811">
   <ele>2.810119</ele>
   <time>2014-03-08T15:31:21Z</time>
</trkpt>
<trkpt lat="53.481178" lon="10.052623">
   <ele>2.877385</ele>
   <time>2014-03-08T15:31:24Z</time>
</trkpt>
<trkpt lat="53.481301" lon="10.052480">
   <ele>3.013205</ele>
   <time>2014-03-08T15:31:28Z</time>
</trkpt>
<trkpt lat="53.481425" lon="10.052334">
   <ele>3.141661</ele>
   <time>2014-03-08T15:31:32Z</time>
</trkpt>
<trkpt lat="53.481522" lon="10.052226">
   <ele>3.272237</ele>
   <time>2014-03-08T15:31:35Z</time>
</trkpt>
<trkpt lat="53.481654" lon="10.052063">
   <ele>3.516477</ele>
   <time>2014-03-08T15:31:39Z</time>
</trkpt>
<trkpt lat="53.481760" lon="10.051926">
   <ele>3.498674</ele>
   <time>2014-03-08T15:31:42Z</time>
</trkpt>
<trkpt lat="53.481866" lon="10.051792">
   <ele>3.406537</ele>
   <time>2014-03-08T15:31:45Z</time>
</trkpt>
<trkpt lat="53.482012" lon="10.051620">
   <ele>3.226933</ele>
   <time>2014-03-08T15:31:49Z</time>
</trkpt>
<trkpt lat="53.482122" lon="10.051492">
   <ele>3.117641</ele>
   <time>2014-03-08T15:31:52Z</time>
</trkpt>
<trkpt lat="53.482266" lon="10.051329">
   <ele>2.966164</ele>
   <time>2014-03-08T15:31:56Z</time>
</trkpt>
<trkpt lat="53.482410" lon="10.051168">
   <ele>2.814133</ele>
   <time>2014-03-08T15:32:00Z</time>
</trkpt>
<trkpt lat="53.482528" lon="10.051052">
   <ele>2.737003</ele>
   <time>2014-03-08T15:32:03Z</time>
</trkpt>
<trkpt lat="53.482646" lon="10.050948">
   <ele>2.862827</ele>
   <time>2014-03-08T15:32:06Z</time>
</trkpt>
<trkpt lat="53.482829" lon="10.050822">
   <ele>3.008212</ele>
   <time>2014-03-08T15:32:10Z</time>
</trkpt>
<trkpt lat="53.482985" lon="10.050692">
   <ele>3.070887</ele>
   <time>2014-03-08T15:32:14Z</time>
</trkpt>
<trkpt lat="53.483108" lon="10.050596">
   <ele>3.076949</ele>
   <time>2014-03-08T15:32:17Z</time>
</trkpt>
<trkpt lat="53.483228" lon="10.050483">
   <ele>3.053237</ele>
   <time>2014-03-08T15:32:20Z</time>
</trkpt>
<trkpt lat="53.483393" lon="10.050368">
   <ele>2.897438</ele>
   <time>2014-03-08T15:32:24Z</time>
</trkpt>
<trkpt lat="53.483513" lon="10.050273">
   <ele>2.713851</ele>
   <time>2014-03-08T15:32:27Z</time>
</trkpt>
<trkpt lat="53.483672" lon="10.050179">
   <ele>2.506140</ele>
   <time>2014-03-08T15:32:31Z</time>
</trkpt>
<trkpt lat="53.483822" lon="10.050078">
   <ele>2.358692</ele>
   <time>2014-03-08T15:32:35Z</time>
</trkpt>
<trkpt lat="53.483939" lon="10.049994">
   <ele>2.280701</ele>
   <time>2014-03-08T15:32:38Z</time>
</trkpt>
<trkpt lat="53.484055" lon="10.049911">
   <ele>2.240116</ele>
   <time>2014-03-08T15:32:41Z</time>
</trkpt>
<trkpt lat="53.484220" lon="10.049787">
   <ele>2.191074</ele>
   <time>2014-03-08T15:32:45Z</time>
</trkpt>
<trkpt lat="53.484328" lon="10.049714">
   <ele>2.149345</ele>
   <time>2014-03-08T15:32:48Z</time>
</trkpt>
<trkpt lat="53.484458" lon="10.049634">
   <ele>2.090206</ele>
   <time>2014-03-08T15:32:51Z</time>
</trkpt>
<trkpt lat="53.484651" lon="10.049516">
   <ele>1.999847</ele>
   <time>2014-03-08T15:32:55Z</time>
</trkpt>
<trkpt lat="53.484809" lon="10.049426">
   <ele>1.917751</ele>
   <time>2014-03-08T15:32:59Z</time>
</trkpt>
<trkpt lat="53.484905" lon="10.049399">
   <ele>1.834923</ele>
   <time>2014-03-08T15:33:02Z</time>
</trkpt>
<trkpt lat="53.485069" lon="10.049334">
   <ele>1.733047</ele>
   <time>2014-03-08T15:33:06Z</time>
</trkpt>
<trkpt lat="53.485162" lon="10.049289">
   <ele>1.687467</ele>
   <time>2014-03-08T15:33:09Z</time>
</trkpt>
<trkpt lat="53.485348" lon="10.049225">
   <ele>1.541571</ele>
   <time>2014-03-08T15:33:13Z</time>
</trkpt>
<trkpt lat="53.485491" lon="10.049164">
   <ele>1.412004</ele>
   <time>2014-03-08T15:33:16Z</time>
</trkpt>
<trkpt lat="53.485651" lon="10.049112">
   <ele>1.233595</ele>
   <time>2014-03-08T15:33:20Z</time>
</trkpt>
<trkpt lat="53.485807" lon="10.049072">
   <ele>1.034535</ele>
   <time>2014-03-08T15:33:24Z</time>
</trkpt>
<trkpt lat="53.485929" lon="10.049045">
   <ele>1.246099</ele>
   <time>2014-03-08T15:33:27Z</time>
</trkpt>
<trkpt lat="53.486053" lon="10.049022">
   <ele>1.573499</ele>
   <time>2014-03-08T15:33:30Z</time>
</trkpt>
<trkpt lat="53.486221" lon="10.048989">
   <ele>2.029288</ele>
   <time>2014-03-08T15:33:34Z</time>
</trkpt>
<trkpt lat="53.486349" lon="10.048976">
   <ele>2.378315</ele>
   <time>2014-03-08T15:33:37Z</time>
</trkpt>
<trkpt lat="53.486519" lon="10.048961">
   <ele>2.849503</ele>
   <time>2014-03-08T15:33:41Z</time>
</trkpt>
<trkpt lat="53.486647" lon="10.048951">
   <ele>3.205826</ele>
   <time>2014-03-08T15:33:44Z</time>
</trkpt>
<trkpt lat="53.486811" lon="10.048937">
   <ele>3.448990</ele>
   <time>2014-03-08T15:33:48Z</time>
</trkpt>
<trkpt lat="53.486974" lon="10.048930">
   <ele>3.653492</ele>
   <time>2014-03-08T15:33:52Z</time>
</trkpt>
<trkpt lat="53.487094" lon="10.048921">
   <ele>3.807068</ele>
   <time>2014-03-08T15:33:55Z</time>
</trkpt>
<trkpt lat="53.487260" lon="10.048917">
   <ele>4.012146</ele>
   <time>2014-03-08T15:33:59Z</time>
</trkpt>
<trkpt lat="53.487434" lon="10.048920">
   <ele>4.216518</ele>
   <time>2014-03-08T15:34:03Z</time>
</trkpt>
<trkpt lat="53.487566" lon="10.048924">
   <ele>4.077824</ele>
   <time>2014-03-08T15:34:06Z</time>
</trkpt>
<trkpt lat="53.487689" lon="10.048930">
   <ele>3.667922</ele>
   <time>2014-03-08T15:34:09Z</time>
</trkpt>
<trkpt lat="53.487852" lon="10.048942">
   <ele>3.115343</ele>
   <time>2014-03-08T15:34:13Z</time>
</trkpt>
<trkpt lat="53.488015" lon="10.048924">
   <ele>2.617249</ele>
   <time>2014-03-08T15:34:17Z</time>
</trkpt>
<trkpt lat="53.488174" lon="10.048904">
   <ele>2.145608</ele>
   <time>2014-03-08T15:34:21Z</time>
</trkpt>
<trkpt lat="53.488334" lon="10.048881">
   <ele>1.686760</ele>
   <time>2014-03-08T15:34:25Z</time>
</trkpt>
<trkpt lat="53.488500" lon="10.048844">
   <ele>1.897760</ele>
   <time>2014-03-08T15:34:29Z</time>
</trkpt>
<trkpt lat="53.488666" lon="10.048828">
   <ele>2.049866</ele>
   <time>2014-03-08T15:34:33Z</time>
</trkpt>
<trkpt lat="53.488784" lon="10.048797">
   <ele>2.187983</ele>
   <time>2014-03-08T15:34:36Z</time>
</trkpt>
<trkpt lat="53.488939" lon="10.048771">
   <ele>2.331068</ele>
   <time>2014-03-08T15:34:40Z</time>
</trkpt>
<trkpt lat="53.489098" lon="10.048732">
   <ele>2.482447</ele>
   <time>2014-03-08T15:34:44Z</time>
</trkpt>
<trkpt lat="53.489218" lon="10.048695">
   <ele>2.530566</ele>
   <time>2014-03-08T15:34:47Z</time>
</trkpt>
<trkpt lat="53.489381" lon="10.048649">
   <ele>2.460881</ele>
   <time>2014-03-08T15:34:51Z</time>
</trkpt>
<trkpt lat="53.489538" lon="10.048606">
   <ele>2.373270</ele>
   <time>2014-03-08T15:34:55Z</time>
</trkpt>
<trkpt lat="53.489651" lon="10.048561">
   <ele>2.304027</ele>
   <time>2014-03-08T15:34:58Z</time>
</trkpt>
<trkpt lat="53.489766" lon="10.048518">
   <ele>2.218398</ele>
   <time>2014-03-08T15:35:01Z</time>
</trkpt>
<trkpt lat="53.489878" lon="10.048476">
   <ele>2.121702</ele>
   <time>2014-03-08T15:35:04Z</time>
</trkpt>
<trkpt lat="53.489992" lon="10.048452">
   <ele>2.007955</ele>
   <time>2014-03-08T15:35:08Z</time>
</trkpt>
<trkpt lat="53.490178" lon="10.048381">
   <ele>1.987898</ele>
   <time>2014-03-08T15:35:12Z</time>
</trkpt>
<trkpt lat="53.490277" lon="10.048346">
   <ele>1.995059</ele>
   <time>2014-03-08T15:35:15Z</time>
</trkpt>
<trkpt lat="53.490414" lon="10.048278">
   <ele>1.933983</ele>
   <time>2014-03-08T15:35:19Z</time>
</trkpt>
<trkpt lat="53.490505" lon="10.048233">
   <ele>1.879936</ele>
   <time>2014-03-08T15:35:22Z</time>
</trkpt>
<trkpt lat="53.490610" lon="10.048184">
   <ele>1.821133</ele>
   <time>2014-03-08T15:35:26Z</time>
</trkpt>
<trkpt lat="53.490626" lon="10.048256">
   <ele>1.907478</ele>
   <time>2014-03-08T15:37:31Z</time>
</trkpt>
<trkpt lat="53.490634" lon="10.048181">
   <ele>1.817039</ele>
   <time>2014-03-08T15:38:17Z</time>
</trkpt>
<trkpt lat="53.490723" lon="10.048106">
   <ele>1.726784</ele>
   <time>2014-03-08T15:38:27Z</time>
</trkpt>
<trkpt lat="53.490792" lon="10.048059">
   <ele>1.670799</ele>
   <time>2014-03-08T15:38:30Z</time>
</trkpt>
<trkpt lat="53.490841" lon="10.047981">
   <ele>1.591644</ele>
   <time>2014-03-08T15:38:34Z</time>
</trkpt>
<trkpt lat="53.490760" lon="10.047915">
   <ele>1.497822</ele>
   <time>2014-03-08T15:38:38Z</time>
</trkpt>
<trkpt lat="53.490582" lon="10.047899">
   <ele>1.479099</ele>
   <time>2014-03-08T15:38:41Z</time>
</trkpt>
<trkpt lat="53.490566" lon="10.047787">
   <ele>1.344383</ele>
   <time>2014-03-08T15:38:47Z</time>
</trkpt>
<trkpt lat="53.490568" lon="10.047670">
   <ele>1.203789</ele>
   <time>2014-03-08T15:38:51Z</time>
</trkpt>
<trkpt lat="53.490667" lon="10.047480">
   <ele>1.000000</ele>
   <time>2014-03-08T15:38:54Z</time>
</trkpt>
<trkpt lat="53.490750" lon="10.047336">
   <ele>1.000000</ele>
   <time>2014-03-08T15:38:58Z</time>
</trkpt>
<trkpt lat="53.490834" lon="10.047193">
   <ele>1.001221</ele>
   <time>2014-03-08T15:39:01Z</time>
</trkpt>
<trkpt lat="53.490947" lon="10.047000">
   <ele>1.272705</ele>
   <time>2014-03-08T15:39:05Z</time>
</trkpt>
<trkpt lat="53.491021" lon="10.046874">
   <ele>1.449219</ele>
   <time>2014-03-08T15:39:08Z</time>
</trkpt>
<trkpt lat="53.491111" lon="10.046718">
   <ele>1.666870</ele>
   <time>2014-03-08T15:39:12Z</time>
</trkpt>
<trkpt lat="53.491179" lon="10.046602">
   <ele>1.797298</ele>
   <time>2014-03-08T15:39:15Z</time>
</trkpt>
<trkpt lat="53.491247" lon="10.046485">
   <ele>1.883981</ele>
   <time>2014-03-08T15:39:18Z</time>
</trkpt>
<trkpt lat="53.491318" lon="10.046362">
   <ele>1.950580</ele>
   <time>2014-03-08T15:39:21Z</time>
</trkpt>
<trkpt lat="53.491409" lon="10.046206">
   <ele>1.999106</ele>
   <time>2014-03-08T15:39:25Z</time>
</trkpt>
<trkpt lat="53.491470" lon="10.046093">
   <ele>2.001977</ele>
   <time>2014-03-08T15:39:28Z</time>
</trkpt>
<trkpt lat="53.491510" lon="10.046000">
   <ele>1.974392</ele>
   <time>2014-03-08T15:39:31Z</time>
</trkpt>
<trkpt lat="53.491574" lon="10.045786">
   <ele>1.889099</ele>
   <time>2014-03-08T15:39:35Z</time>
</trkpt>
<trkpt lat="53.491618" lon="10.045597">
   <ele>1.942017</ele>
   <time>2014-03-08T15:39:39Z</time>
</trkpt>
<trkpt lat="53.491649" lon="10.045459">
   <ele>1.978882</ele>
   <time>2014-03-08T15:39:42Z</time>
</trkpt>
<trkpt lat="53.491695" lon="10.045254">
   <ele>2.101807</ele>
   <time>2014-03-08T15:39:46Z</time>
</trkpt>
<trkpt lat="53.491728" lon="10.045103">
   <ele>2.221375</ele>
   <time>2014-03-08T15:39:49Z</time>
</trkpt>
<trkpt lat="53.491774" lon="10.044886">
   <ele>2.248238</ele>
   <time>2014-03-08T15:39:53Z</time>
</trkpt>
<trkpt lat="53.491808" lon="10.044718">
   <ele>2.170979</ele>
   <time>2014-03-08T15:39:56Z</time>
</trkpt>
<trkpt lat="53.491843" lon="10.044540">
   <ele>2.082424</ele>
   <time>2014-03-08T15:39:59Z</time>
</trkpt>
<trkpt lat="53.491875" lon="10.044355">
   <ele>1.974895</ele>
   <time>2014-03-08T15:40:02Z</time>
</trkpt>
<trkpt lat="53.491906" lon="10.044172">
   <ele>1.866238</ele>
   <time>2014-03-08T15:40:05Z</time>
</trkpt>
<trkpt lat="53.491947" lon="10.043928">
   <ele>1.911527</ele>
   <time>2014-03-08T15:40:09Z</time>
</trkpt>
<trkpt lat="53.491988" lon="10.043668">
   <ele>1.926946</ele>
   <time>2014-03-08T15:40:13Z</time>
</trkpt>
<trkpt lat="53.492022" lon="10.043459">
   <ele>1.916738</ele>
   <time>2014-03-08T15:40:16Z</time>
</trkpt>
<trkpt lat="53.492091" lon="10.043283">
   <ele>1.987588</ele>
   <time>2014-03-08T15:40:19Z</time>
</trkpt>
<trkpt lat="53.492222" lon="10.043093">
   <ele>2.141359</ele>
   <time>2014-03-08T15:40:23Z</time>
</trkpt>
<trkpt lat="53.492345" lon="10.043044">
   <ele>2.346235</ele>
   <time>2014-03-08T15:40:26Z</time>
</trkpt>
<trkpt lat="53.492470" lon="10.042994">
   <ele>2.535667</ele>
   <time>2014-03-08T15:40:29Z</time>
</trkpt>
<trkpt lat="53.492582" lon="10.042949">
   <ele>2.591660</ele>
   <time>2014-03-08T15:40:32Z</time>
</trkpt>
<trkpt lat="53.492735" lon="10.042887">
   <ele>2.595922</ele>
   <time>2014-03-08T15:40:36Z</time>
</trkpt>
<trkpt lat="53.492858" lon="10.042838">
   <ele>2.579688</ele>
   <time>2014-03-08T15:40:39Z</time>
</trkpt>
<trkpt lat="53.493016" lon="10.042774">
   <ele>2.533138</ele>
   <time>2014-03-08T15:40:43Z</time>
</trkpt>
<trkpt lat="53.493163" lon="10.042715">
   <ele>2.464020</ele>
   <time>2014-03-08T15:40:47Z</time>
</trkpt>
<trkpt lat="53.493309" lon="10.042654">
   <ele>2.365173</ele>
   <time>2014-03-08T15:40:51Z</time>
</trkpt>
<trkpt lat="53.493467" lon="10.042579">
   <ele>2.335507</ele>
   <time>2014-03-08T15:40:55Z</time>
</trkpt>
<trkpt lat="53.493621" lon="10.042504">
   <ele>2.353614</ele>
   <time>2014-03-08T15:40:59Z</time>
</trkpt>
<trkpt lat="53.493733" lon="10.042466">
   <ele>2.438126</ele>
   <time>2014-03-08T15:41:02Z</time>
</trkpt>
<trkpt lat="53.493906" lon="10.042425">
   <ele>2.597530</ele>
   <time>2014-03-08T15:41:06Z</time>
</trkpt>
<trkpt lat="53.494065" lon="10.042460">
   <ele>2.829746</ele>
   <time>2014-03-08T15:41:10Z</time>
</trkpt>
<trkpt lat="53.494180" lon="10.042509">
   <ele>3.010520</ele>
   <time>2014-03-08T15:41:13Z</time>
</trkpt>
<trkpt lat="53.494327" lon="10.042581">
   <ele>3.059551</ele>
   <time>2014-03-08T15:41:17Z</time>
</trkpt>
<trkpt lat="53.494439" lon="10.042630">
   <ele>3.054021</ele>
   <time>2014-03-08T15:41:20Z</time>
</trkpt>
<trkpt lat="53.494578" lon="10.042723">
   <ele>3.003590</ele>
   <time>2014-03-08T15:41:24Z</time>
</trkpt>
<trkpt lat="53.494682" lon="10.042776">
   <ele>2.921435</ele>
   <time>2014-03-08T15:41:27Z</time>
</trkpt>
<trkpt lat="53.494827" lon="10.042837">
   <ele>2.763389</ele>
   <time>2014-03-08T15:41:31Z</time>
</trkpt>
<trkpt lat="53.494938" lon="10.042877">
   <ele>2.615402</ele>
   <time>2014-03-08T15:41:34Z</time>
</trkpt>
<trkpt lat="53.495098" lon="10.042896">
   <ele>2.519317</ele>
   <time>2014-03-08T15:41:38Z</time>
</trkpt>
<trkpt lat="53.495220" lon="10.042872">
   <ele>2.525544</ele>
   <time>2014-03-08T15:41:41Z</time>
</trkpt>
<trkpt lat="53.495370" lon="10.042805">
   <ele>2.515104</ele>
   <time>2014-03-08T15:41:45Z</time>
</trkpt>
<trkpt lat="53.495516" lon="10.042725">
   <ele>2.445179</ele>
   <time>2014-03-08T15:41:49Z</time>
</trkpt>
<trkpt lat="53.495631" lon="10.042668">
   <ele>2.346268</ele>
   <time>2014-03-08T15:41:52Z</time>
</trkpt>
<trkpt lat="53.495753" lon="10.042617">
   <ele>2.209227</ele>
   <time>2014-03-08T15:41:55Z</time>
</trkpt>
<trkpt lat="53.495889" lon="10.042568">
   <ele>2.081284</ele>
   <time>2014-03-08T15:41:58Z</time>
</trkpt>
<trkpt lat="53.496059" lon="10.042499">
   <ele>1.999129</ele>
   <time>2014-03-08T15:42:02Z</time>
</trkpt>
<trkpt lat="53.496218" lon="10.042420">
   <ele>1.948628</ele>
   <time>2014-03-08T15:42:06Z</time>
</trkpt>
<trkpt lat="53.496340" lon="10.042320">
   <ele>1.915400</ele>
   <time>2014-03-08T15:42:09Z</time>
</trkpt>
<trkpt lat="53.496444" lon="10.042222">
   <ele>1.910718</ele>
   <time>2014-03-08T15:42:12Z</time>
</trkpt>
<trkpt lat="53.496572" lon="10.042080">
   <ele>1.942571</ele>
   <time>2014-03-08T15:42:16Z</time>
</trkpt>
<trkpt lat="53.496703" lon="10.041917">
   <ele>2.086426</ele>
   <time>2014-03-08T15:42:20Z</time>
</trkpt>
<trkpt lat="53.496833" lon="10.041789">
   <ele>2.399292</ele>
   <time>2014-03-08T15:42:24Z</time>
</trkpt>
<trkpt lat="53.496950" lon="10.041692">
   <ele>2.680420</ele>
   <time>2014-03-08T15:42:28Z</time>
</trkpt>
<trkpt lat="53.496995" lon="10.041536">
   <ele>2.630512</ele>
   <time>2014-03-08T15:42:31Z</time>
</trkpt>
<trkpt lat="53.497090" lon="10.041409">
   <ele>2.705978</ele>
   <time>2014-03-08T15:42:35Z</time>
</trkpt>
<trkpt lat="53.497197" lon="10.041262">
   <ele>2.787949</ele>
   <time>2014-03-08T15:42:39Z</time>
</trkpt>
<trkpt lat="53.497270" lon="10.041162">
   <ele>2.843708</ele>
   <time>2014-03-08T15:42:42Z</time>
</trkpt>
<trkpt lat="53.497380" lon="10.040973">
   <ele>2.880199</ele>
   <time>2014-03-08T15:42:46Z</time>
</trkpt>
<trkpt lat="53.497460" lon="10.040836">
   <ele>2.906616</ele>
   <time>2014-03-08T15:42:50Z</time>
</trkpt>
<trkpt lat="53.497524" lon="10.040725">
   <ele>2.931498</ele>
   <time>2014-03-08T15:42:54Z</time>
</trkpt>
<trkpt lat="53.497607" lon="10.040582">
   <ele>2.993910</ele>
   <time>2014-03-08T15:42:58Z</time>
</trkpt>
<trkpt lat="53.497680" lon="10.040457">
   <ele>3.076692</ele>
   <time>2014-03-08T15:43:01Z</time>
</trkpt>
<trkpt lat="53.497768" lon="10.040305">
   <ele>3.212427</ele>
   <time>2014-03-08T15:43:05Z</time>
</trkpt>
<trkpt lat="53.497863" lon="10.040141">
   <ele>3.401310</ele>
   <time>2014-03-08T15:43:09Z</time>
</trkpt>
<trkpt lat="53.497927" lon="10.040030">
   <ele>3.554832</ele>
   <time>2014-03-08T15:43:12Z</time>
</trkpt>
<trkpt lat="53.498011" lon="10.039886">
   <ele>3.870317</ele>
   <time>2014-03-08T15:43:15Z</time>
</trkpt>
<trkpt lat="53.498113" lon="10.039709">
   <ele>4.373116</ele>
   <time>2014-03-08T15:43:19Z</time>
</trkpt>
<trkpt lat="53.498201" lon="10.039559">
   <ele>4.883581</ele>
   <time>2014-03-08T15:43:22Z</time>
</trkpt>
<trkpt lat="53.498334" lon="10.039328">
   <ele>5.805889</ele>
   <time>2014-03-08T15:43:25Z</time>
</trkpt>
<trkpt lat="53.498444" lon="10.039139">
   <ele>6.000000</ele>
   <time>2014-03-08T15:43:28Z</time>
</trkpt>
<trkpt lat="53.498510" lon="10.039024">
   <ele>6.000000</ele>
   <time>2014-03-08T15:43:31Z</time>
</trkpt>
<trkpt lat="53.498634" lon="10.038720">
   <ele>6.000000</ele>
   <time>2014-03-08T15:43:35Z</time>
</trkpt>
<trkpt lat="53.498678" lon="10.038437">
   <ele>6.000000</ele>
   <time>2014-03-08T15:43:38Z</time>
</trkpt>
<trkpt lat="53.498695" lon="10.038053">
   <ele>5.327972</ele>
   <time>2014-03-08T15:43:42Z</time>
</trkpt>
<trkpt lat="53.498698" lon="10.037892">
   <ele>4.941574</ele>
   <time>2014-03-08T15:43:46Z</time>
</trkpt>
<trkpt lat="53.498697" lon="10.037685">
   <ele>4.444817</ele>
   <time>2014-03-08T15:43:49Z</time>
</trkpt>
<trkpt lat="53.498684" lon="10.037244">
   <ele>3.692871</ele>
   <time>2014-03-08T15:43:52Z</time>
</trkpt>
<trkpt lat="53.498640" lon="10.036842">
   <ele>3.210781</ele>
   <time>2014-03-08T15:43:56Z</time>
</trkpt>
<trkpt lat="53.498608" lon="10.036660">
   <ele>2.989813</ele>
   <time>2014-03-08T15:43:59Z</time>
</trkpt>
<trkpt lat="53.498533" lon="10.036335">
   <ele>2.507202</ele>
   <time>2014-03-08T15:44:03Z</time>
</trkpt>
<trkpt lat="53.498508" lon="10.036088">
   <ele>2.159963</ele>
   <time>2014-03-08T15:44:06Z</time>
</trkpt>
<trkpt lat="53.498514" lon="10.035825">
   <ele>1.785616</ele>
   <time>2014-03-08T15:44:10Z</time>
</trkpt>
<trkpt lat="53.498523" lon="10.035687">
   <ele>1.811965</ele>
   <time>2014-03-08T15:44:13Z</time>
</trkpt>
<trkpt lat="53.498537" lon="10.035489">
   <ele>1.856518</ele>
   <time>2014-03-08T15:44:16Z</time>
</trkpt>
<trkpt lat="53.498555" lon="10.035226">
   <ele>1.927808</ele>
   <time>2014-03-08T15:44:20Z</time>
</trkpt>
<trkpt lat="53.498568" lon="10.035018">
   <ele>1.993769</ele>
   <time>2014-03-08T15:44:23Z</time>
</trkpt>
<trkpt lat="53.498584" lon="10.034720">
   <ele>1.765286</ele>
   <time>2014-03-08T15:44:27Z</time>
</trkpt>
<trkpt lat="53.498597" lon="10.034442">
   <ele>1.542248</ele>
   <time>2014-03-08T15:44:31Z</time>
</trkpt>
<trkpt lat="53.498608" lon="10.034221">
   <ele>1.373541</ele>
   <time>2014-03-08T15:44:34Z</time>
</trkpt>
<trkpt lat="53.498619" lon="10.034015">
   <ele>1.000000</ele>
   <time>2014-03-08T15:44:37Z</time>
</trkpt>
<trkpt lat="53.498635" lon="10.033742">
   <ele>1.000000</ele>
   <time>2014-03-08T15:44:41Z</time>
</trkpt>
<trkpt lat="53.498648" lon="10.033551">
   <ele>1.000000</ele>
   <time>2014-03-08T15:44:44Z</time>
</trkpt>
<trkpt lat="53.498675" lon="10.033266">
   <ele>1.000000</ele>
   <time>2014-03-08T15:44:48Z</time>
</trkpt>
<trkpt lat="53.498708" lon="10.032979">
   <ele>1.000000</ele>
   <time>2014-03-08T15:44:52Z</time>
</trkpt>
<trkpt lat="53.498731" lon="10.032782">
   <ele>1.000000</ele>
   <time>2014-03-08T15:44:55Z</time>
</trkpt>
<trkpt lat="53.498762" lon="10.032519">
   <ele>1.000000</ele>
   <time>2014-03-08T15:44:59Z</time>
</trkpt>
<trkpt lat="53.498793" lon="10.032262">
   <ele>0.000000</ele>
   <time>2014-03-08T15:45:03Z</time>
</trkpt>
<trkpt lat="53.498814" lon="10.032081">
   <ele>0.000000</ele>
   <time>2014-03-08T15:45:06Z</time>
</trkpt>
<trkpt lat="53.498837" lon="10.031886">
   <ele>0.000000</ele>
   <time>2014-03-08T15:45:10Z</time>
</trkpt>
<trkpt lat="53.498857" lon="10.031716">
   <ele>0.000000</ele>
   <time>2014-03-08T15:45:13Z</time>
</trkpt>
<trkpt lat="53.498877" lon="10.031546">
   <ele>0.000000</ele>
   <time>2014-03-08T15:45:16Z</time>
</trkpt>
<trkpt lat="53.498904" lon="10.031320">
   <ele>0.000000</ele>
   <time>2014-03-08T15:45:20Z</time>
</trkpt>
<trkpt lat="53.498924" lon="10.031147">
   <ele>0.000000</ele>
   <time>2014-03-08T15:45:23Z</time>
</trkpt>
<trkpt lat="53.498947" lon="10.030951">
   <ele>0.000000</ele>
   <time>2014-03-08T15:45:26Z</time>
</trkpt>
<trkpt lat="53.498970" lon="10.030756">
   <ele>0.000000</ele>
   <time>2014-03-08T15:45:29Z</time>
</trkpt>
<trkpt lat="53.499000" lon="10.030502">
   <ele>0.000000</ele>
   <time>2014-03-08T15:45:33Z</time>
</trkpt>
<trkpt lat="53.499031" lon="10.030234">
   <ele>0.000000</ele>
   <time>2014-03-08T15:45:37Z</time>
</trkpt>
<trkpt lat="53.499043" lon="10.029963">
   <ele>1.000000</ele>
   <time>2014-03-08T15:45:41Z</time>
</trkpt>
<trkpt lat="53.499084" lon="10.029784">
   <ele>1.000000</ele>
   <time>2014-03-08T15:45:44Z</time>
</trkpt>
<trkpt lat="53.499114" lon="10.029534">
   <ele>1.000000</ele>
   <time>2014-03-08T15:45:48Z</time>
</trkpt>
<trkpt lat="53.499135" lon="10.029349">
   <ele>1.000000</ele>
   <time>2014-03-08T15:45:51Z</time>
</trkpt>
<trkpt lat="53.499158" lon="10.029161">
   <ele>1.007116</ele>
   <time>2014-03-08T15:45:54Z</time>
</trkpt>
<trkpt lat="53.499185" lon="10.028924">
   <ele>1.314163</ele>
   <time>2014-03-08T15:45:58Z</time>
</trkpt>
<trkpt lat="53.499209" lon="10.028726">
   <ele>1.579159</ele>
   <time>2014-03-08T15:46:01Z</time>
</trkpt>
<trkpt lat="53.499238" lon="10.028475">
   <ele>1.915432</ele>
   <time>2014-03-08T15:46:05Z</time>
</trkpt>
<trkpt lat="53.499260" lon="10.028296">
   <ele>2.107148</ele>
   <time>2014-03-08T15:46:08Z</time>
</trkpt>
<trkpt lat="53.499281" lon="10.028122">
   <ele>2.102790</ele>
   <time>2014-03-08T15:46:11Z</time>
</trkpt>
<trkpt lat="53.499301" lon="10.027959">
   <ele>2.089110</ele>
   <time>2014-03-08T15:46:14Z</time>
</trkpt>
<trkpt lat="53.499322" lon="10.027789">
   <ele>2.064689</ele>
   <time>2014-03-08T15:46:17Z</time>
</trkpt>
<trkpt lat="53.499356" lon="10.027514">
   <ele>2.003822</ele>
   <time>2014-03-08T15:46:21Z</time>
</trkpt>
<trkpt lat="53.499379" lon="10.027326">
   <ele>2.000000</ele>
   <time>2014-03-08T15:46:24Z</time>
</trkpt>
<trkpt lat="53.499402" lon="10.027135">
   <ele>2.000000</ele>
   <time>2014-03-08T15:46:27Z</time>
</trkpt>
<trkpt lat="53.499436" lon="10.026860">
   <ele>2.000000</ele>
   <time>2014-03-08T15:46:31Z</time>
</trkpt>
<trkpt lat="53.499470" lon="10.026581">
   <ele>2.065585</ele>
   <time>2014-03-08T15:46:35Z</time>
</trkpt>
<trkpt lat="53.499499" lon="10.026345">
   <ele>2.231843</ele>
   <time>2014-03-08T15:46:38Z</time>
</trkpt>
<trkpt lat="53.499524" lon="10.026145">
   <ele>2.358086</ele>
   <time>2014-03-08T15:46:41Z</time>
</trkpt>
<trkpt lat="53.499552" lon="10.025912">
   <ele>2.486642</ele>
   <time>2014-03-08T15:46:45Z</time>
</trkpt>
<trkpt lat="53.499575" lon="10.025726">
   <ele>2.510132</ele>
   <time>2014-03-08T15:46:49Z</time>
</trkpt>
<trkpt lat="53.499596" lon="10.025549">
   <ele>2.484192</ele>
   <time>2014-03-08T15:46:53Z</time>
</trkpt>
<trkpt lat="53.499606" lon="10.025468">
   <ele>2.472351</ele>
   <time>2014-03-08T15:46:56Z</time>
</trkpt>
<trkpt lat="53.499558" lon="10.025321">
   <ele>2.530273</ele>
   <time>2014-03-08T15:47:00Z</time>
</trkpt>
<trkpt lat="53.499571" lon="10.025405">
   <ele>2.514954</ele>
   <time>2014-03-08T15:48:03Z</time>
</trkpt>
<trkpt lat="53.499528" lon="10.025349">
   <ele>2.566650</ele>
   <time>2014-03-08T15:48:08Z</time>
</trkpt>
<trkpt lat="53.499483" lon="10.025301">
   <ele>2.620728</ele>
   <time>2014-03-08T15:48:12Z</time>
</trkpt>
<trkpt lat="53.499518" lon="10.025355">
   <ele>2.578186</ele>
   <time>2014-03-08T15:48:44Z</time>
</trkpt>
<trkpt lat="53.499557" lon="10.025435">
   <ele>2.532166</ele>
   <time>2014-03-08T15:49:38Z</time>
</trkpt>
<trkpt lat="53.499578" lon="10.025567">
   <ele>2.506470</ele>
   <time>2014-03-08T15:49:42Z</time>
</trkpt>
<trkpt lat="53.499581" lon="10.025674">
   <ele>2.502563</ele>
   <time>2014-03-08T15:49:46Z</time>
</trkpt>
<trkpt lat="53.499607" lon="10.025465">
   <ele>2.471863</ele>
   <time>2014-03-08T15:49:50Z</time>
</trkpt>
<trkpt lat="53.499822" lon="10.025797">
   <ele>2.213684</ele>
   <time>2014-03-08T15:49:54Z</time>
</trkpt>
<trkpt lat="53.499960" lon="10.025899">
   <ele>2.044333</ele>
   <time>2014-03-08T15:49:57Z</time>
</trkpt>
<trkpt lat="53.500132" lon="10.026008">
   <ele>1.874428</ele>
   <time>2014-03-08T15:50:01Z</time>
</trkpt>
<trkpt lat="53.500294" lon="10.026100">
   <ele>1.759636</ele>
   <time>2014-03-08T15:50:05Z</time>
</trkpt>
<trkpt lat="53.500416" lon="10.026161">
   <ele>1.697660</ele>
   <time>2014-03-08T15:50:08Z</time>
</trkpt>
<trkpt lat="53.500573" lon="10.026217">
   <ele>1.628918</ele>
   <time>2014-03-08T15:50:12Z</time>
</trkpt>
<trkpt lat="53.500683" lon="10.026263">
   <ele>1.603248</ele>
   <time>2014-03-08T15:50:15Z</time>
</trkpt>
<trkpt lat="53.500835" lon="10.026317">
   <ele>1.581609</ele>
   <time>2014-03-08T15:50:19Z</time>
</trkpt>
<trkpt lat="53.500953" lon="10.026337">
   <ele>1.661362</ele>
   <time>2014-03-08T15:50:22Z</time>
</trkpt>
<trkpt lat="53.501068" lon="10.026368">
   <ele>1.742357</ele>
   <time>2014-03-08T15:50:25Z</time>
</trkpt>
<trkpt lat="53.501158" lon="10.026404">
   <ele>1.807453</ele>
   <time>2014-03-08T15:50:29Z</time>
</trkpt>
<trkpt lat="53.501350" lon="10.026485">
   <ele>1.916869</ele>
   <time>2014-03-08T15:50:33Z</time>
</trkpt>
<trkpt lat="53.501483" lon="10.026545">
   <ele>1.967800</ele>
   <time>2014-03-08T15:50:37Z</time>
</trkpt>
<trkpt lat="53.501622" lon="10.026606">
   <ele>1.996160</ele>
   <time>2014-03-08T15:50:41Z</time>
</trkpt>
<trkpt lat="53.501749" lon="10.026658">
   <ele>1.000000</ele>
   <time>2014-03-08T15:50:44Z</time>
</trkpt>
<trkpt lat="53.501866" lon="10.026712">
   <ele>-0.013155</ele>
   <time>2014-03-08T15:50:47Z</time>
</trkpt>
<trkpt lat="53.501979" lon="10.026769">
   <ele>-0.046009</ele>
   <time>2014-03-08T15:50:50Z</time>
</trkpt>
<trkpt lat="53.502101" lon="10.026822">
   <ele>-0.096865</ele>
   <time>2014-03-08T15:50:53Z</time>
</trkpt>
<trkpt lat="53.502244" lon="10.026886">
   <ele>-0.182419</ele>
   <time>2014-03-08T15:50:57Z</time>
</trkpt>
<trkpt lat="53.502387" lon="10.026932">
   <ele>-0.275423</ele>
   <time>2014-03-08T15:51:01Z</time>
</trkpt>
<trkpt lat="53.502539" lon="10.026960">
   <ele>0.329328</ele>
   <time>2014-03-08T15:51:05Z</time>
</trkpt>
<trkpt lat="53.502641" lon="10.026933">
   <ele>0.468055</ele>
   <time>2014-03-08T15:51:08Z</time>
</trkpt>
<trkpt lat="53.502734" lon="10.026874">
   <ele>0.642783</ele>
   <time>2014-03-08T15:51:12Z</time>
</trkpt>
<trkpt lat="53.502739" lon="10.026678">
   <ele>0.981045</ele>
   <time>2014-03-08T15:51:16Z</time>
</trkpt>
<trkpt lat="53.502730" lon="10.026517">
   <ele>1.000000</ele>
   <time>2014-03-08T15:51:20Z</time>
</trkpt>
<trkpt lat="53.502730" lon="10.026438">
   <ele>1.000000</ele>
   <time>2014-03-08T15:51:44Z</time>
</trkpt>
<trkpt lat="53.502742" lon="10.026347">
   <ele>1.000000</ele>
   <time>2014-03-08T15:51:49Z</time>
</trkpt>
<trkpt lat="53.502755" lon="10.026180">
   <ele>1.000000</ele>
   <time>2014-03-08T15:51:53Z</time>
</trkpt>
<trkpt lat="53.502778" lon="10.025955">
   <ele>1.000000</ele>
   <time>2014-03-08T15:51:57Z</time>
</trkpt>
<trkpt lat="53.502808" lon="10.025781">
   <ele>1.000000</ele>
   <time>2014-03-08T15:52:00Z</time>
</trkpt>
<trkpt lat="53.502858" lon="10.025542">
   <ele>1.000000</ele>
   <time>2014-03-08T15:52:04Z</time>
</trkpt>
<trkpt lat="53.502882" lon="10.025353">
   <ele>1.000000</ele>
   <time>2014-03-08T15:52:07Z</time>
</trkpt>
<trkpt lat="53.502926" lon="10.025163">
   <ele>1.000000</ele>
   <time>2014-03-08T15:52:11Z</time>
</trkpt>
<trkpt lat="53.502949" lon="10.024981">
   <ele>1.000000</ele>
   <time>2014-03-08T15:52:15Z</time>
</trkpt>
<trkpt lat="53.502981" lon="10.024894">
   <ele>1.000000</ele>
   <time>2014-03-08T15:52:19Z</time>
</trkpt>
<trkpt lat="53.502992" lon="10.024978">
   <ele>1.000000</ele>
   <time>2014-03-08T15:52:24Z</time>
</trkpt>
<trkpt lat="53.503042" lon="10.025005">
   <ele>1.000000</ele>
   <time>2014-03-08T15:52:29Z</time>
</trkpt>
<trkpt lat="53.503109" lon="10.024927">
   <ele>1.000000</ele>
   <time>2014-03-08T15:52:33Z</time>
</trkpt>
<trkpt lat="53.503239" lon="10.024837">
   <ele>1.000000</ele>
   <time>2014-03-08T15:52:37Z</time>
</trkpt>
<trkpt lat="53.503344" lon="10.024803">
   <ele>0.000000</ele>
   <time>2014-03-08T15:52:40Z</time>
</trkpt>
<trkpt lat="53.503443" lon="10.024765">
   <ele>0.000000</ele>
   <time>2014-03-08T15:52:43Z</time>
</trkpt>
<trkpt lat="53.503563" lon="10.024650">
   <ele>0.000000</ele>
   <time>2014-03-08T15:52:47Z</time>
</trkpt>
<trkpt lat="53.503680" lon="10.024517">
   <ele>0.000000</ele>
   <time>2014-03-08T15:52:51Z</time>
</trkpt>
<trkpt lat="53.503770" lon="10.024431">
   <ele>0.000000</ele>
   <time>2014-03-08T15:52:54Z</time>
</trkpt>
<trkpt lat="53.503891" lon="10.024317">
   <ele>0.000000</ele>
   <time>2014-03-08T15:52:58Z</time>
</trkpt>
<trkpt lat="53.503977" lon="10.024223">
   <ele>0.000000</ele>
   <time>2014-03-08T15:53:01Z</time>
</trkpt>
<trkpt lat="53.504087" lon="10.024092">
   <ele>0.000000</ele>
   <time>2014-03-08T15:53:05Z</time>
</trkpt>
<trkpt lat="53.504165" lon="10.024024">
   <ele>0.000000</ele>
   <time>2014-03-08T15:53:08Z</time>
</trkpt>
<trkpt lat="53.504274" lon="10.023919">
   <ele>1.000000</ele>
   <time>2014-03-08T15:53:12Z</time>
</trkpt>
<trkpt lat="53.504368" lon="10.023824">
   <ele>1.000000</ele>
   <time>2014-03-08T15:53:15Z</time>
</trkpt>
<trkpt lat="53.504500" lon="10.023731">
   <ele>1.000000</ele>
   <time>2014-03-08T15:53:19Z</time>
</trkpt>
<trkpt lat="53.504590" lon="10.023640">
   <ele>1.000000</ele>
   <time>2014-03-08T15:53:22Z</time>
</trkpt>
<trkpt lat="53.504689" lon="10.023538">
   <ele>1.000000</ele>
   <time>2014-03-08T15:53:25Z</time>
</trkpt>
<trkpt lat="53.504831" lon="10.023408">
   <ele>1.000000</ele>
   <time>2014-03-08T15:53:29Z</time>
</trkpt>
<trkpt lat="53.504977" lon="10.023292">
   <ele>1.000000</ele>
   <time>2014-03-08T15:53:33Z</time>
</trkpt>
<trkpt lat="53.505072" lon="10.023225">
   <ele>1.869884</ele>
   <time>2014-03-08T15:53:36Z</time>
</trkpt>
<trkpt lat="53.505160" lon="10.023154">
   <ele>1.784590</ele>
   <time>2014-03-08T15:53:39Z</time>
</trkpt>
<trkpt lat="53.505290" lon="10.023052">
   <ele>1.662481</ele>
   <time>2014-03-08T15:53:43Z</time>
</trkpt>
<trkpt lat="53.505411" lon="10.022950">
   <ele>1.539671</ele>
   <time>2014-03-08T15:53:47Z</time>
</trkpt>
<trkpt lat="53.505505" lon="10.022868">
   <ele>1.441301</ele>
   <time>2014-03-08T15:53:50Z</time>
</trkpt>
<trkpt lat="53.505604" lon="10.022780">
   <ele>1.336191</ele>
   <time>2014-03-08T15:53:53Z</time>
</trkpt>
<trkpt lat="53.505716" lon="10.022662">
   <ele>1.194773</ele>
   <time>2014-03-08T15:53:57Z</time>
</trkpt>
<trkpt lat="53.505680" lon="10.022520">
   <ele>1.024082</ele>
   <time>2014-03-08T15:54:00Z</time>
</trkpt>
<trkpt lat="53.505604" lon="10.022423">
   <ele>1.000000</ele>
   <time>2014-03-08T15:54:03Z</time>
</trkpt>
<trkpt lat="53.505553" lon="10.022328">
   <ele>1.000000</ele>
   <time>2014-03-08T15:54:06Z</time>
</trkpt>
<trkpt lat="53.505474" lon="10.022188">
   <ele>1.000000</ele>
   <time>2014-03-08T15:54:10Z</time>
</trkpt>
<trkpt lat="53.505398" lon="10.022051">
   <ele>1.000000</ele>
   <time>2014-03-08T15:54:13Z</time>
</trkpt>
<trkpt lat="53.505294" lon="10.021866">
   <ele>1.000000</ele>
   <time>2014-03-08T15:54:17Z</time>
</trkpt>
<trkpt lat="53.505217" lon="10.021729">
   <ele>1.000000</ele>
   <time>2014-03-08T15:54:20Z</time>
</trkpt>
<trkpt lat="53.505119" lon="10.021555">
   <ele>1.000000</ele>
   <time>2014-03-08T15:54:24Z</time>
</trkpt>
<trkpt lat="53.505049" lon="10.021433">
   <ele>1.000000</ele>
   <time>2014-03-08T15:54:27Z</time>
</trkpt>
<trkpt lat="53.504952" lon="10.021267">
   <ele>1.000000</ele>
   <time>2014-03-08T15:54:31Z</time>
</trkpt>
<trkpt lat="53.504866" lon="10.021122">
   <ele>1.000000</ele>
   <time>2014-03-08T15:54:34Z</time>
</trkpt>
<trkpt lat="53.504755" lon="10.020938">
   <ele>1.000000</ele>
   <time>2014-03-08T15:54:38Z</time>
</trkpt>
<trkpt lat="53.504672" lon="10.020798">
   <ele>1.000000</ele>
   <time>2014-03-08T15:54:41Z</time>
</trkpt>
<trkpt lat="53.504587" lon="10.020658">
   <ele>1.000000</ele>
   <time>2014-03-08T15:54:44Z</time>
</trkpt>
<trkpt lat="53.504480" lon="10.020481">
   <ele>1.000000</ele>
   <time>2014-03-08T15:54:48Z</time>
</trkpt>
<trkpt lat="53.504377" lon="10.020311">
   <ele>1.000000</ele>
   <time>2014-03-08T15:54:52Z</time>
</trkpt>
<trkpt lat="53.504300" lon="10.020185">
   <ele>1.000000</ele>
   <time>2014-03-08T15:54:55Z</time>
</trkpt>
<trkpt lat="53.504220" lon="10.020052">
   <ele>1.000000</ele>
   <time>2014-03-08T15:54:58Z</time>
</trkpt>
<trkpt lat="53.504149" lon="10.019934">
   <ele>3.766503</ele>
   <time>2014-03-08T15:55:01Z</time>
</trkpt>
<trkpt lat="53.504181" lon="10.019799">
   <ele>1.000000</ele>
   <time>2014-03-08T15:55:05Z</time>
</trkpt>
<trkpt lat="53.504256" lon="10.019673">
   <ele>1.000000</ele>
   <time>2014-03-08T15:55:08Z</time>
</trkpt>
<trkpt lat="53.504369" lon="10.019481">
   <ele>1.000000</ele>
   <time>2014-03-08T15:55:12Z</time>
</trkpt>
<trkpt lat="53.504447" lon="10.019355">
   <ele>1.000000</ele>
   <time>2014-03-08T15:55:15Z</time>
</trkpt>
<trkpt lat="53.504522" lon="10.019238">
   <ele>1.000000</ele>
   <time>2014-03-08T15:55:18Z</time>
</trkpt>
<trkpt lat="53.504626" lon="10.019080">
   <ele>1.046697</ele>
   <time>2014-03-08T15:55:22Z</time>
</trkpt>
<trkpt lat="53.504728" lon="10.018924">
   <ele>1.094834</ele>
   <time>2014-03-08T15:55:26Z</time>
</trkpt>
<trkpt lat="53.504838" lon="10.018758">
   <ele>1.095467</ele>
   <time>2014-03-08T15:55:30Z</time>
</trkpt>
<trkpt lat="53.504952" lon="10.018584">
   <ele>1.040136</ele>
   <time>2014-03-08T15:55:34Z</time>
</trkpt>
<trkpt lat="53.505035" lon="10.018459">
   <ele>1.035238</ele>
   <time>2014-03-08T15:55:37Z</time>
</trkpt>
<trkpt lat="53.505108" lon="10.018347">
   <ele>1.127558</ele>
   <time>2014-03-08T15:55:40Z</time>
</trkpt>
<trkpt lat="53.505211" lon="10.018191">
   <ele>1.381555</ele>
   <time>2014-03-08T15:55:44Z</time>
</trkpt>
<trkpt lat="53.505311" lon="10.018039">
   <ele>1.594594</ele>
   <time>2014-03-08T15:55:48Z</time>
</trkpt>
<trkpt lat="53.505396" lon="10.017910">
   <ele>1.741519</ele>
   <time>2014-03-08T15:55:52Z</time>
</trkpt>
<trkpt lat="53.505453" lon="10.017824">
   <ele>1.822629</ele>
   <time>2014-03-08T15:55:55Z</time>
</trkpt>
<trkpt lat="53.505527" lon="10.017711">
   <ele>1.907053</ele>
   <time>2014-03-08T15:55:59Z</time>
</trkpt>
<trkpt lat="53.505610" lon="10.017586">
   <ele>1.972331</ele>
   <time>2014-03-08T15:56:03Z</time>
</trkpt>
<trkpt lat="53.505665" lon="10.017491">
   <ele>2.000000</ele>
   <time>2014-03-08T15:56:06Z</time>
</trkpt>
<trkpt lat="53.505772" lon="10.017292">
   <ele>2.000000</ele>
   <time>2014-03-08T15:56:10Z</time>
</trkpt>
<trkpt lat="53.505848" lon="10.017151">
   <ele>1.981812</ele>
   <time>2014-03-08T15:56:13Z</time>
</trkpt>
<trkpt lat="53.505921" lon="10.017016">
   <ele>1.894226</ele>
   <time>2014-03-08T15:56:16Z</time>
</trkpt>
<trkpt lat="53.506023" lon="10.016830">
   <ele>1.772644</ele>
   <time>2014-03-08T15:56:20Z</time>
</trkpt>
<trkpt lat="53.506139" lon="10.016619">
   <ele>1.654302</ele>
   <time>2014-03-08T15:56:24Z</time>
</trkpt>
<trkpt lat="53.506225" lon="10.016463">
   <ele>1.645208</ele>
   <time>2014-03-08T15:56:27Z</time>
</trkpt>
<trkpt lat="53.506328" lon="10.016282">
   <ele>1.680733</ele>
   <time>2014-03-08T15:56:31Z</time>
</trkpt>
<trkpt lat="53.506409" lon="10.016148">
   <ele>1.739776</ele>
   <time>2014-03-08T15:56:34Z</time>
</trkpt>
<trkpt lat="53.506508" lon="10.015987">
   <ele>1.850341</ele>
   <time>2014-03-08T15:56:38Z</time>
</trkpt>
<trkpt lat="53.506596" lon="10.015850">
   <ele>1.982164</ele>
   <time>2014-03-08T15:56:41Z</time>
</trkpt>
<trkpt lat="53.506709" lon="10.015674">
   <ele>3.000000</ele>
   <time>2014-03-08T15:56:45Z</time>
</trkpt>
<trkpt lat="53.506818" lon="10.015502">
   <ele>3.000000</ele>
   <time>2014-03-08T15:56:49Z</time>
</trkpt>
<trkpt lat="53.506920" lon="10.015335">
   <ele>3.000000</ele>
   <time>2014-03-08T15:56:53Z</time>
</trkpt>
<trkpt lat="53.507001" lon="10.015194">
   <ele>3.000000</ele>
   <time>2014-03-08T15:56:56Z</time>
</trkpt>
<trkpt lat="53.507067" lon="10.015080">
   <ele>3.000000</ele>
   <time>2014-03-08T15:56:59Z</time>
</trkpt>
<trkpt lat="53.507132" lon="10.015008">
   <ele>3.000000</ele>
   <time>2014-03-08T15:57:11Z</time>
</trkpt>
<trkpt lat="53.507466" lon="10.014518">
   <ele>3.524419</ele>
   <time>2014-03-08T15:57:16Z</time>
</trkpt>
<trkpt lat="53.507567" lon="10.014380">
   <ele>3.584724</ele>
   <time>2014-03-08T15:57:20Z</time>
</trkpt>
<trkpt lat="53.507656" lon="10.014286">
   <ele>3.403619</ele>
   <time>2014-03-08T15:57:23Z</time>
</trkpt>
<trkpt lat="53.507720" lon="10.014174">
   <ele>3.207659</ele>
   <time>2014-03-08T15:57:26Z</time>
</trkpt>
<trkpt lat="53.507783" lon="10.014005">
   <ele>2.982300</ele>
   <time>2014-03-08T15:57:30Z</time>
</trkpt>
<trkpt lat="53.507831" lon="10.013816">
   <ele>2.807251</ele>
   <time>2014-03-08T15:57:34Z</time>
</trkpt>
<trkpt lat="53.507892" lon="10.013682">
   <ele>2.587158</ele>
   <time>2014-03-08T15:57:37Z</time>
</trkpt>
<trkpt lat="53.507987" lon="10.013522">
   <ele>2.245300</ele>
   <time>2014-03-08T15:57:41Z</time>
</trkpt>
<trkpt lat="53.508058" lon="10.013398">
   <ele>1.992249</ele>
   <time>2014-03-08T15:57:44Z</time>
</trkpt>
<trkpt lat="53.508117" lon="10.013225">
   <ele>2.066347</ele>
   <time>2014-03-08T15:57:47Z</time>
</trkpt>
<trkpt lat="53.508171" lon="10.013099">
   <ele>2.261404</ele>
   <time>2014-03-08T15:57:50Z</time>
</trkpt>
<trkpt lat="53.508262" lon="10.012951">
   <ele>2.516018</ele>
   <time>2014-03-08T15:57:54Z</time>
</trkpt>
<trkpt lat="53.508330" lon="10.012837">
   <ele>2.790103</ele>
   <time>2014-03-08T15:57:57Z</time>
</trkpt>
<trkpt lat="53.508428" lon="10.012697">
   <ele>0.946272</ele>
   <time>2014-03-08T15:58:01Z</time>
</trkpt>
<trkpt lat="53.508517" lon="10.012555">
   <ele>0.971077</ele>
   <time>2014-03-08T15:58:05Z</time>
</trkpt>
<trkpt lat="53.508562" lon="10.012457">
   <ele>0.924956</ele>
   <time>2014-03-08T15:58:08Z</time>
</trkpt>
<trkpt lat="53.508600" lon="10.012389">
   <ele>0.819044</ele>
   <time>2014-03-08T15:58:11Z</time>
</trkpt>
<trkpt lat="53.508666" lon="10.012335">
   <ele>0.762725</ele>
   <time>2014-03-08T15:58:14Z</time>
</trkpt>
<trkpt lat="53.508777" lon="10.012269">
   <ele>0.740830</ele>
   <time>2014-03-08T15:58:18Z</time>
</trkpt>
<trkpt lat="53.508880" lon="10.012182">
   <ele>0.737483</ele>
   <time>2014-03-08T15:58:22Z</time>
</trkpt>
<trkpt lat="53.508978" lon="10.012097">
   <ele>0.781689</ele>
   <time>2014-03-08T15:58:25Z</time>
</trkpt>
<trkpt lat="53.509112" lon="10.011988">
   <ele>0.918741</ele>
   <time>2014-03-08T15:58:29Z</time>
</trkpt>
<trkpt lat="53.509233" lon="10.011923">
   <ele>2.037912</ele>
   <time>2014-03-08T15:58:32Z</time>
</trkpt>
<trkpt lat="53.509378" lon="10.011856">
   <ele>2.153167</ele>
   <time>2014-03-08T15:58:36Z</time>
</trkpt>
<trkpt lat="53.509500" lon="10.011797">
   <ele>2.354953</ele>
   <time>2014-03-08T15:58:40Z</time>
</trkpt>
<trkpt lat="53.509596" lon="10.011754">
   <ele>2.589911</ele>
   <time>2014-03-08T15:58:43Z</time>
</trkpt>
<trkpt lat="53.509736" lon="10.011740">
   <ele>3.012938</ele>
   <time>2014-03-08T15:58:47Z</time>
</trkpt>
<trkpt lat="53.509854" lon="10.011746">
   <ele>3.368093</ele>
   <time>2014-03-08T15:58:50Z</time>
</trkpt>
<trkpt lat="53.510005" lon="10.011743">
   <ele>3.799612</ele>
   <time>2014-03-08T15:58:54Z</time>
</trkpt>
<trkpt lat="53.510161" lon="10.011787">
   <ele>3.215385</ele>
   <time>2014-03-08T15:58:58Z</time>
</trkpt>
<trkpt lat="53.510309" lon="10.011806">
   <ele>2.739248</ele>
   <time>2014-03-08T15:59:02Z</time>
</trkpt>
<trkpt lat="53.510417" lon="10.011827">
   <ele>2.401965</ele>
   <time>2014-03-08T15:59:05Z</time>
</trkpt>
<trkpt lat="53.510541" lon="10.011867">
   <ele>2.040695</ele>
   <time>2014-03-08T15:59:09Z</time>
</trkpt>
<trkpt lat="53.510662" lon="10.011879">
   <ele>1.714203</ele>
   <time>2014-03-08T15:59:12Z</time>
</trkpt>
<trkpt lat="53.510816" lon="10.011860">
   <ele>1.279120</ele>
   <time>2014-03-08T15:59:16Z</time>
</trkpt>
<trkpt lat="53.510924" lon="10.011823">
   <ele>1.166794</ele>
   <time>2014-03-08T15:59:20Z</time>
</trkpt>
<trkpt lat="53.511000" lon="10.011865">
   <ele>1.190157</ele>
   <time>2014-03-08T15:59:23Z</time>
</trkpt>
<trkpt lat="53.511080" lon="10.012045">
   <ele>1.319681</ele>
   <time>2014-03-08T15:59:27Z</time>
</trkpt>
<trkpt lat="53.511137" lon="10.012198">
   <ele>1.405099</ele>
   <time>2014-03-08T15:59:31Z</time>
</trkpt>
<trkpt lat="53.511263" lon="10.012339">
   <ele>1.390790</ele>
   <time>2014-03-08T15:59:35Z</time>
</trkpt>
<trkpt lat="53.511335" lon="10.012482">
   <ele>1.389446</ele>
   <time>2014-03-08T15:59:38Z</time>
</trkpt>
<trkpt lat="53.511398" lon="10.012703">
   <ele>1.400505</ele>
   <time>2014-03-08T15:59:42Z</time>
</trkpt>
<trkpt lat="53.511424" lon="10.012866">
   <ele>1.418728</ele>
   <time>2014-03-08T15:59:45Z</time>
</trkpt>
<trkpt lat="53.511447" lon="10.013012">
   <ele>1.425656</ele>
   <time>2014-03-08T15:59:48Z</time>
</trkpt>
<trkpt lat="53.511503" lon="10.013126">
   <ele>1.343112</ele>
   <time>2014-03-08T15:59:51Z</time>
</trkpt>
<trkpt lat="53.511594" lon="10.013243">
   <ele>1.165985</ele>
   <time>2014-03-08T15:59:55Z</time>
</trkpt>
<trkpt lat="53.511647" lon="10.013259">
   <ele>1.045732</ele>
   <time>2014-03-08T15:59:59Z</time>
</trkpt>
<trkpt lat="53.511679" lon="10.013186">
   <ele>0.976397</ele>
   <time>2014-03-08T16:00:24Z</time>
</trkpt>
<trkpt lat="53.511725" lon="10.013214">
   <ele>0.881022</ele>
   <time>2014-03-08T16:00:54Z</time>
</trkpt>
<trkpt lat="53.511772" lon="10.013181">
   <ele>0.792694</ele>
   <time>2014-03-08T16:00:58Z</time>
</trkpt>
<trkpt lat="53.511812" lon="10.013136">
   <ele>0.733155</ele>
   <time>2014-03-08T16:01:06Z</time>
</trkpt>
<trkpt lat="53.511857" lon="10.013115">
   <ele>0.662443</ele>
   <time>2014-03-08T16:01:09Z</time>
</trkpt>
<trkpt lat="53.511962" lon="10.013096">
   <ele>0.492215</ele>
   <time>2014-03-08T16:01:13Z</time>
</trkpt>
<trkpt lat="53.512078" lon="10.013095">
   <ele>0.294870</ele>
   <time>2014-03-08T16:01:17Z</time>
</trkpt>
<trkpt lat="53.512218" lon="10.013048">
   <ele>0.129809</ele>
   <time>2014-03-08T16:01:21Z</time>
</trkpt>
<trkpt lat="53.512360" lon="10.012974">
   <ele>0.053255</ele>
   <time>2014-03-08T16:01:25Z</time>
</trkpt>
<trkpt lat="53.512497" lon="10.012921">
   <ele>-0.006802</ele>
   <time>2014-03-08T16:01:29Z</time>
</trkpt>
<trkpt lat="53.512633" lon="10.012870">
   <ele>0.791900</ele>
   <time>2014-03-08T16:01:33Z</time>
</trkpt>
<trkpt lat="53.512737" lon="10.012802">
   <ele>1.040040</ele>
   <time>2014-03-08T16:01:36Z</time>
</trkpt>
<trkpt lat="53.512838" lon="10.012737">
   <ele>1.202635</ele>
   <time>2014-03-08T16:01:39Z</time>
</trkpt>
<trkpt lat="53.512985" lon="10.012651">
   <ele>1.296135</ele>
   <time>2014-03-08T16:01:43Z</time>
</trkpt>
<trkpt lat="53.513092" lon="10.012572">
   <ele>1.275976</ele>
   <time>2014-03-08T16:01:46Z</time>
</trkpt>
<trkpt lat="53.513253" lon="10.012495">
   <ele>1.000000</ele>
   <time>2014-03-08T16:01:50Z</time>
</trkpt>
<trkpt lat="53.513356" lon="10.012400">
   <ele>1.000000</ele>
   <time>2014-03-08T16:01:53Z</time>
</trkpt>
<trkpt lat="53.513457" lon="10.012213">
   <ele>1.000000</ele>
   <time>2014-03-08T16:01:57Z</time>
</trkpt>
<trkpt lat="53.513523" lon="10.012097">
   <ele>1.000000</ele>
   <time>2014-03-08T16:02:00Z</time>
</trkpt>
<trkpt lat="53.513583" lon="10.011936">
   <ele>1.000000</ele>
   <time>2014-03-08T16:02:04Z</time>
</trkpt>
<trkpt lat="53.513583" lon="10.011788">
   <ele>1.000000</ele>
   <time>2014-03-08T16:02:07Z</time>
</trkpt>
<trkpt lat="53.513524" lon="10.011563">
   <ele>1.123904</ele>
   <time>2014-03-08T16:02:11Z</time>
</trkpt>
<trkpt lat="53.513466" lon="10.011336">
   <ele>1.396383</ele>
   <time>2014-03-08T16:02:15Z</time>
</trkpt>
<trkpt lat="53.513402" lon="10.011121">
   <ele>1.654479</ele>
   <time>2014-03-08T16:02:19Z</time>
</trkpt>
<trkpt lat="53.513325" lon="10.010968">
   <ele>1.837842</ele>
   <time>2014-03-08T16:02:22Z</time>
</trkpt>
<trkpt lat="53.513259" lon="10.010774">
   <ele>2.064771</ele>
   <time>2014-03-08T16:02:26Z</time>
</trkpt>
<trkpt lat="53.513151" lon="10.010638">
   <ele>2.182720</ele>
   <time>2014-03-08T16:02:30Z</time>
</trkpt>
<trkpt lat="53.513082" lon="10.010488">
   <ele>2.289274</ele>
   <time>2014-03-08T16:02:33Z</time>
</trkpt>
<trkpt lat="53.513034" lon="10.010351">
   <ele>2.371492</ele>
   <time>2014-03-08T16:02:37Z</time>
</trkpt>
<trkpt lat="53.513066" lon="10.010278">
   <ele>2.452238</ele>
   <time>2014-03-08T16:02:40Z</time>
</trkpt>
<trkpt lat="53.513135" lon="10.010179">
   <ele>2.597963</ele>
   <time>2014-03-08T16:02:44Z</time>
</trkpt>
<trkpt lat="53.513191" lon="10.010096">
   <ele>2.734190</ele>
   <time>2014-03-08T16:02:47Z</time>
</trkpt>
<trkpt lat="53.513267" lon="10.009976">
   <ele>2.896152</ele>
   <time>2014-03-08T16:02:51Z</time>
</trkpt>
<trkpt lat="53.513315" lon="10.009869">
   <ele>2.828150</ele>
   <time>2014-03-08T16:02:54Z</time>
</trkpt>
<trkpt lat="53.513395" lon="10.009767">
   <ele>2.741417</ele>
   <time>2014-03-08T16:02:58Z</time>
</trkpt>
<trkpt lat="53.513468" lon="10.009741">
   <ele>2.739742</ele>
   <time>2014-03-08T16:03:01Z</time>
</trkpt>
<trkpt lat="53.513571" lon="10.009764">
   <ele>2.797495</ele>
   <time>2014-03-08T16:03:05Z</time>
</trkpt>
<trkpt lat="53.513644" lon="10.009799">
   <ele>2.849029</ele>
   <time>2014-03-08T16:03:08Z</time>
</trkpt>
<trkpt lat="53.513741" lon="10.009840">
   <ele>2.902128</ele>
   <time>2014-03-08T16:03:12Z</time>
</trkpt>
<trkpt lat="53.513821" lon="10.009867">
   <ele>2.933668</ele>
   <time>2014-03-08T16:03:15Z</time>
</trkpt>
<trkpt lat="53.513938" lon="10.009902">
   <ele>2.967857</ele>
   <time>2014-03-08T16:03:19Z</time>
</trkpt>
<trkpt lat="53.514032" lon="10.009945">
   <ele>2.989388</ele>
   <time>2014-03-08T16:03:22Z</time>
</trkpt>
<trkpt lat="53.514150" lon="10.010031">
   <ele>2.962861</ele>
   <time>2014-03-08T16:03:26Z</time>
</trkpt>
<trkpt lat="53.514243" lon="10.010081">
   <ele>2.994185</ele>
   <time>2014-03-08T16:03:29Z</time>
</trkpt>
<trkpt lat="53.514340" lon="10.010113">
   <ele>3.072700</ele>
   <time>2014-03-08T16:03:32Z</time>
</trkpt>
<trkpt lat="53.514474" lon="10.010121">
   <ele>3.222657</ele>
   <time>2014-03-08T16:03:36Z</time>
</trkpt>
<trkpt lat="53.514597" lon="10.010171">
   <ele>3.311144</ele>
   <time>2014-03-08T16:03:40Z</time>
</trkpt>
<trkpt lat="53.514691" lon="10.010218">
   <ele>3.368199</ele>
   <time>2014-03-08T16:03:43Z</time>
</trkpt>
<trkpt lat="53.514836" lon="10.010257">
   <ele>3.494164</ele>
   <time>2014-03-08T16:03:47Z</time>
</trkpt>
<trkpt lat="53.514935" lon="10.010293">
   <ele>3.570619</ele>
   <time>2014-03-08T16:03:50Z</time>
</trkpt>
<trkpt lat="53.515069" lon="10.010338">
   <ele>3.610290</ele>
   <time>2014-03-08T16:03:54Z</time>
</trkpt>
<trkpt lat="53.515159" lon="10.010399">
   <ele>3.529834</ele>
   <time>2014-03-08T16:03:57Z</time>
</trkpt>
<trkpt lat="53.515279" lon="10.010473">
   <ele>3.387669</ele>
   <time>2014-03-08T16:04:01Z</time>
</trkpt>
<trkpt lat="53.515367" lon="10.010534">
   <ele>3.234537</ele>
   <time>2014-03-08T16:04:04Z</time>
</trkpt>
<trkpt lat="53.515499" lon="10.010615">
   <ele>2.976981</ele>
   <time>2014-03-08T16:04:08Z</time>
</trkpt>
<trkpt lat="53.515585" lon="10.010675">
   <ele>2.755744</ele>
   <time>2014-03-08T16:04:11Z</time>
</trkpt>
<trkpt lat="53.515689" lon="10.010762">
   <ele>2.401939</ele>
   <time>2014-03-08T16:04:15Z</time>
</trkpt>
<trkpt lat="53.515724" lon="10.010892">
   <ele>1.869406</ele>
   <time>2014-03-08T16:04:18Z</time>
</trkpt>
<trkpt lat="53.515763" lon="10.011090">
   <ele>0.906223</ele>
   <time>2014-03-08T16:04:22Z</time>
</trkpt>
<trkpt lat="53.515837" lon="10.011207">
   <ele>0.202374</ele>
   <time>2014-03-08T16:04:25Z</time>
</trkpt>
<trkpt lat="53.515966" lon="10.011258">
   <ele>-0.119986</ele>
   <time>2014-03-08T16:04:29Z</time>
</trkpt>
<trkpt lat="53.516055" lon="10.011265">
   <ele>-0.209503</ele>
   <time>2014-03-08T16:04:32Z</time>
</trkpt>
<trkpt lat="53.516143" lon="10.011266">
   <ele>-0.271229</ele>
   <time>2014-03-08T16:04:35Z</time>
</trkpt>
<trkpt lat="53.516264" lon="10.011306">
   <ele>-0.560722</ele>
   <time>2014-03-08T16:04:39Z</time>
</trkpt>
<trkpt lat="53.516405" lon="10.011298">
   <ele>-0.613068</ele>
   <time>2014-03-08T16:04:43Z</time>
</trkpt>
<trkpt lat="53.516523" lon="10.011195">
   <ele>-0.096327</ele>
   <time>2014-03-08T16:04:47Z</time>
</trkpt>
<trkpt lat="53.516575" lon="10.011006">
   <ele>0.989254</ele>
   <time>2014-03-08T16:04:51Z</time>
</trkpt>
<trkpt lat="53.516614" lon="10.010881">
   <ele>1.720342</ele>
   <time>2014-03-08T16:04:54Z</time>
</trkpt>
<trkpt lat="53.516622" lon="10.010750">
   <ele>4.572933</ele>
   <time>2014-03-08T16:04:57Z</time>
</trkpt>
<trkpt lat="53.516590" lon="10.010617">
   <ele>4.089585</ele>
   <time>2014-03-08T16:05:00Z</time>
</trkpt>
<trkpt lat="53.516575" lon="10.010518">
   <ele>3.784908</ele>
   <time>2014-03-08T16:05:04Z</time>
</trkpt>
<trkpt lat="53.516570" lon="10.010435">
   <ele>3.550582</ele>
   <time>2014-03-08T16:05:11Z</time>
</trkpt>
<trkpt lat="53.516335" lon="10.009962">
   <ele>3.131949</ele>
   <time>2014-03-08T16:05:15Z</time>
</trkpt>
<trkpt lat="53.516294" lon="10.009572">
   <ele>2.597374</ele>
   <time>2014-03-08T16:05:19Z</time>
</trkpt>
<trkpt lat="53.516245" lon="10.009365">
   <ele>2.368807</ele>
   <time>2014-03-08T16:05:22Z</time>
</trkpt>
<trkpt lat="53.516203" lon="10.009111">
   <ele>2.075693</ele>
   <time>2014-03-08T16:05:26Z</time>
</trkpt>
<trkpt lat="53.516180" lon="10.008865">
   <ele>1.957150</ele>
   <time>2014-03-08T16:05:30Z</time>
</trkpt>
<trkpt lat="53.516152" lon="10.008621">
   <ele>1.831310</ele>
   <time>2014-03-08T16:05:34Z</time>
</trkpt>
<trkpt lat="53.516118" lon="10.008444">
   <ele>1.746027</ele>
   <time>2014-03-08T16:05:37Z</time>
</trkpt>
<trkpt lat="53.516063" lon="10.008207">
   <ele>1.766008</ele>
   <time>2014-03-08T16:05:41Z</time>
</trkpt>
<trkpt lat="53.516027" lon="10.008018">
   <ele>1.855779</ele>
   <time>2014-03-08T16:05:44Z</time>
</trkpt>
<trkpt lat="53.515980" lon="10.007776">
   <ele>1.941561</ele>
   <time>2014-03-08T16:05:48Z</time>
</trkpt>
<trkpt lat="53.515950" lon="10.007595">
   <ele>1.983947</ele>
   <time>2014-03-08T16:05:51Z</time>
</trkpt>
<trkpt lat="53.515894" lon="10.007380">
   <ele>2.000000</ele>
   <time>2014-03-08T16:05:55Z</time>
</trkpt>
<trkpt lat="53.515876" lon="10.007232">
   <ele>2.000000</ele>
   <time>2014-03-08T16:05:58Z</time>
</trkpt>
<trkpt lat="53.515850" lon="10.007030">
   <ele>2.000000</ele>
   <time>2014-03-08T16:06:02Z</time>
</trkpt>
<trkpt lat="53.515837" lon="10.006846">
   <ele>2.000000</ele>
   <time>2014-03-08T16:06:05Z</time>
</trkpt>
<trkpt lat="53.515815" lon="10.006577">
   <ele>1.992785</ele>
   <time>2014-03-08T16:06:09Z</time>
</trkpt>
<trkpt lat="53.515779" lon="10.006375">
   <ele>1.931070</ele>
   <time>2014-03-08T16:06:12Z</time>
</trkpt>
<trkpt lat="53.515753" lon="10.006177">
   <ele>1.829076</ele>
   <time>2014-03-08T16:06:15Z</time>
</trkpt>
<trkpt lat="53.515719" lon="10.005927">
   <ele>1.635828</ele>
   <time>2014-03-08T16:06:19Z</time>
</trkpt>
<trkpt lat="53.515663" lon="10.005699">
   <ele>-0.332918</ele>
   <time>2014-03-08T16:06:23Z</time>
</trkpt>
<trkpt lat="53.515624" lon="10.005529">
   <ele>-0.524883</ele>
   <time>2014-03-08T16:06:26Z</time>
</trkpt>
<trkpt lat="53.515566" lon="10.005292">
   <ele>-0.762094</ele>
   <time>2014-03-08T16:06:30Z</time>
</trkpt>
<trkpt lat="53.515502" lon="10.005129">
   <ele>-0.906372</ele>
   <time>2014-03-08T16:06:33Z</time>
</trkpt>
<trkpt lat="53.515449" lon="10.004962">
   <ele>-0.909790</ele>
   <time>2014-03-08T16:06:36Z</time>
</trkpt>
<trkpt lat="53.515361" lon="10.004772">
   <ele>-0.451736</ele>
   <time>2014-03-08T16:06:40Z</time>
</trkpt>
<trkpt lat="53.515265" lon="10.004591">
   <ele>-0.018425</ele>
   <time>2014-03-08T16:06:44Z</time>
</trkpt>
<trkpt lat="53.515198" lon="10.004446">
   <ele>0.328787</ele>
   <time>2014-03-08T16:06:47Z</time>
</trkpt>
<trkpt lat="53.515092" lon="10.004261">
   <ele>0.772759</ele>
   <time>2014-03-08T16:06:51Z</time>
</trkpt>
<trkpt lat="53.515007" lon="10.004127">
   <ele>1.055470</ele>
   <time>2014-03-08T16:06:54Z</time>
</trkpt>
<trkpt lat="53.514908" lon="10.003933">
   <ele>1.360048</ele>
   <time>2014-03-08T16:06:58Z</time>
</trkpt>
<trkpt lat="53.514846" lon="10.003782">
   <ele>1.560524</ele>
   <time>2014-03-08T16:07:01Z</time>
</trkpt>
<trkpt lat="53.514814" lon="10.003542">
   <ele>1.804979</ele>
   <time>2014-03-08T16:07:05Z</time>
</trkpt>
<trkpt lat="53.514833" lon="10.003364">
   <ele>1.970417</ele>
   <time>2014-03-08T16:07:08Z</time>
</trkpt>
<trkpt lat="53.514864" lon="10.003255">
   <ele>2.452550</ele>
   <time>2014-03-08T16:07:11Z</time>
</trkpt>
<trkpt lat="53.514915" lon="10.003081">
   <ele>2.686205</ele>
   <time>2014-03-08T16:07:15Z</time>
</trkpt>
<trkpt lat="53.515001" lon="10.002820">
   <ele>3.231292</ele>
   <time>2014-03-08T16:07:19Z</time>
</trkpt>
<trkpt lat="53.515057" lon="10.002626">
   <ele>3.543406</ele>
   <time>2014-03-08T16:07:22Z</time>
</trkpt>
<trkpt lat="53.515109" lon="10.002449">
   <ele>3.660224</ele>
   <time>2014-03-08T16:07:25Z</time>
</trkpt>
<trkpt lat="53.515154" lon="10.002287">
   <ele>3.654638</ele>
   <time>2014-03-08T16:07:28Z</time>
</trkpt>
<trkpt lat="53.515194" lon="10.002150">
   <ele>3.623912</ele>
   <time>2014-03-08T16:07:31Z</time>
</trkpt>
<trkpt lat="53.515234" lon="10.001987">
   <ele>3.599230</ele>
   <time>2014-03-08T16:07:35Z</time>
</trkpt>
<trkpt lat="53.515261" lon="10.001882">
   <ele>3.571267</ele>
   <time>2014-03-08T16:07:38Z</time>
</trkpt>
<trkpt lat="53.515292" lon="10.001774">
   <ele>3.514508</ele>
   <time>2014-03-08T16:07:41Z</time>
</trkpt>
<trkpt lat="53.515350" lon="10.001655">
   <ele>3.316178</ele>
   <time>2014-03-08T16:07:45Z</time>
</trkpt>
<trkpt lat="53.515404" lon="10.001581">
   <ele>3.059293</ele>
   <time>2014-03-08T16:07:48Z</time>
</trkpt>
<trkpt lat="53.515473" lon="10.001468">
   <ele>2.760918</ele>
   <time>2014-03-08T16:07:52Z</time>
</trkpt>
<trkpt lat="53.515510" lon="10.001371">
   <ele>2.632967</ele>
   <time>2014-03-08T16:07:55Z</time>
</trkpt>
<trkpt lat="53.515541" lon="10.001267">
   <ele>2.545261</ele>
   <time>2014-03-08T16:07:58Z</time>
</trkpt>
<trkpt lat="53.515585" lon="10.001127">
   <ele>2.454502</ele>
   <time>2014-03-08T16:08:02Z</time>
</trkpt>
<trkpt lat="53.515623" lon="10.001087">
   <ele>2.354394</ele>
   <time>2014-03-08T16:08:42Z</time>
</trkpt>
<trkpt lat="53.515684" lon="10.001101">
   <ele>2.151803</ele>
   <time>2014-03-08T16:08:45Z</time>
</trkpt>
<trkpt lat="53.515800" lon="10.001121">
   <ele>1.763223</ele>
   <time>2014-03-08T16:08:49Z</time>
</trkpt>
<trkpt lat="53.515898" lon="10.001146">
   <ele>1.625345</ele>
   <time>2014-03-08T16:08:52Z</time>
</trkpt>
<trkpt lat="53.515988" lon="10.001155">
   <ele>1.614080</ele>
   <time>2014-03-08T16:08:55Z</time>
</trkpt>
<trkpt lat="53.516104" lon="10.001166">
   <ele>1.600703</ele>
   <time>2014-03-08T16:08:58Z</time>
</trkpt>
<trkpt lat="53.516263" lon="10.001159">
   <ele>1.609252</ele>
   <time>2014-03-08T16:09:02Z</time>
</trkpt>
<trkpt lat="53.516423" lon="10.001124">
   <ele>1.651598</ele>
   <time>2014-03-08T16:09:06Z</time>
</trkpt>
<trkpt lat="53.516600" lon="10.001079">
   <ele>1.704705</ele>
   <time>2014-03-08T16:09:10Z</time>
</trkpt>
<trkpt lat="53.516745" lon="10.000973">
   <ele>1.754453</ele>
   <time>2014-03-08T16:09:14Z</time>
</trkpt>
<trkpt lat="53.516850" lon="10.000903">
   <ele>1.715426</ele>
   <time>2014-03-08T16:09:17Z</time>
</trkpt>
<trkpt lat="53.516973" lon="10.000827">
   <ele>1.632690</ele>
   <time>2014-03-08T16:09:21Z</time>
</trkpt>
<trkpt lat="53.517086" lon="10.000773">
   <ele>1.497131</ele>
   <time>2014-03-08T16:09:24Z</time>
</trkpt>
<trkpt lat="53.517229" lon="10.000694">
   <ele>1.325012</ele>
   <time>2014-03-08T16:09:28Z</time>
</trkpt>
<trkpt lat="53.517351" lon="10.000631">
   <ele>1.178345</ele>
   <time>2014-03-08T16:09:31Z</time>
</trkpt>
<trkpt lat="53.517506" lon="10.000589">
   <ele>1.000000</ele>
   <time>2014-03-08T16:09:35Z</time>
</trkpt>
<trkpt lat="53.517650" lon="10.000565">
   <ele>1.000000</ele>
   <time>2014-03-08T16:09:39Z</time>
</trkpt>
<trkpt lat="53.517781" lon="10.000497">
   <ele>1.000000</ele>
   <time>2014-03-08T16:09:42Z</time>
</trkpt>
<trkpt lat="53.517871" lon="10.000455">
   <ele>1.000000</ele>
   <time>2014-03-08T16:09:45Z</time>
</trkpt>
<trkpt lat="53.518014" lon="10.000340">
   <ele>1.000000</ele>
   <time>2014-03-08T16:09:49Z</time>
</trkpt>
<trkpt lat="53.518157" lon="10.000327">
   <ele>1.000000</ele>
   <time>2014-03-08T16:09:53Z</time>
</trkpt>
<trkpt lat="53.518254" lon="10.000368">
   <ele>1.000000</ele>
   <time>2014-03-08T16:09:56Z</time>
</trkpt>
<trkpt lat="53.518392" lon="10.000313">
   <ele>1.000000</ele>
   <time>2014-03-08T16:10:00Z</time>
</trkpt>
<trkpt lat="53.518495" lon="10.000272">
   <ele>1.000000</ele>
   <time>2014-03-08T16:10:03Z</time>
</trkpt>
<trkpt lat="53.518640" lon="10.000213">
   <ele>1.000000</ele>
   <time>2014-03-08T16:10:07Z</time>
</trkpt>
<trkpt lat="53.518805" lon="10.000154">
   <ele>1.000000</ele>
   <time>2014-03-08T16:10:11Z</time>
</trkpt>
<trkpt lat="53.518926" lon="10.000109">
   <ele>1.000000</ele>
   <time>2014-03-08T16:10:14Z</time>
</trkpt>
<trkpt lat="53.519044" lon="10.000077">
   <ele>1.000000</ele>
   <time>2014-03-08T16:10:17Z</time>
</trkpt>
<trkpt lat="53.519201" lon="10.000031">
   <ele>1.000000</ele>
   <time>2014-03-08T16:10:21Z</time>
</trkpt>
<trkpt lat="53.519314" lon="9.999987">
   <ele>1.000000</ele>
   <time>2014-03-08T16:10:24Z</time>
</trkpt>
<trkpt lat="53.519418" lon="9.999947">
   <ele>1.000000</ele>
   <time>2014-03-08T16:10:27Z</time>
</trkpt>
<trkpt lat="53.519549" lon="9.999889">
   <ele>1.000000</ele>
   <time>2014-03-08T16:10:31Z</time>
</trkpt>
<trkpt lat="53.519697" lon="9.999848">
   <ele>1.000000</ele>
   <time>2014-03-08T16:10:35Z</time>
</trkpt>
<trkpt lat="53.519810" lon="9.999821">
   <ele>1.000000</ele>
   <time>2014-03-08T16:10:38Z</time>
</trkpt>
<trkpt lat="53.519904" lon="9.999897">
   <ele>1.000000</ele>
   <time>2014-03-08T16:10:41Z</time>
</trkpt>
<trkpt lat="53.519938" lon="10.000082">
   <ele>1.000000</ele>
   <time>2014-03-08T16:10:44Z</time>
</trkpt>
<trkpt lat="53.519958" lon="10.000332">
   <ele>1.000000</ele>
   <time>2014-03-08T16:10:48Z</time>
</trkpt>
<trkpt lat="53.519970" lon="10.000512">
   <ele>1.000000</ele>
   <time>2014-03-08T16:10:51Z</time>
</trkpt>
<trkpt lat="53.519990" lon="10.000675">
   <ele>1.000000</ele>
   <time>2014-03-08T16:10:54Z</time>
</trkpt>
<trkpt lat="53.519979" lon="10.000873">
   <ele>1.000000</ele>
   <time>2014-03-08T16:10:57Z</time>
</trkpt>
<trkpt lat="53.519991" lon="10.001127">
   <ele>1.000000</ele>
   <time>2014-03-08T16:11:01Z</time>
</trkpt>
<trkpt lat="53.520020" lon="10.001388">
   <ele>1.000000</ele>
   <time>2014-03-08T16:11:05Z</time>
</trkpt>
<trkpt lat="53.520025" lon="10.001585">
   <ele>1.000000</ele>
   <time>2014-03-08T16:11:08Z</time>
</trkpt>
<trkpt lat="53.520037" lon="10.001781">
   <ele>1.000000</ele>
   <time>2014-03-08T16:11:11Z</time>
</trkpt>
<trkpt lat="53.520070" lon="10.001975">
   <ele>1.000000</ele>
   <time>2014-03-08T16:11:14Z</time>
</trkpt>
<trkpt lat="53.520100" lon="10.002239">
   <ele>1.000000</ele>
   <time>2014-03-08T16:11:18Z</time>
</trkpt>
<trkpt lat="53.520124" lon="10.002499">
   <ele>1.000000</ele>
   <time>2014-03-08T16:11:22Z</time>
</trkpt>
<trkpt lat="53.520146" lon="10.002693">
   <ele>1.650497</ele>
   <time>2014-03-08T16:11:25Z</time>
</trkpt>
<trkpt lat="53.520157" lon="10.002957">
   <ele>2.060565</ele>
   <time>2014-03-08T16:11:29Z</time>
</trkpt>
<trkpt lat="53.520184" lon="10.003201">
   <ele>2.381599</ele>
   <time>2014-03-08T16:11:33Z</time>
</trkpt>
<trkpt lat="53.520258" lon="10.003445">
   <ele>2.566649</ele>
   <time>2014-03-08T16:11:37Z</time>
</trkpt>
<trkpt lat="53.520309" lon="10.003668">
   <ele>2.762140</ele>
   <time>2014-03-08T16:11:41Z</time>
</trkpt>
<trkpt lat="53.520358" lon="10.003814">
   <ele>2.797205</ele>
   <time>2014-03-08T16:11:44Z</time>
</trkpt>
<trkpt lat="53.520406" lon="10.003841">
   <ele>2.649766</ele>
   <time>2014-03-08T16:11:48Z</time>
</trkpt>
<trkpt lat="53.520454" lon="10.003912">
   <ele>2.543334</ele>
   <time>2014-03-08T16:12:10Z</time>
</trkpt>
<trkpt lat="53.520499" lon="10.003950">
   <ele>2.395184</ele>
   <time>2014-03-08T16:12:13Z</time>
</trkpt>
<trkpt lat="53.520530" lon="10.004052">
   <ele>2.355478</ele>
   <time>2014-03-08T16:12:17Z</time>
</trkpt>
<trkpt lat="53.520555" lon="10.004180">
   <ele>2.350981</ele>
   <time>2014-03-08T16:12:20Z</time>
</trkpt>
<trkpt lat="53.520566" lon="10.004406">
   <ele>2.561707</ele>
   <time>2014-03-08T16:12:24Z</time>
</trkpt>
<trkpt lat="53.520589" lon="10.004591">
   <ele>2.621023</ele>
   <time>2014-03-08T16:12:27Z</time>
</trkpt>
<trkpt lat="53.520602" lon="10.004781">
   <ele>2.721684</ele>
   <time>2014-03-08T16:12:30Z</time>
</trkpt>
<trkpt lat="53.520604" lon="10.005044">
   <ele>2.914817</ele>
   <time>2014-03-08T16:12:34Z</time>
</trkpt>
<trkpt lat="53.520633" lon="10.005231">
   <ele>2.613440</ele>
   <time>2014-03-08T16:12:37Z</time>
</trkpt>
<trkpt lat="53.520680" lon="10.005496">
   <ele>2.182042</ele>
   <time>2014-03-08T16:12:41Z</time>
</trkpt>
<trkpt lat="53.520697" lon="10.005759">
   <ele>1.994883</ele>
   <time>2014-03-08T16:12:45Z</time>
</trkpt>
<trkpt lat="53.520727" lon="10.006021">
   <ele>2.915857</ele>
   <time>2014-03-08T16:12:49Z</time>
</trkpt>
<trkpt lat="53.520765" lon="10.006205">
   <ele>3.914056</ele>
   <time>2014-03-08T16:12:52Z</time>
</trkpt>
<trkpt lat="53.520779" lon="10.006438">
   <ele>5.410079</ele>
   <time>2014-03-08T16:12:56Z</time>
</trkpt>
<trkpt lat="53.520800" lon="10.006658">
   <ele>6.899467</ele>
   <time>2014-03-08T16:13:00Z</time>
</trkpt>
<trkpt lat="53.520818" lon="10.006898">
   <ele>4.630529</ele>
   <time>2014-03-08T16:13:04Z</time>
</trkpt>
<trkpt lat="53.520826" lon="10.007015">
   <ele>3.926377</ele>
   <time>2014-03-08T16:13:07Z</time>
</trkpt>
<trkpt lat="53.520834" lon="10.007143">
   <ele>0.999259</ele>
   <time>2014-03-08T16:13:10Z</time>
</trkpt>
<trkpt lat="53.520837" lon="10.007298">
   <ele>0.988914</ele>
   <time>2014-03-08T16:13:13Z</time>
</trkpt>
<trkpt lat="53.520849" lon="10.007522">
   <ele>0.991260</ele>
   <time>2014-03-08T16:13:17Z</time>
</trkpt>
<trkpt lat="53.520835" lon="10.007680">
   <ele>1.213721</ele>
   <time>2014-03-08T16:13:20Z</time>
</trkpt>
<trkpt lat="53.520844" lon="10.007854">
   <ele>1.410103</ele>
   <time>2014-03-08T16:13:23Z</time>
</trkpt>
<trkpt lat="53.520924" lon="10.008157">
   <ele>1.742150</ele>
   <time>2014-03-08T16:13:27Z</time>
</trkpt>
<trkpt lat="53.520923" lon="10.008327">
   <ele>1.990640</ele>
   <time>2014-03-08T16:13:30Z</time>
</trkpt>
<trkpt lat="53.520886" lon="10.008516">
   <ele>2.240343</ele>
   <time>2014-03-08T16:13:34Z</time>
</trkpt>
<trkpt lat="53.520874" lon="10.008665">
   <ele>2.388639</ele>
   <time>2014-03-08T16:13:37Z</time>
</trkpt>
<trkpt lat="53.520886" lon="10.008902">
   <ele>2.615727</ele>
   <time>2014-03-08T16:13:41Z</time>
</trkpt>
<trkpt lat="53.520926" lon="10.009135">
   <ele>2.752261</ele>
   <time>2014-03-08T16:13:45Z</time>
</trkpt>
<trkpt lat="53.520988" lon="10.009319">
   <ele>2.844904</ele>
   <time>2014-03-08T16:13:48Z</time>
</trkpt>
<trkpt lat="53.521024" lon="10.009497">
   <ele>3.029207</ele>
   <time>2014-03-08T16:13:51Z</time>
</trkpt>
<trkpt lat="53.521047" lon="10.009684">
   <ele>3.266521</ele>
   <time>2014-03-08T16:13:54Z</time>
</trkpt>
<trkpt lat="53.521088" lon="10.009948">
   <ele>3.612748</ele>
   <time>2014-03-08T16:13:58Z</time>
</trkpt>
<trkpt lat="53.521118" lon="10.010132">
   <ele>3.708704</ele>
   <time>2014-03-08T16:14:01Z</time>
</trkpt>
<trkpt lat="53.521156" lon="10.010331">
   <ele>3.701529</ele>
   <time>2014-03-08T16:14:05Z</time>
</trkpt>
<trkpt lat="53.521135" lon="10.010485">
   <ele>3.797701</ele>
   <time>2014-03-08T16:14:09Z</time>
</trkpt>
<trkpt lat="53.521082" lon="10.010487">
   <ele>3.936530</ele>
   <time>2014-03-08T16:14:18Z</time>
</trkpt>
</trkseg></trk></gpx>
